[[{"header":{"parameterUnit":"m.s-1","parameterCategory":1,"la1":30.6,"la2":28.766,"lo1":-90.7593,"lo2":-88.6598,"dy":0.0162,"dx":0.0183,"nx":116,"ny":114,"refTime":"2023-11-01T12:00:00:Z","depth":0,"parameterNumber":2,"parameterNumberName":"U-component_of_WINDS"},"data":[0.0,0.0,0.0,0.0,0.0,0.0,0.0,0.0,0.0,0.0,0.0,0.0,0.0,0.0,0.0,0.0,0.0,0.0,0.0,0.0,0.0,0.0,0.0,0.0,0.0,0.0,0.0,0.0,0.0,0.0,0.0,0.0,0.0,0.0,0.0,0.0,0.0,0.0,0.0,0.0,0.0,0.0,0.0,0.0,0.0,0.0,0.0,0.0,0.0,0.0,0.0,0.0,0.0,0.0,0.0,0.0,0.0,0.0,0.0,0.0,0.0,0.0,0.0,0.0,0.0,0.0,0.0,0.0,0.0,0.0,0.0,0.0,0.0,0.0,0.0,0.0,0.0,0.0,0.0,0.0,0.0,0.0,0.0,0.0,0.0,0.0,0.0,0.0,0.0,0.0,0.0,0.0,0.0,0.0,0.0,0.0,0.0,0.0,0.0,0.0,0.0,0.0,0.0,0.0,0.0,0.0,0.0,0.0,0.0,0.0,0.0,0.0,0.0,0.0,0.0,0.0,0.0,0.0,0.0,0.0,0.0,0.0,0.0,0.0,0.0,0.0,0.0,0.0,0.0,0.0,0.0,0.0,0.0,0.0,0.0,0.0,0.0,0.0,0.0,0.0,0.0,0.0,0.0,0.0,0.0,0.0,0.0,0.0,0.0,0.0,0.0,0.0,0.0,0.0,0.0,0.0,0.0,0.0,0.0,0.0,0.0,0.0,0.0,0.0,0.0,0.0,0.0,0.0,0.0,0.0,0.0,0.0,0.0,0.0,0.0,0.0,0.0,0.0,0.0,0.0,0.0,0.0,0.0,0.0,0.0,0.0,0.0,0.0,0.0,0.0,0.0,0.0,0.0,0.0,0.0,0.0,0.0,0.0,0.0,0.0,0.0,0.0,0.0,0.0,0.0,0.0,0.0,0.0,0.0,0.0,0.0,0.0,0.0,0.0,0.0,0.0,0.0,0.0,0.0,0.0,0.0,0.0,0.0,0.0,0.0,0.0,0.0,0.0,0.0,0.0,0.0,0.0,0.0,0.0,0.0,0.0,0.0,0.0,0.0,0.0,0.0,0.0,0.0,0.0,0.0,0.0,0.0,0.0,0.0,0.0,0.0,0.0,0.0,0.0,0.0,0.0,0.0,0.0,0.0,0.0,0.0,0.0,0.0,0.0,0.0,0.0,0.0,0.0,0.0,0.0,0.0,0.0,0.0,0.0,0.0,0.0,0.0,0.0,0.0,0.0,0.0,0.0,0.0,0.0,0.0,0.0,0.0,0.0,0.0,0.0,0.0,0.0,0.0,0.0,0.0,0.0,0.0,0.0,0.0,0.0,0.0,0.0,0.0,0.0,0.0,0.0,0.0,0.0,0.0,0.0,0.0,0.0,0.0,0.0,0.0,0.0,0.0,0.0,0.0,0.0,0.0,0.0,0.0,0.0,0.0,0.0,0.0,0.0,0.0,0.0,0.0,0.0,0.0,0.0,0.0,0.0,0.0,0.0,0.0,0.0,0.0,0.0,0.0,0.0,0.0,0.0,0.0,0.0,0.0,0.0,0.0,0.0,0.0,0.0,0.0,0.0,0.0,0.0,0.0,0.0,0.0,0.0,0.0,0.0,0.0,0.0,0.0,0.0,0.0,0.0,0.0,0.0,0.0,0.0,0.0,0.0,0.0,0.0,0.0,0.0,0.0,0.0,0.0,0.0,0.0,0.0,0.0,0.0,0.0,0.0,0.0,0.0,0.0,0.0,0.0,0.0,0.0,0.0,0.0,0.0,0.0,0.0,0.0,0.0,0.0,0.0,0.0,0.0,0.0,0.0,0.0,0.0,0.0,0.0,0.0,0.0,0.0,0.0,0.0,0.0,0.0,0.0,0.0,0.0,0.0,0.0,0.0,0.0,0.0,0.0,0.0,0.0,0.0,0.0,0.0,0.0,0.0,0.0,0.0,0.0,0.0,0.0,0.0,0.0,0.0,0.0,0.0,0.0,0.0,0.0,0.0,0.0,0.0,0.0,0.0,0.0,0.0,0.0,0.0,0.0,0.0,0.0,0.0,0.0,0.0,0.0,0.0,0.0,0.0,0.0,0.0,0.0,0.0,0.0,0.0,0.0,0.0,0.0,0.0,0.0,0.0,0.0,0.0,0.0,0.0,0.0,0.0,0.0,0.0,0.0,0.0,0.0,0.0,0.0,0.0,0.0,0.0,0.0,0.0,0.0,0.0,0.0,0.0,0.0,0.0,0.0,0.0,0.0,0.0,0.0,0.0,0.0,0.0,0.0,0.0,0.0,0.0,0.0,0.0,0.0,0.0,0.0,0.0,0.0,0.0,0.0,0.0,0.0,0.0,0.0,0.0,0.0,0.0,0.0,0.0,0.0,0.0,0.0,0.0,0.0,0.0,0.0,0.0,0.0,0.0,0.0,0.0,0.0,0.0,0.0,0.0,0.0,0.0,0.0,0.0,0.0,0.0,0.0,0.0,0.0,0.0,0.0,0.0,0.0,0.0,0.0,0.0,0.0,0.0,0.0,0.0,0.0,0.0,0.0,0.0,0.0,0.0,0.0,0.0,0.0,0.0,0.0,0.0,0.0,0.0,0.0,0.0,0.0,0.0,0.0,0.0,0.0,0.0,0.0,0.0,0.0,0.0,0.0,0.0,0.0,0.0,0.0,0.0,0.0,0.0,0.0,0.0,0.0,0.0,0.0,0.0,0.0,0.0,0.0,0.0,0.0,0.0,0.0,0.0,0.0,0.0,0.0,0.0,0.0,0.0,0.0,0.0,0.0,0.0,0.0,0.0,0.0,0.0,0.0,0.0,0.0,0.0,0.0,0.0,0.0,0.0,0.0,0.0,0.0,0.0,0.0,0.0,0.0,0.0,0.0,0.0,0.0,0.0,0.0,0.0,0.0,0.0,0.0,0.0,0.0,0.0,0.0,0.0,0.0,0.0,0.0,0.0,0.0,0.0,0.0,0.0,0.0,0.0,0.0,0.0,0.0,0.0,0.0,0.0,0.0,0.0,0.0,0.0,0.0,0.0,0.0,0.0,0.0,0.0,0.0,0.0,0.0,0.0,0.0,0.0,0.0,0.0,0.0,0.0,0.0,0.0,0.0,0.0,0.0,0.0,0.0,0.0,0.0,0.0,0.0,0.0,0.0,0.0,0.0,0.0,0.0,0.0,0.0,0.0,0.0,0.0,0.0,0.0,0.0,0.0,0.0,0.0,0.0,0.0,0.0,0.0,0.0,0.0,0.0,0.0,0.0,0.0,0.0,0.0,0.0,0.0,0.0,0.0,0.0,0.0,0.0,0.0,0.0,0.0,0.0,0.0,0.0,0.0,0.0,0.0,0.0,0.0,0.0,0.0,0.0,0.0,0.0,0.0,0.0,0.0,0.0,0.0,0.0,0.0,0.0,0.0,0.0,0.0,0.0,0.0,0.0,0.0,0.0,0.0,0.0,0.0,0.0,0.0,0.0,0.0,0.0,0.0,0.0,0.0,0.0,0.0,0.0,0.0,0.0,0.0,0.0,0.0,0.0,0.0,0.0,0.0,0.0,0.0,0.0,0.0,0.0,0.0,0.0,0.0,0.0,0.0,0.0,0.0,0.0,0.0,0.0,0.0,0.0,0.0,0.0,0.0,0.0,0.0,0.0,0.0,0.0,0.0,0.0,0.0,0.0,0.0,0.0,0.0,0.0,0.0,0.0,0.0,0.0,0.0,0.0,0.0,0.0,0.0,0.0,0.0,0.0,0.0,0.0,0.0,0.0,0.0,0.0,0.0,0.0,0.0,0.0,0.0,0.0,0.0,0.0,0.0,0.0,0.0,0.0,0.0,0.0,0.0,0.0,0.0,0.0,0.0,0.0,0.0,0.0,0.0,0.0,0.0,0.0,0.0,0.0,0.0,0.0,0.0,0.0,0.0,0.0,0.0,0.0,0.0,0.0,0.0,0.0,0.0,0.0,0.0,0.0,0.0,0.0,0.0,0.0,0.0,0.0,0.0,0.0,0.0,0.0,0.0,0.0,0.0,0.0,0.0,0.0,0.0,0.0,0.0,0.0,0.0,0.0,0.0,0.0,0.0,0.0,0.0,0.0,0.0,0.0,0.0,0.0,0.0,0.0,0.0,0.0,0.0,0.0,0.0,0.0,0.0,0.0,0.0,0.0,0.0,0.0,0.0,0.0,0.0,0.0,0.0,0.0,0.0,0.0,0.0,0.0,0.0,0.0,0.0,0.0,0.0,0.0,0.0,0.0,0.0,0.0,0.0,0.0,0.0,0.0,0.0,0.0,0.0,0.0,0.0,0.0,0.0,0.0,0.0,0.0,0.0,0.0,0.0,0.0,0.0,0.0,0.0,0.0,0.0,0.0,0.0,0.0,0.0,0.0,0.0,0.0,0.0,0.0,0.0,0.0,0.0,0.0,0.0,0.0,0.0,0.0,0.0,0.0,0.0,0.0,0.0,0.0,0.0,0.0,0.0,0.0,0.0,0.0,0.0,0.0,0.0,0.0,0.0,0.0,0.0,0.0,0.0,0.0,0.0,0.0,0.0,0.0,0.0,0.0,0.0,0.0,0.0,0.0,0.0,0.0,0.0,0.0,0.0,0.0,0.0,0.0,0.0,0.0,0.0,0.0,0.0,0.0,0.0,0.0,0.0,0.0,0.0,0.0,0.0,0.0,0.0,0.0,0.0,0.0,0.0,0.0,0.0,0.0,0.0,0.0,0.0,0.0,0.0,0.0,0.0,0.0,0.0,0.0,0.0,0.0,0.0,0.0,0.0,0.0,0.0,0.0,0.0,0.0,0.0,0.0,0.0,0.0,0.0,0.0,0.0,0.0,0.0,0.0,0.0,0.0,0.0,0.0,0.0,0.0,0.0,0.0,0.0,0.0,0.0,0.0,0.0,0.0,0.0,0.0,0.0,0.0,0.0,0.0,0.0,0.0,0.0,0.0,0.0,0.0,0.0,0.0,0.0,0.0,0.0,0.0,0.0,0.0,0.0,0.0,0.0,0.0,0.0,0.0,0.0,0.0,0.0,0.0,0.0,0.0,0.0,0.0,0.0,0.0,0.0,0.0,0.0,0.0,0.0,0.0,0.0,0.0,0.0,0.0,0.0,0.0,0.0,0.0,0.0,0.0,0.0,0.0,0.0,0.0,0.0,0.0,0.0,0.0,0.0,0.0,0.0,0.0,0.0,0.0,0.0,0.0,0.0,0.0,0.0,0.0,0.0,0.0,0.0,0.0,0.0,0.0,0.0,0.0,0.0,0.0,0.0,0.0,0.0,0.0,0.0,0.0,0.0,0.0,0.0,0.0,0.0,0.0,0.0,0.0,0.0,0.0,0.0,0.0,0.0,0.0,0.0,0.0,0.0,0.0,0.0,0.0,0.0,0.0,0.0,0.0,0.0,0.0,0.0,0.0,0.0,0.0,0.0,0.0,0.0,0.0,0.0,0.0,0.0,0.0,0.0,0.0,0.0,0.0,0.0,0.0,0.0,0.0,0.0,0.0,0.0,0.0,0.0,0.0,0.0,0.0,0.0,0.0,0.0,0.0,0.0,0.0,0.0,0.0,0.0,0.0,0.0,0.0,0.0,0.0,0.0,0.0,0.0,0.0,0.0,0.0,0.0,0.0,0.0,0.0,0.0,0.0,0.0,0.0,0.0,0.0,0.0,0.0,0.0,0.0,0.0,0.0,0.0,0.0,0.0,0.0,0.0,0.0,0.0,0.0,0.0,0.0,0.0,0.0,0.0,0.0,0.0,0.0,0.0,0.0,0.0,0.0,0.0,0.0,0.0,0.0,0.0,0.0,0.0,0.0,0.0,0.0,0.0,0.0,0.0,0.0,0.0,0.0,0.0,0.0,0.0,0.0,0.0,0.0,0.0,0.0,0.0,0.0,0.0,0.0,0.0,0.0,0.0,0.0,0.0,0.0,0.0,0.0,0.0,0.0,0.0,0.0,0.0,0.0,0.0,0.0,0.0,0.0,0.0,0.0,0.0,0.0,0.0,0.0,0.0,0.0,0.0,0.0,0.0,0.0,0.0,0.0,0.0,0.0,0.0,0.0,0.0,0.0,0.0,0.0,0.0,0.0,0.0,0.0,0.0,0.0,2.3189,2.3466,0.0,0.0,0.0,0.0,0.0,0.0,0.0,0.0,0.0,0.0,0.0,0.0,0.0,0.0,0.0,0.0,0.0,0.0,0.0,0.0,0.0,0.0,0.0,0.0,0.0,0.0,0.0,0.0,0.0,0.0,0.0,0.0,0.0,0.0,0.0,0.0,0.0,-1.3742,-1.3742,-1.3742,-1.3742,-1.3014,-1.219,-1.1266,0.0,0.0,0.0,0.0,0.0,0.0,0.0,0.0,0.0,0.0,0.0,0.0,0.0,0.0,0.0,0.0,0.0,0.0,0.0,0.0,0.0,0.0,0.0,0.0,0.0,0.0,0.0,0.0,0.0,0.0,0.0,0.0,0.0,0.0,0.0,0.0,0.0,0.0,0.0,0.0,0.0,0.0,0.0,0.0,0.0,0.0,0.0,0.0,0.0,0.0,0.0,0.0,0.0,0.0,0.0,0.0,0.0,0.0,0.0,0.0,0.0,0.0,0.0,0.0,0.0,0.0,0.0,0.0,0.0,0.0,2.281,2.3057,0.0,0.0,0.0,0.0,0.0,0.0,0.0,0.0,0.0,0.0,0.0,0.0,0.0,0.0,0.0,0.0,0.0,0.0,0.0,0.0,0.0,0.0,0.0,-1.64,-1.6425,-1.655,-1.6112,-1.5861,0.0,0.0,0.0,0.0,0.0,0.0,0.0,-1.5153,-1.5061,-1.4832,-1.4743,-1.4698,-1.4698,-1.4698,-1.3841,-1.2263,-1.1623,0.0,0.0,0.0,0.0,0.0,0.0,0.0,0.0,0.0,0.0,0.0,0.0,0.0,0.0,0.0,0.0,0.0,0.0,0.0,0.0,0.0,0.0,0.0,0.0,0.0,0.0,0.0,0.0,0.0,0.0,0.0,0.0,0.0,0.0,0.0,0.0,0.0,0.0,0.0,0.0,0.0,0.0,0.0,0.0,0.0,0.0,0.0,0.0,0.0,0.0,0.0,0.0,0.0,0.0,0.0,0.0,0.0,0.0,0.0,0.0,0.0,0.0,0.0,2.1337,2.1491,2.1506,2.1901,2.2123,2.2209,2.2412,2.2591,2.2721,2.3009,0.0,0.0,0.0,0.0,0.0,0.0,0.0,0.0,0.0,0.0,0.0,0.0,0.0,0.0,0.0,0.0,0.0,0.0,0.0,0.0,0.0,-1.64,-1.66,-1.7144,-1.7121,-1.7291,-1.7819,0.0,0.0,0.0,0.0,0.0,-1.6955,-1.6955,-1.6454,-1.5395,-1.4945,-1.4698,-1.4698,-1.4698,-1.456,-1.4284,-1.3677,-1.2769,-1.1665,0.0,0.0,0.0,0.0,0.0,0.0,0.0,0.0,0.0,0.0,0.0,0.0,0.0,0.0,0.0,0.0,0.0,0.0,0.0,0.0,0.0,0.0,0.0,0.0,0.0,0.0,0.0,0.0,0.0,0.0,0.0,0.0,0.0,0.0,0.0,0.0,0.0,0.0,0.0,0.0,0.0,1.4835,1.5509,0.0,0.0,0.0,0.0,0.0,0.0,0.0,0.0,0.0,0.0,0.0,0.0,0.0,1.9255,1.9766,2.0128,2.0549,2.0991,2.1039,2.1071,2.1071,2.1134,2.1353,2.1672,2.1731,0.0,2.2708,2.2759,0.0,0.0,0.0,0.0,0.0,0.0,0.0,0.0,0.0,0.0,0.0,0.0,0.0,0.0,0.0,0.0,0.0,0.0,0.0,0.0,0.0,-1.8304,-1.8406,-1.8683,-1.8437,-1.8388,-1.8632,-1.8115,0.0,0.0,0.0,-1.7822,-1.7822,-1.7822,-1.7556,-1.7027,-1.6787,-1.6667,-1.6667,-1.6667,-1.6503,-1.6149,-1.5888,-1.4714,-1.2914,-1.2914,0.0,0.0,0.0,0.0,0.0,0.0,0.0,0.0,0.0,0.0,0.0,0.0,0.0,0.0,0.0,0.0,0.0,0.0,0.0,0.0,0.0,0.0,0.0,0.0,0.0,0.0,0.0,0.0,0.0,0.0,0.0,0.0,0.0,0.0,0.0,0.0,0.0,0.0,0.0,1.3175,1.4608,1.4539,1.4309,1.4168,0.0,0.0,0.0,0.0,0.0,0.0,0.0,0.0,0.0,1.7639,1.8444,1.9126,1.9588,1.9546,2.0066,2.1164,2.0843,2.106,2.1725,2.1608,2.1664,2.1811,2.1438,2.1443,2.1753,2.2003,2.2088,2.206,0.0,0.0,0.0,0.0,2.2385,2.2527,0.0,0.0,0.0,0.0,0.0,0.0,0.0,0.0,0.0,0.0,0.0,0.0,-2.0042,-2.0042,-2.0118,-2.027,-1.9909,-1.9629,-1.9457,-1.9075,-1.8798,-1.8606,-1.8606,-1.8606,-1.8606,-1.848,-1.8552,-1.887,-1.8552,-1.848,-1.8606,-1.8606,-1.8387,-1.7921,-1.78,-1.6428,-1.4221,-1.4221,-1.3823,-1.3069,0.0,0.0,0.0,0.0,0.0,0.0,0.0,0.0,0.0,0.0,0.0,0.0,0.0,0.0,0.0,0.0,0.0,0.0,0.0,0.0,0.0,0.0,0.0,0.0,0.0,0.0,0.0,0.0,0.0,0.0,0.0,0.0,0.0,0.0,0.0,0.0,0.0,1.2665,1.3991,1.3731,1.3705,1.375,0.0,0.0,0.0,0.0,0.0,0.0,1.5971,1.6399,1.6794,1.7245,1.8479,1.9237,1.943,1.9237,1.972,2.0922,2.0498,2.0784,2.1673,2.1689,2.1731,2.1823,2.1489,2.124,2.11,2.134,2.1445,2.1445,2.1445,2.172,2.2137,2.2137,2.2445,2.2835,0.0,0.0,0.0,0.0,0.0,0.0,0.0,0.0,0.0,0.0,0.0,-2.0042,-2.0671,-2.0746,-2.0966,-2.1568,-2.1588,-2.1325,-2.0769,-2.0693,-2.0394,-1.9736,-1.971,-1.971,-1.971,-1.9208,-1.9506,-2.0667,-1.9506,-1.9208,-1.971,-1.971,-1.9685,-1.9634,-1.9133,-1.7605,-1.5416,-1.5416,-1.4768,-1.3745,-1.3721,0.0,0.0,0.0,0.0,0.0,0.0,0.0,0.0,0.0,0.0,0.0,0.0,0.0,0.0,0.0,0.0,0.0,0.0,0.0,0.0,0.0,0.0,0.0,0.0,0.0,0.0,0.0,0.0,0.0,0.0,0.0,0.0,0.0,0.0,0.0,0.0,0.0,0.0,1.3614,1.3771,0.0,0.0,0.0,0.0,1.2992,1.3552,1.4123,1.4677,1.6249,1.7149,1.7194,1.8852,1.9532,1.902,1.951,1.9795,1.9866,1.9844,1.9871,1.9943,2.0506,2.1015,2.1465,2.2018,2.1873,2.1264,2.1083,2.1023,2.1023,2.1023,2.1275,2.1627,2.1627,2.236,2.3371,0.0,0.0,0.0,0.0,0.0,0.0,0.0,0.0,-1.9811,-1.9811,-2.0169,-2.0371,-2.0169,-2.0892,-2.1304,-2.1137,-2.1472,-2.1615,-2.1376,-2.1376,-2.1113,-2.0472,-2.0818,-2.1013,-2.1013,-2.0879,-2.1189,-2.2027,-2.2015,-2.2128,-2.2316,-2.2316,-2.2059,-2.1589,-2.1407,-2.0398,-1.8747,-1.7286,-1.5979,-1.4884,-1.4884,-1.4328,0.0,0.0,0.0,0.0,0.0,0.0,0.0,0.0,0.0,0.0,0.0,0.0,0.0,0.0,0.0,0.0,0.0,0.0,0.0,0.0,0.0,0.0,0.0,0.0,0.0,0.0,0.0,0.0,0.0,0.0,0.0,0.0,0.0,0.0,0.0,0.0,0.0,1.2488,1.287,0.0,1.3214,1.257,1.2616,1.3793,1.356,1.3986,1.5426,1.5584,1.5869,1.6426,1.7386,1.803,1.8291,1.85,1.9212,2.0433,2.0093,2.0305,2.1029,2.0846,2.085,2.0996,2.079,2.0764,2.0912,2.085,2.0716,2.0565,2.0565,2.1083,2.1859,2.1859,2.2589,2.3584,0.0,0.0,0.0,0.0,0.0,0.0,0.0,0.0,-1.9888,-2.0093,-2.0522,-2.0721,-2.0471,-2.14,-2.188,-2.1476,-2.1969,-2.2248,-2.2039,-2.1828,-2.152,-2.1113,-2.1688,-2.2134,-2.2371,-2.2426,-2.2971,-2.3997,-2.421,-2.4521,-2.4911,-2.4641,-2.423,-2.3728,-2.308,-2.2298,-2.1365,-1.952,-1.7791,-1.6351,-1.5957,-1.5236,-1.4312,0.0,0.0,0.0,0.0,0.0,0.0,0.0,0.0,0.0,0.0,0.0,0.0,0.0,0.0,0.0,0.0,0.0,0.0,0.0,0.0,0.0,0.0,0.0,0.0,0.0,0.0,0.0,0.0,0.0,0.0,0.0,0.0,0.0,0.0,0.0,1.1391,1.1311,1.1894,1.2344,1.2459,1.2014,1.2206,1.3407,1.2954,1.3328,1.4857,1.4844,1.5137,1.5938,1.6667,1.7293,1.7795,1.7795,1.8462,1.9725,1.9629,1.9834,2.0342,2.0636,2.0641,2.0448,2.0443,2.0545,2.072,2.072,2.0509,2.0184,2.06,2.1308,2.2104,2.2104,2.2847,2.3859,0.0,0.0,0.0,0.0,0.0,0.0,0.0,-1.9811,-2.0042,-2.0696,-2.082,-2.104,-2.1639,-2.2323,-2.2717,-2.2694,-2.3231,-2.3341,-2.2762,-2.2109,-2.1781,-2.1809,-2.2394,-2.3045,-2.3773,-2.379,-2.4693,-2.658,-2.5933,-2.6217,-2.7299,-2.6519,-2.6118,-2.603,-2.408,-2.3175,-2.307,-2.202,-2.0266,-1.813,-1.6979,-1.6126,-1.5416,0.0,0.0,0.0,0.0,0.0,0.0,0.0,0.0,0.0,0.0,0.0,0.0,0.0,0.0,0.0,0.0,0.0,0.0,0.0,0.0,0.0,0.0,0.0,0.0,0.0,0.0,0.0,0.0,0.0,0.0,0.0,0.0,0.0,0.7836,0.8343,0.9176,1.023,1.0909,1.1415,1.1647,1.1635,1.1651,1.1696,1.164,1.2003,1.2867,1.3997,1.4984,1.5792,1.6901,1.7495,1.7523,1.755,1.7578,1.7605,1.834,1.8286,1.7688,1.9761,2.0345,1.9736,2.1083,2.1309,2.079,2.079,2.041,1.9976,2.1181,2.1901,2.2274,2.2274,2.3048,2.4212,0.0,0.0,0.0,0.0,0.0,0.0,-1.9811,-1.9811,-2.0042,-2.0696,-2.1186,-2.152,-2.1687,-2.2688,-2.3165,-2.274,-2.3231,-2.3545,-2.3363,-2.3187,-2.3303,-2.3772,-2.355,-2.4163,-2.5764,-2.581,-2.6509,-2.8021,-2.8331,-2.833,-2.8025,-2.7794,-2.7061,-2.5937,-2.5375,-2.4838,-2.4249,-2.312,-2.2305,-2.1563,-1.9653,-1.8043,-1.6739,0.0,0.0,0.0,0.0,0.0,0.0,0.0,0.0,0.0,0.0,0.0,0.0,0.0,0.0,0.0,0.0,0.0,0.0,0.0,0.0,0.0,0.0,0.0,0.0,0.0,0.0,0.0,0.0,0.0,0.0,0.0,0.0,0.7105,0.8568,0.9814,1.0781,1.1265,1.1478,1.1356,1.0803,1.0322,1.0379,1.1193,1.0223,1.0588,1.2843,1.2748,1.296,1.3779,1.4682,1.539,1.5944,1.6497,1.7052,1.7605,1.7825,1.7797,1.7633,1.8744,1.919,1.9034,1.994,2.0492,2.0801,2.0801,2.0958,2.1107,2.0538,2.0955,2.1867,2.1867,2.2918,2.4402,0.0,0.0,0.0,0.0,0.0,0.0,-1.9811,-1.9811,-2.0042,-2.0696,-2.1331,-2.1615,-2.1328,-2.2688,-2.3253,-2.2369,-2.3098,-2.361,-2.361,-2.3879,-2.4216,-2.4616,-2.511,-2.585,-2.6991,-2.7554,-2.8352,-2.9415,-2.9774,-2.9882,-2.9637,-2.9291,-2.8436,-2.7185,-2.6569,-2.5858,-2.5084,-2.4173,-2.3547,-2.2995,-2.1691,-2.0026,-1.8264,-1.7436,-1.6213,-1.4909,-1.4339,-1.3335,-1.2203,-1.1888,0.0,0.0,0.0,0.0,0.0,0.0,0.0,0.0,0.0,0.0,0.0,0.0,0.0,0.0,0.0,0.0,0.0,0.0,0.0,0.0,0.0,0.0,0.0,0.0,0.5223,0.6797,0.8277,0.9092,0.967,0.9973,1.0026,0.9909,0.9575,0.9205,0.9245,0.9919,0.9154,0.9677,1.2074,1.1652,1.1896,1.313,1.3501,1.4076,1.4837,1.5293,1.592,1.6687,1.6996,1.6968,1.6715,1.777,1.807,1.7852,1.8874,1.9554,1.994,2.0245,2.057,2.0886,0.0,0.0,0.0,0.0,2.252,2.3743,0.0,0.0,0.0,0.0,0.0,0.0,-1.9811,-1.9811,-2.0042,-2.0696,-2.1283,-2.1448,-2.1066,-2.2506,-2.3069,-2.2016,-2.2958,-2.364,-2.3699,-2.4335,-2.4815,-2.5014,-2.6742,-2.7794,-2.7914,-2.9082,-2.9983,-3.0612,-3.0612,-3.0884,-3.1336,-3.0628,-2.9813,-2.8943,-2.76,-2.6551,-2.5828,-2.5167,-2.4299,-2.3371,-2.3246,-2.1892,-1.9885,-1.8751,-1.728,-1.5783,-1.4972,-1.3989,-1.2978,-1.2197,0.0,0.0,0.0,0.0,0.0,0.0,0.0,0.0,0.0,0.0,0.0,0.0,0.0,0.0,0.0,0.0,0.0,0.0,0.0,0.0,0.0,0.0,0.0,0.0,0.5562,0.6671,0.7038,0.6981,0.713,0.7697,0.7766,0.7889,0.8224,0.8263,0.8263,0.8263,0.8263,0.9058,1.0878,0.0,0.0,0.0,0.0,1.3224,1.3927,1.4034,1.4481,1.5264,1.5911,1.594,1.5439,1.6828,1.7107,1.6567,1.7988,1.8605,1.8703,1.934,1.9703,1.9962,2.114,2.1615,2.1615,2.1687,2.2109,2.2694,0.0,0.0,0.0,0.0,0.0,0.0,-1.9811,-1.9811,-2.0042,-2.0696,-2.0894,-2.1307,-2.2235,-2.2672,-2.2965,-2.3231,-2.345,-2.3849,-2.4365,-2.5023,-2.5896,-2.6986,-2.7927,-2.8876,-2.9924,-3.0193,-3.0642,-3.1301,-3.1301,-3.1013,-3.051,-3.0359,-2.9813,-2.8971,-2.7964,-2.7446,-2.7196,-2.596,-2.5335,-2.5034,-2.418,-2.2749,-2.1041,-1.9906,-1.8947,-1.7991,-1.6035,-1.4863,-1.4121,-1.3042,-1.2295,-1.1789,-1.1641,-1.1141,0.0,0.0,0.0,0.0,0.0,0.0,0.0,0.0,0.0,0.0,0.0,0.0,0.0,0.0,0.0,0.0,0.0,0.0,0.0,0.1633,0.325,0.4415,0.45,0.5304,0.6445,0.7918,0.8211,0.8036,0.7425,0.7362,0.7362,0.7362,0.7362,0.8157,1.0042,1.0064,1.0488,1.1442,1.2037,1.2318,1.2258,1.2901,1.3644,1.4421,1.4599,0.0,1.5439,1.6312,1.6624,1.6539,1.744,1.8024,1.8408,1.8549,1.9202,2.0185,2.0758,2.0993,2.1015,2.152,2.2109,2.2626,0.0,0.0,0.0,0.0,0.0,0.0,-1.9811,-1.9811,-1.9914,-2.0245,-2.0597,-2.0919,-2.121,-2.1833,-2.2323,-2.2614,-2.3253,-2.4029,-2.5023,-2.5412,-2.6363,-2.8034,-2.8727,-2.9535,-3.0492,-3.118,-3.166,-3.1989,-3.2318,-3.2288,-3.1895,-3.1895,-3.1263,-3.008,-2.9219,-2.843,-2.7611,-2.6518,-2.5862,-2.5536,-2.4732,-2.3753,-2.2598,-2.1192,-1.9916,-1.8651,-1.6669,-1.5541,-1.4839,-1.3399,-1.2856,-1.2745,-1.2467,-1.1882,-1.1241,0.0,0.0,0.0,0.0,0.0,0.0,0.0,0.0,0.0,0.0,0.0,0.0,0.0,0.0,-0.2956,0.0,0.0,-0.0121,0.1532,0.2543,0.3176,0.323,0.3816,0.4938,0.6763,0.713,0.7062,0.6722,0.6693,0.6693,0.6693,0.6693,0.7315,0.8775,0.917,0.9495,0.9775,1.0969,1.1468,1.1159,1.1981,1.2779,1.3614,1.3614,1.3825,1.4213,1.525,1.5703,1.5762,1.7105,1.7809,1.8075,1.8438,1.9239,2.0237,2.0409,2.0775,2.1197,2.1511,2.1998,2.2501,0.0,0.0,0.0,0.0,0.0,0.0,0.0,-1.9811,-1.9811,-1.9811,-2.027,-2.0446,-2.0042,-2.0917,-2.1615,-2.1875,-2.2704,-2.3844,-2.5322,-2.5408,-2.6361,-2.8517,-2.9235,-2.9924,-3.0702,-3.1779,-3.2317,-3.2317,-3.2856,-3.3125,-3.3125,-3.3125,-3.2372,-3.0989,-3.0171,-2.9018,-2.7637,-2.685,-2.6223,-2.5711,-2.5051,-2.4525,-2.3954,-2.2171,-2.0643,-1.9148,-1.7266,-1.6177,-1.5408,-1.3662,-1.3386,-1.3674,-1.3089,-1.2564,-1.2135,-1.1888,-1.1416,0.0,0.0,0.0,0.0,0.0,0.0,0.0,0.0,0.0,-0.51,-0.4274,-0.4219,-0.373,-0.1781,-0.1486,-0.0903,0.1158,0.1789,0.2056,0.2149,0.2581,0.3471,0.5038,0.5532,0.5891,0.6247,0.63,0.6222,0.6022,0.6183,0.6641,0.7425,0.8179,0.8617,0.8624,1.006,1.064,1.0327,1.1139,1.1965,1.2765,1.2765,1.2889,1.3124,1.4122,1.4751,1.506,1.6914,1.7729,1.7792,1.8628,1.9381,2.0062,2.0211,2.0798,2.1571,2.1512,2.1884,2.2376,0.0,0.0,0.0,0.0,0.0,0.0,0.0,0.0,-1.9811,-1.9811,-1.9888,-2.0093,-2.0622,-2.082,-2.1355,-2.2489,-2.2156,-2.2723,-2.4596,-2.4787,-2.5937,-2.8491,-2.9235,-3.0163,-3.1361,-3.154,-3.16,-3.16,-3.169,-3.172,-3.172,-3.172,-3.125,-3.0355,-2.9523,-2.8578,-2.7637,-2.685,-2.6449,-2.6298,-2.5234,-2.475,-2.4481,-2.2322,-2.139,-2.0852,-1.816,-1.6802,-1.605,-1.4299,-1.3745,-1.3674,-1.3089,-1.3214,-1.3321,-1.2159,-1.174,-1.1416,-1.0141,-0.9368,-0.8712,-0.7916,-0.7691,-0.7144,0.0,0.0,-0.4403,-0.3,-0.2841,-0.2833,-0.2558,-0.2547,-0.2445,-0.2153,-0.0781,0.0276,0.0313,0.1819,0.2969,0.319,0.418,0.5223,0.6222,0.63,0.5906,0.4963,0.5744,0.6325,0.6367,0.7363,0.8178,0.8762,0.9576,0.9889,0.9618,1.0341,1.1139,1.1919,1.1919,1.2414,1.3361,1.3489,1.4198,1.5349,1.6798,1.7435,1.752,1.8766,1.9305,1.9468,2.0252,2.1097,2.1837,2.1588,2.1884,2.2322,0.0,0.0,0.0,0.0,0.0,0.0,0.0,0.0,0.0,-1.9811,-1.9811,-1.9888,-2.0194,-2.0572,-2.1017,-2.1547,-2.1639,-2.2197,-2.3421,-2.383,-2.5083,-2.7345,-2.805,-2.9184,-3.0883,-3.1301,-3.169,-3.2079,-3.2467,-3.2677,-3.2647,-3.2134,-3.1502,-3.0756,-2.943,-2.8391,-2.7611,-2.6467,-2.5996,-2.5862,-2.4782,-2.4098,-2.3597,-2.1719,-2.0842,-2.0209,-1.8066,-1.6906,0.0,-1.4383,-1.4027,-1.4213,-1.36,-1.36,-1.3697,-1.313,-1.2716,-1.2147,-1.0779,-0.9884,-0.9211,0.0,-0.8468,-0.8105,-0.6276,-0.6034,-0.5763,-0.4213,-0.4014,-0.3951,-0.3421,-0.3411,-0.3103,0.0,-0.125,-0.0585,-0.0071,0.0692,0.1457,0.2077,0.2607,0.3285,0.4336,0.4453,0.4258,0.3787,0.4763,0.5351,0.5333,0.6888,0.7618,0.7167,0.9145,0.973,0.8772,1.0292,1.1166,1.1343,1.1479,1.1798,1.2259,1.2986,1.4026,1.5274,1.5841,1.6444,1.6973,1.7498,1.8335,1.9342,1.9683,2.0365,2.1181,2.159,2.2188,2.277,0.0,0.0,0.0,0.0,0.0,0.0,0.0,0.0,0.0,0.0,-1.9811,-1.9811,-1.9811,-2.022,-2.0597,-2.0771,-2.104,-2.1542,-2.2373,-2.2855,-2.3989,-2.5994,-2.6806,-2.8117,-2.9953,-3.0642,-3.1212,-3.1719,-3.2198,-3.2318,-3.2079,-3.1444,-3.069,-2.9741,-2.8498,-2.7591,-2.681,-2.58,-2.5285,-2.5084,-2.413,-2.3396,-2.2694,-2.1066,-2.0087,-1.9384,-1.7873,-1.6812,-1.5963,-1.4716,-1.4491,-1.4583,-1.398,-1.3909,-1.398,-1.3647,-1.3098,-1.232,-1.1133,-1.0383,0.0,-0.9085,-0.8974,-0.8664,-0.7315,-0.7023,-0.6666,-0.5249,-0.5063,-0.4996,-0.4347,-0.4126,-0.358,-0.2242,-0.1619,-0.1068,-0.0434,-0.0147,0.0299,0.1054,0.1176,0.145,0.2189,0.2771,0.2969,0.2696,0.3671,0.4258,0.4258,0.5964,0.669,0.6098,0.8318,0.9046,0.7963,0.9685,1.0623,1.0702,1.0908,1.1188,1.1591,1.2825,1.3904,1.4816,1.51,1.572,1.6593,1.6611,1.7541,1.8944,1.8944,1.9453,2.0333,2.0942,2.1698,2.2433,0.0,0.0,0.0,0.0,0.0,0.0,0.0,0.0,0.0,0.0,0.0,0.0,0.0,-1.9837,-2.0093,-2.0746,-2.022,-2.037,-2.1667,-2.1801,-2.2727,-2.4669,-2.5962,-2.7237,-2.8637,-2.9295,-2.9681,-2.9711,-2.9711,-2.9326,-2.8539,-2.8539,-2.7705,-2.6228,-2.6197,-2.5693,-2.489,-2.4858,-2.4531,-2.4004,-2.3371,-2.2794,-2.2146,-2.0464,-1.951,-1.8882,-1.7802,-1.6595,-1.5515,-1.5541,-1.5175,-1.4583,-1.398,-1.419,-1.4445,-1.3262,-1.2418,-1.169,-1.099,0.0,-1.0109,-0.9356,-0.8893,-0.8393,-0.7486,-0.6852,-0.6186,-0.528,-0.525,-0.5385,-0.5352,-0.4616,-0.3979,-0.3913,-0.243,-0.1303,-0.1267,-0.0521,0.0,0.0039,0.0039,0.0079,0.0,0.1916,0.2696,0.1724,0.2579,0.3161,0.3161,0.4176,0.5273,0.6254,0.6993,0.7372,0.7318,0.811,0.8964,0.9939,0.9939,1.0651,1.1935,1.3158,1.3702,1.381,1.478,1.572,1.6611,1.6594,1.7166,1.8042,1.8042,1.8563,1.9342,1.9375,1.9944,2.0814,0.0,0.0,0.0,0.0,0.0,0.0,0.0,0.0,0.0,0.0,0.0,0.0,0.0,0.0,0.0,0.0,-1.9914,-1.9965,-2.0421,-2.0836,-2.1564,-2.2727,-2.3519,-2.4789,-2.6568,-2.6854,-2.7384,-2.8274,-2.8723,-2.8559,-2.7818,-2.7683,-2.7061,-2.6056,-2.5102,-2.4538,-2.423,-2.3446,-2.305,-2.2824,-2.2272,-2.1719,-2.1144,-2.0162,-1.9258,-1.8332,0.0,-1.5962,-1.5038,-1.5468,-1.522,-1.4721,-1.4926,-1.4858,-1.4445,-1.3238,-1.2918,-1.2783,-1.2101,0.0,-1.1198,-1.0488,-0.9959,-0.9354,-0.8486,-0.8307,-0.8079,-0.7205,-0.7066,-0.712,-0.712,-0.6392,-0.5397,-0.4196,-0.2995,-0.1796,-0.0615,-0.0183,0.0,0.0,0.0,0.0,0.0,0.0,0.0,0.0549,0.2111,0.3083,0.3083,0.4802,0.5944,0.63,0.7156,0.7543,0.7298,0.8439,0.9426,1.0242,1.1103,1.1725,1.2194,1.2581,1.2769,1.2806,1.312,1.381,1.4692,1.4673,1.5614,1.706,1.706,1.7628,1.8428,1.8428,1.863,1.9177,0.0,0.0,0.0,0.0,0.0,0.0,0.0,0.0,0.0,0.0,0.0,0.0,0.0,0.0,0.0,0.0,0.0,-1.9811,-1.9811,-2.0137,-2.0706,-2.14,-2.2008,-2.3036,-2.4526,-2.4804,-2.5347,-2.6213,-2.6626,-2.6462,-2.574,-2.5631,-2.5164,-2.4398,-2.3522,-2.31,-2.305,-2.2322,-2.1895,-2.1694,-2.1343,-2.0893,-2.0314,-1.9736,-1.8834,0.0,-1.6762,-1.5522,-1.4468,-1.5062,-1.488,-1.4445,-1.4835,-1.4537,-1.3949,-1.3293,-1.3301,-1.3381,-1.2863,-1.2415,-1.1902,-1.1216,-1.0662,-1.0058,-0.9165,-0.9139,-0.9043,-0.8194,-0.7989,-0.7989,-0.7989,-0.7005,-0.5818,-0.4653,-0.3471,-0.2185,-0.0686,-0.0473,-0.0334,-0.0039,0.0,0.0,0.0,0.0,0.0,0.0,0.1253,0.2306,0.3044,0.4414,0.5512,0.6261,0.6911,0.7156,0.6964,0.7795,0.8807,1.0036,1.1206,1.1959,1.2305,1.2305,1.2305,1.2305,1.2305,1.2842,1.3702,1.3702,1.4916,1.6828,1.6828,1.7481,1.8477,1.8477,1.8477,1.8676,0.0,0.0,0.0,0.0,0.0,0.0,0.0,0.0,0.0,0.0,0.0,0.0,0.0,0.0,0.0,0.0,0.0,0.0,-1.9811,-1.9811,-2.0067,-2.0721,-2.1374,-2.1997,-2.257,-2.325,-2.3553,-2.3603,-2.3631,-2.3274,-2.2565,-2.2591,-2.2213,-2.1493,-2.1468,-2.1443,-2.1443,-2.1446,-2.1119,-2.0641,-2.0614,-2.0262,-1.9684,-1.9108,-1.8216,-1.717,-1.6527,-1.5242,-1.3886,-1.4491,-1.4329,-1.3839,-1.3815,-1.3406,-1.3062,-1.3398,-1.3535,-1.3497,-1.3267,-1.2841,-1.2321,-1.1568,-1.1036,-1.0428,-0.9568,-0.9364,-0.9139,-0.8323,-0.8118,-0.8118,-0.8118,0.0,-0.5424,-0.5391,-0.387,-0.239,-0.144,-0.127,-0.0927,0.0,0.0,0.0,0.0,0.0,0.0,0.0,0.0,0.1018,0.3005,0.32,0.4176,0.6222,0.63,0.63,0.63,0.6416,0.7403,0.9226,1.0297,1.1279,1.2157,1.2194,1.2231,1.2231,1.2318,1.2833,1.3659,1.3674,1.5021,1.7063,1.7063,1.7915,1.9131,1.9204,1.9204,1.9232,0.0,0.0,0.0,0.0,0.0,0.0,0.0,0.0,0.0,0.0,0.0,0.0,0.0,0.0,0.0,0.0,0.0,0.0,-1.9811,-1.9811,-1.9888,-2.0042,-2.022,-2.0603,-2.1255,-2.1465,-2.1767,-2.2228,-2.2723,-2.2569,-2.1878,-2.2379,-2.2213,-2.1468,-2.1094,-2.0893,-2.0867,-2.0413,-2.0137,-1.9986,-1.9436,-1.9124,-1.8879,-1.7885,-1.7065,-1.6359,-1.5399,-1.4507,-1.3886,0.0,0.0,0.0,0.0,-1.3879,-1.3944,-1.3584,-1.3965,-1.4445,-1.4396,-1.405,-1.3548,-1.277,-1.2012,-1.1281,-1.046,-1.0269,-1.0206,-0.997,-0.9939,-0.9939,-0.9939,-0.8506,0.0,-0.6384,-0.4257,0.0,-0.1439,-0.0754,0.0,-0.0038,0.0,0.0,0.0,0.0,0.0,0.0,0.1448,0.254,0.3083,0.4608,0.575,0.63,0.63,0.63,0.63,0.7778,0.8428,0.8199,0.9959,1.0533,1.0083,1.0832,1.1168,1.1254,1.2231,1.2814,1.3017,1.3264,1.4084,1.524,1.524,1.5897,1.6946,1.7804,1.8119,1.823,0.0,0.0,0.0,0.0,0.0,0.0,0.0,0.0,0.0,0.0,0.0,0.0,0.0,0.0,0.0,0.0,0.0,0.0,0.0,-1.9605,-1.9811,-1.9811,-1.9811,-1.9965,-2.0346,-2.0346,-2.0547,-2.0866,-2.1236,-2.122,-2.0836,-2.1199,-2.1142,-2.074,-2.044,-2.0129,-1.9787,-1.9468,-1.9135,0.0,0.0,-1.7961,-1.7838,-1.7042,-1.6212,-1.5421,-1.4818,-1.4094,0.0,0.0,0.0,-1.3836,-1.3505,-1.3667,-1.3973,-1.3814,0.0,-1.4768,-1.4573,-1.411,-1.3476,-1.2657,-1.1872,-1.117,-1.0713,-1.0586,-1.0586,-1.0586,-1.0586,0.0,-1.0586,-0.916,0.0,0.0,0.0,0.0,-0.205,-0.1144,-0.0441,0.0,0.0,0.0,0.0,0.0,0.0,0.0,0.1527,0.2618,0.3083,0.4686,0.5828,0.63,0.63,0.63,0.63,0.7403,0.7931,0.7825,0.895,0.9721,1.0133,1.0705,1.1297,1.189,1.2634,1.2985,1.2998,1.3133,1.3861,1.4894,1.4894,1.5615,1.6723,1.7867,1.8269,1.8384,0.0,0.0,0.0,0.0,0.0,0.0,0.0,0.0,0.0,0.0,0.0,0.0,0.0,0.0,0.0,0.0,0.0,0.0,0.0,0.0,-1.9553,-1.9631,-1.9631,-1.9658,-1.9685,-1.9685,-1.966,-1.9585,-1.9585,-1.9585,-1.9585,-1.9585,-1.9584,-1.9557,-1.9559,-1.9173,-1.8487,-1.8522,-1.8104,-1.7409,-1.693,-1.6752,-1.6707,0.0,-1.5372,-1.4461,-1.4398,-1.3732,0.0,0.0,-1.2822,-1.2915,-1.2949,-1.3167,-1.3517,-1.3895,-1.4283,-1.4487,-1.4153,-1.3524,-1.2826,-1.1981,-1.1281,-1.0744,-1.0618,-1.0586,-1.0586,-1.0586,0.0,-1.0586,-1.0586,-0.916,-0.7957,-0.7827,0.0,-0.3511,-0.2627,-0.1711,-0.0844,-0.0075,0.0,0.0,0.0,0.0,0.0,0.0,0.1097,0.2192,0.3047,0.4258,0.5356,0.6261,0.63,0.63,0.63,0.643,0.6902,0.7628,0.7915,0.9058,1.0852,1.1124,1.1881,1.3015,1.3174,1.3267,1.3267,1.3307,1.4017,1.5131,1.5131,1.5863,1.7009,1.8141,1.8559,1.8598,0.0,0.0,0.0,0.0,0.0,0.0,0.0,0.0,0.0,0.0,-1.5497,0.0,0.0,0.0,0.0,0.0,0.0,0.0,0.0,0.0,0.0,-1.8847,-1.8874,-1.8993,-1.9158,-1.9133,-1.8907,-1.848,-1.848,-1.848,-1.848,-1.848,-1.8413,-1.8228,-1.8388,-1.8041,-1.7296,-1.747,-1.718,-1.6548,-1.5799,-1.5519,-1.5403,-1.4394,0.0,0.0,-1.3303,0.0,0.0,-1.2197,-1.2393,-1.2974,-1.3281,-1.323,-1.3086,-1.356,-1.3508,-1.3288,-1.3235,-1.31,-1.2826,-1.1981,-1.1717,-1.1406,-1.0744,-1.0586,0.0,0.0,-1.0586,-1.0586,-1.0586,-0.916,-0.7752,-0.6978,0.0,0.0,0.0,0.0,-0.0182,0.0,0.0,0.0,0.0,0.0,0.0,0.0,0.1761,0.2927,0.3083,0.4963,0.6099,0.63,0.63,0.63,0.63,0.7234,0.7375,0.6748,0.8631,0.9325,0.8959,1.0781,1.1746,1.2006,1.309,1.3533,1.3547,1.3828,1.4087,1.4295,1.4295,1.4448,1.4783,1.5861,1.6273,1.6396,0.0,0.0,0.0,0.0,0.0,0.0,0.0,0.0,0.0,0.0,-1.4154,-1.4481,0.0,0.0,0.0,0.0,0.0,0.0,0.0,0.0,0.0,0.0,-1.7924,-1.7877,-1.7952,-1.7766,-1.7529,-1.7265,0.0,-1.7265,-1.7265,-1.7265,-1.7212,-1.7122,-1.7213,-1.6815,-1.6077,-1.6168,-1.58,-1.5153,-1.4543,-1.4312,-1.422,0.0,0.0,0.0,0.0,0.0,0.0,0.0,-1.2344,-1.2308,-1.2143,-1.2246,-1.2408,-1.2653,-1.2856,-1.2917,-1.2473,-1.2381,-1.2182,-1.1375,-1.117,-1.1076,-1.0681,0.0,0.0,0.0,-1.0586,-1.0586,-1.0586,-0.916,0.0,0.0,0.0,0.0,0.0,0.0,0.0,0.0,0.0,0.0,0.0,0.0,0.0,0.0,0.2018,0.3206,0.3125,0.5118,0.6334,0.6409,0.6409,0.645,0.6491,0.7038,0.7075,0.6634,0.8318,0.9223,0.9491,1.1157,1.2273,1.2997,1.3594,1.3868,1.3881,1.4028,1.4082,1.4082,1.4082,1.4082,1.4208,1.5296,1.5696,1.5779,0.0,0.0,0.0,0.0,0.0,0.0,0.0,-1.338,-1.3312,-1.3096,-1.3028,-1.3494,-1.4746,-1.4894,-1.4952,0.0,0.0,0.0,0.0,0.0,0.0,0.0,0.0,0.0,0.0,0.0,0.0,-1.6033,-1.6033,0.0,0.0,0.0,0.0,0.0,-1.6029,-1.5606,-1.4831,-1.4881,-1.4404,0.0,0.0,-1.3182,0.0,0.0,0.0,0.0,0.0,0.0,0.0,0.0,-1.1832,-1.1266,-1.0585,-1.0963,-1.1668,-1.176,-1.21,-1.2366,-1.1717,-1.1531,-1.1375,-1.0776,-1.0586,-1.0586,-1.0586,-1.0586,0.0,0.0,-1.0333,-1.0269,-1.0066,-0.8775,-0.7665,0.0,-0.4948,0.0,0.0,0.0,0.0,0.0,0.0,0.0,0.0,0.0,0.0,0.0355,0.2497,0.3798,0.3849,0.5471,0.645,0.6559,0.6559,0.658,0.6702,0.6736,0.6749,0.6749,0.7931,0.9058,1.0142,1.1277,1.2493,1.3688,1.3688,1.387,1.4082,1.4082,1.4082,1.4082,1.4082,1.4082,1.4208,1.5061,1.5379,1.5379,0.0,0.0,0.0,0.0,0.0,0.0,0.0,-1.3276,-1.3394,-1.3377,-1.3145,-1.307,-1.3191,-1.3221,-1.3524,0.0,0.0,0.0,0.0,0.0,0.0,0.0,0.0,0.0,0.0,0.0,0.0,-1.4855,-1.4855,0.0,0.0,0.0,0.0,0.0,0.0,-1.4411,-1.3663,-1.3841,0.0,0.0,0.0,0.0,0.0,0.0,0.0,0.0,0.0,0.0,0.0,0.0,0.0,-0.9858,-0.9185,-0.9822,-1.0881,-1.1254,0.0,0.0,-1.0713,-1.0713,-1.0681,-1.0618,-1.0586,-1.0586,-1.0586,0.0,0.0,-0.9588,-0.9428,-0.9172,-0.8388,-0.747,-0.6547,-0.5687,-0.4704,-0.3444,0.0,0.0,0.0,0.0,0.0,0.0,0.0,0.0,0.0,0.1533,0.3706,0.5375,0.6325,0.6579,0.6668,0.6681,0.6681,0.6688,0.6702,0.6837,0.6862,0.6912,0.8198,0.8931,0.9078,1.024,1.1359,1.2462,1.2462,1.3069,1.4082,1.4082,1.4082,1.4082,1.4082,1.4082,1.4124,1.4208,1.425,1.425,0.0,0.0,0.0,0.0,0.0,0.0,0.0,-1.2258,-1.2134,-1.1978,-1.1704,-1.1577,-1.1577,-1.1577,-1.2058,0.0,0.0,0.0,0.0,0.0,0.0,0.0,0.0,0.0,0.0,0.0,-1.3169,-1.2942,-1.2556,0.0,0.0,0.0,0.0,0.0,0.0,-1.216,-1.1872,-1.1943,0.0,0.0,0.0,0.0,0.0,0.0,0.0,0.0,0.0,0.0,0.0,0.0,0.0,0.0,-0.9484,-0.9586,0.0,0.0,-1.0317,-1.0327,-1.0546,-1.0586,-1.0586,-1.0586,-1.0586,-1.046,-0.9951,0.0,-0.9556,-0.871,-0.8517,-0.842,-0.8064,-0.7274,-0.6589,-0.6295,-0.5111,-0.3986,-0.331,0.0,0.0,0.0,0.0,0.0,0.0,0.0,0.0814,0.2734,0.3698,0.4979,0.683,0.6797,0.6742,0.6837,0.6837,0.6878,0.6923,0.6984,0.7011,0.7054,0.8293,0.8894,0.8938,1.0096,1.1209,1.2279,1.2279,1.2984,1.4082,1.4082,1.4082,1.4082,1.4082,1.4082,1.4082,1.4082,1.4082,1.4082,0.0,0.0,0.0,0.0,0.0,0.0,-1.206,-1.1744,-1.145,-1.1156,-1.0862,-1.068,-1.06,-1.0586,-1.1059,-1.2182,0.0,0.0,0.0,0.0,0.0,0.0,0.0,0.0,0.0,0.0,-1.1491,-1.1491,-1.104,-1.0788,0.0,0.0,-1.0788,-1.0788,0.0,0.0,0.0,0.0,0.0,0.0,0.0,0.0,0.0,0.0,0.0,0.0,0.0,0.0,0.0,0.0,0.0,0.0,0.0,0.0,-0.8875,0.0,-0.9709,-0.9801,-1.0128,-1.0034,-0.9843,-0.9843,-0.9843,-0.9684,0.0,0.0,-0.8678,-0.7795,-0.76,-0.7535,-0.7284,-0.6771,-0.6421,-0.6515,-0.5504,-0.4662,-0.4529,0.0,0.0,0.0,0.0,0.0,0.0,0.0122,0.1385,0.3459,0.3921,0.501,0.7003,0.6903,0.6878,0.6943,0.695,0.6997,0.7092,0.7098,0.7098,0.7098,0.7973,0.8368,0.8412,0.9575,1.0735,1.1809,1.2151,1.2984,1.4095,1.4175,1.4215,1.4229,1.4309,1.4392,1.4392,1.4392,1.4392,1.4392,0.0,0.0,0.0,0.0,0.0,0.0,0.0,-1.2087,-1.1757,-1.1429,-1.1169,-1.0875,-1.0626,-1.0586,-1.0631,-1.0618,0.0,0.0,0.0,0.0,0.0,0.0,0.0,0.0,0.0,0.0,0.0,-1.0813,-1.0788,-1.0788,-1.0788,-1.0788,-1.0788,-1.0788,0.0,0.0,0.0,0.0,0.0,0.0,0.0,0.0,0.0,0.0,0.0,0.0,0.0,0.0,0.0,0.0,0.0,0.0,0.0,-0.7128,-0.7985,-0.9313,-0.9266,-0.8885,-0.9229,-0.8678,-0.8021,-0.8021,-0.8021,-0.8021,0.0,-0.8032,-0.7762,-0.6883,-0.6719,-0.6465,-0.5591,-0.5521,-0.5624,-0.5624,-0.5833,-0.5644,-0.463,0.0,0.0,0.0,0.0,0.0,0.0,0.0464,0.2295,0.3509,0.4722,0.0,0.7054,0.7092,0.7092,0.7092,0.7092,0.7092,0.7098,0.7098,0.7098,0.7098,0.7098,0.7143,0.7143,0.8368,0.9531,1.0692,1.1809,1.2984,1.4108,1.4402,1.4522,1.4549,1.4843,1.4995,1.4995,1.4995,1.4995,1.4995,0.0,0.0,0.0,0.0,0.0,0.0,0.0,-1.2051,-1.1792,-1.1429,-1.1169,-1.0908,-1.0626,-1.0586,-1.0586,-1.0586,0.0,0.0,0.0,0.0,0.0,0.0,0.0,0.0,0.0,0.0,0.0,-1.0115,-0.9666,-0.9432,-0.9432,-0.9432,-0.9432,-0.9432,-0.9432,-0.9432,0.0,0.0,0.0,0.0,0.0,0.0,0.0,0.0,0.0,0.0,0.0,0.0,0.0,0.0,0.0,0.0,0.0,0.0,0.0,-0.7881,-0.7936,-0.7877,-0.8313,-0.8226,-0.7989,-0.7989,-0.7989,-0.7827,-0.7242,-0.7111,-0.685,-0.598,-0.5815,-0.5752,-0.5562,-0.5555,-0.5657,-0.5854,-0.5932,-0.5952,0.0,0.0,0.0,0.0,0.0,0.0,0.0,0.0,0.2309,0.349,0.3957,0.5043,0.7003,0.6384,0.6296,0.7098,0.7098,0.7098,0.7098,0.7098,0.7098,0.7098,0.7098,0.7533,0.8368,0.8719,0.9966,1.1778,1.238,1.3312,1.4402,1.4696,1.483,1.483,1.4968,1.5008,1.5008,1.5008,1.5008,1.5008,0.0,0.0,0.0,0.0,0.0,0.0,0.0,-1.1926,-1.1891,-1.1442,-1.1263,-1.1009,-1.064,-1.0301,-1.0238,-1.0555,0.0,0.0,0.0,0.0,0.0,0.0,0.0,0.0,0.0,0.0,-0.9406,-0.9406,-0.9015,-0.8804,-0.8804,-0.8804,-0.8646,-0.8368,-0.8368,-0.8235,0.0,0.0,0.0,0.0,0.0,0.0,-0.6588,0.0,0.0,0.0,0.0,0.0,0.0,0.0,0.0,0.0,0.0,0.0,0.0,0.0,-0.6418,-0.6634,0.0,-0.7274,-0.7022,-0.7022,-0.7022,0.0,0.0,-0.6203,-0.6046,-0.5524,-0.5392,-0.544,-0.5562,-0.5637,-0.5745,-0.5952,-0.5733,-0.5568,0.0,0.0,0.0,0.0,0.0,0.0,0.0,0.1079,0.2292,0.3523,0.4016,0.5087,0.7003,0.6428,0.6384,0.7098,0.7098,0.7098,0.7098,0.7098,0.7098,0.7098,0.7098,0.7489,0.8237,0.8741,0.9772,1.1173,1.2347,1.3274,0.0,1.481,1.5169,1.5182,1.5244,1.5297,1.5297,1.5297,1.5297,1.5297,0.0,0.0,0.0,0.0,0.0,0.0,0.0,0.0,0.0,0.0,-1.123,-1.1007,-1.0488,-0.9696,-0.9524,0.0,0.0,0.0,0.0,0.0,0.0,0.0,0.0,0.0,0.0,-0.891,-0.8725,-0.8646,-0.8646,-0.8646,-0.8646,-0.8646,-0.8289,-0.761,-0.761,0.0,0.0,0.0,0.0,0.0,0.0,0.0,0.0,0.0,0.0,0.0,0.0,0.0,0.0,0.0,0.0,0.0,0.0,0.0,0.0,0.0,0.0,0.0,0.0,-0.6013,0.0,0.0,0.0,0.0,-0.5392,-0.5392,0.0,-0.5392,-0.5405,-0.5426,-0.5472,-0.5612,-0.5722,-0.5793,-0.5122,-0.4569,0.0,0.0,0.0,0.0,0.0,0.0,-0.0084,0.1094,0.2281,0.3527,0.4732,0.5891,0.7054,0.7098,0.7098,0.7098,0.7098,0.7098,0.7098,0.7098,0.7098,0.7098,0.7098,0.7143,0.7289,0.8633,0.9291,0.9543,1.2066,1.3178,1.3292,1.4779,1.5431,1.5458,1.5678,1.5784,1.5784,1.5784,1.5784,1.5784,0.0,0.0,0.0,0.0,0.0,0.0,0.0,0.0,0.0,0.0,-0.9327,-0.9146,-0.8786,-0.8494,-0.8388,0.0,0.0,0.0,0.0,0.0,0.0,0.0,0.0,0.0,0.0,-0.8462,-0.7944,-0.7128,-0.7128,-0.7128,-0.7128,-0.7128,-0.702,-0.6858,-0.6858,0.0,0.0,0.0,0.0,0.0,0.0,0.0,0.0,0.0,0.0,0.0,-0.4924,-0.4869,0.0,0.0,0.0,0.0,0.0,0.0,0.0,0.0,-0.5101,-0.5384,-0.5642,0.0,-0.5392,-0.5392,-0.5392,-0.5392,0.0,-0.5392,-0.5392,-0.5392,0.0,-0.5334,-0.4654,-0.4697,-0.4587,-0.3896,-0.3616,-0.3476,0.0,0.0,0.0,0.0,-0.0372,-0.0296,-0.0043,0.1103,0.2281,0.3527,0.4732,0.5891,0.7054,0.7098,0.7098,0.7098,0.7098,0.7098,0.7098,0.7098,0.7098,0.7098,0.7098,0.7634,0.8694,0.9983,1.112,1.2213,1.4043,1.4825,1.4884,1.5464,1.5725,1.5691,1.5758,1.5784,1.5784,1.5784,1.5784,1.5784,0.0,0.0,0.0,0.0,0.0,0.0,0.0,0.0,0.0,0.0,0.0,0.0,0.0,0.0,0.0,0.0,0.0,0.0,0.0,0.0,0.0,0.0,0.0,0.0,0.0,-0.7775,-0.7351,-0.6832,-0.6761,-0.6729,-0.6729,-0.6729,-0.6514,-0.6091,-0.5773,0.0,0.0,0.0,0.0,0.0,-0.4656,0.0,0.0,0.0,0.0,0.0,-0.3566,-0.3456,0.0,-0.3456,-0.3456,-0.3511,0.0,0.0,0.0,0.0,-0.4518,-0.4688,-0.4284,-0.4755,-0.5292,-0.4855,-0.4755,-0.4655,-0.4251,0.0,0.0,0.0,0.0,-0.4132,-0.367,-0.3697,-0.3608,-0.3189,-0.2696,0.0,0.0,0.0,0.0,0.0,0.0,0.0215,0.0,0.1899,0.3126,0.4328,0.5531,0.6428,0.7048,0.7098,0.7098,0.7098,0.7098,0.7098,0.7098,0.7098,0.7132,0.7244,0.7244,0.7945,0.9329,1.0104,1.1175,1.2513,1.4036,1.4722,1.4782,1.5515,1.5784,1.5784,1.5784,1.5784,1.5784,1.5784,1.5784,1.5784,0.0,0.0,0.0,0.0,0.0,0.0,0.0,0.0,0.0,0.0,0.0,0.0,0.0,0.0,0.0,0.0,0.0,0.0,0.0,0.0,0.0,0.0,0.0,0.0,-0.7353,-0.6993,-0.6788,-0.6763,-0.6643,-0.6587,-0.6587,-0.6578,-0.6117,-0.5328,-0.4759,0.0,0.0,0.0,0.0,0.0,-0.4208,0.0,0.0,0.0,0.0,0.0,0.0,0.0,0.0,-0.2202,-0.2202,-0.2317,-0.2942,0.0,0.0,0.0,0.0,0.0,-0.2909,-0.3813,-0.4788,-0.4013,-0.3813,-0.3613,-0.288,0.0,0.0,0.0,0.0,0.0,0.0,-0.2687,0.0,0.0,0.0,0.0,0.0,0.0,0.0,0.0,0.0255,0.0,0.1959,0.3181,0.4283,0.5314,0.6473,0.7098,0.7098,0.7098,0.7098,0.7098,0.7098,0.7105,0.7132,0.7132,0.7244,0.7419,0.7439,0.8075,0.9244,0.9638,1.0487,1.1809,1.3253,1.4016,1.4268,1.5343,1.5784,1.5784,1.5784,1.5784,1.5784,1.5784,1.5784,1.5784,0.0,0.0,0.0,0.0,0.0,0.0,0.0,0.0,0.0,0.0,0.0,0.0,0.0,0.0,0.0,0.0,0.0,0.0,0.0,0.0,0.0,0.0,0.0,-0.7506,-0.658,-0.6511,-0.6055,-0.5245,-0.5223,-0.5209,-0.5209,-0.51,-0.489,-0.4656,-0.4546,0.0,0.0,0.0,0.0,0.0,-0.2817,0.0,0.0,0.0,0.0,0.0,0.0,0.0,0.0,-0.2202,-0.2202,-0.2216,-0.2334,0.0,0.0,0.0,0.0,0.0,-0.2743,-0.2909,-0.308,-0.2943,-0.2909,-0.288,-0.2743,0.0,0.0,0.0,0.0,0.0,0.0,-0.169,-0.1522,0.0,0.0,-0.0198,0.0,0.0,0.0371,0.141,0.0,0.2008,0.3194,0.4412,0.5181,0.5403,0.6473,0.7098,0.7098,0.7098,0.7098,0.7098,0.7098,0.7204,0.7333,0.7333,0.7346,0.7419,0.7502,0.7732,0.811,0.9276,1.0569,1.1948,1.3332,1.4507,1.5534,1.5737,1.5784,1.5784,1.5784,1.5784,1.5784,1.5784,1.5784,1.5784,0.0,0.0,0.0,0.0,0.0,0.0,0.0,0.0,0.0,0.0,0.0,0.0,0.0,0.0,0.0,0.0,0.0,0.0,0.0,0.0,0.0,0.0,-0.6178,-0.6367,-0.5866,-0.5743,-0.5516,-0.5155,-0.5074,-0.5002,-0.4995,-0.438,-0.4029,-0.3876,-0.3456,-0.3262,-0.3234,0.0,0.0,0.0,0.0,0.0,0.0,0.0,0.0,0.0,0.0,0.0,0.0,0.0,-0.1006,-0.1068,-0.1481,0.0,0.0,0.0,0.0,0.0,-0.1376,-0.1242,-0.1242,-0.1242,-0.1593,-0.1817,0.0,0.0,0.0,0.0,0.0,0.0,0.0,0.0,-0.0589,-0.0078,0.0,0.0962,0.0972,0.1534,0.2161,0.0,0.0,0.3269,0.4461,0.5087,0.5669,0.6296,0.6782,0.7098,0.7098,0.7098,0.7098,0.7098,0.7224,0.7299,0.7419,0.7529,0.7611,0.7611,0.7678,0.8172,0.9047,1.0351,1.1704,1.3054,1.4364,1.5248,1.5784,1.5784,1.5784,1.5784,1.5784,1.5784,1.5784,1.5784,1.5784,1.5784,0.0,0.0,0.0,0.0,0.0,0.0,0.0,0.0,0.0,0.0,0.0,0.0,0.0,0.0,0.0,0.0,0.0,0.0,0.0,0.0,-0.506,-0.506,-0.4888,-0.4954,-0.5392,-0.5049,-0.4912,-0.506,-0.4717,-0.4516,-0.4486,-0.3707,-0.3256,-0.31,-0.2482,-0.2191,0.0,0.0,0.0,0.0,0.0,0.0,0.0,0.0,0.0,0.0,0.0,0.0,0.0,0.0,0.0,0.0,0.0,0.0,0.0,-0.0871,-0.0925,-0.0839,-0.0168,0.0,0.0,0.0,0.0,0.0,0.0,0.0,0.0,0.0,0.0,0.0,0.0,0.0196,0.0,0.0392,0.1399,0.2192,0.2162,0.3001,0.3689,0.3968,0.4022,0.4505,0.5669,0.5802,0.6163,0.7054,0.7098,0.7098,0.7098,0.7098,0.7112,0.7146,0.7312,0.7453,0.7475,0.7699,0.7814,0.7814,0.7848,0.8461,0.9558,1.0877,1.2183,1.3488,1.4806,1.5534,1.5784,1.5784,1.5784,1.5784,1.5784,1.5784,1.5784,1.5784,1.5784,1.5784,0.0,0.0,0.0,0.0,0.0,0.0,0.0,0.0,0.0,0.0,0.0,0.0,0.0,0.0,0.0,0.0,0.0,0.0,0.0,0.0,-0.4118,-0.4118,-0.3313,-0.368,-0.5359,-0.4544,-0.4074,-0.4118,-0.3272,-0.2799,-0.2699,-0.2624,-0.2475,-0.2277,0.0,0.0,0.0,0.0,0.0,0.0,0.0,0.0,0.0,0.0,0.0,0.0,0.0,0.0,0.0,0.0,0.0,0.0,0.0,0.0,-0.0097,-0.0067,-0.0101,-0.0067,-0.0034,0.0,0.0,0.0,-0.0035,0.0,0.0,0.0,0.0,0.0,0.0,0.0,0.0,0.0824,0.1489,0.1489,0.2513,0.3302,0.3291,0.0,0.4011,0.5156,0.5265,0.5714,0.6871,0.6959,0.7003,0.7098,0.7098,0.7098,0.7098,0.7098,0.7204,0.7398,0.7412,0.7502,0.7773,0.7801,0.7814,0.7814,0.7907,0.8031,0.8187,0.9509,1.0828,1.2134,1.344,1.4711,1.5784,1.5784,1.5784,1.5784,1.5784,1.5784,1.5784,1.5784,1.5784,1.5784,0.0,0.0,0.0,0.0,0.0,0.0,0.0,0.0,0.0,0.0,0.0,0.0,0.0,0.0,0.0,0.0,0.0,0.0,0.0,0.0,-0.318,-0.318,-0.288,-0.3013,-0.3713,-0.338,-0.318,-0.318,-0.2846,-0.2642,-0.2474,-0.1993,-0.1668,0.0,0.0,0.0,0.0,0.0,0.0,0.0,0.0,0.0,0.0,0.0,0.0,0.0,0.0,0.0,0.0,0.0,0.0,0.0,0.0,0.0,0.0,0.0,0.0,0.0,0.0,0.0,0.0,0.0,0.0,0.0,0.0,0.0,0.0,0.0,0.0,0.0,0.0,0.0,0.2519,0.184,0.3378,0.4657,0.4652,0.5308,0.5928,0.6422,0.6473,0.6605,0.7048,0.7098,0.7098,0.7098,0.7098,0.7139,0.7278,0.7285,0.7353,0.7509,0.7597,0.7699,0.7807,0.7909,0.8343,0.9168,0.9231,0.9262,0.9312,1.1453,1.2668,1.3199,1.4519,1.5343,1.5784,1.5784,1.5784,1.5784,1.5784,1.5784,1.5784,1.5784,1.5784,1.5784,0.0,0.0,0.0,0.0,0.0,0.0,0.0,0.0,0.0,0.0,0.0,0.0,0.0,0.0,0.0,0.0,0.0,0.0,0.0,-0.2743,-0.2242,-0.2242,-0.2011,-0.1843,-0.1843,-0.1843,-0.1977,-0.2242,-0.1977,-0.1794,-0.1696,-0.1144,0.0,0.0,0.0,0.0,0.0,0.0,0.0,0.0,0.0,0.0,0.0,0.0,0.0,0.0,0.0,0.0,0.0,0.0,0.0,0.0,0.0,0.0,0.0,0.0,0.0202,0.0438,0.0476,0.0449,0.0493,0.0895,0.0,0.0,0.0915,0.0736,0.051,0.051,0.0513,0.0635,0.0991,0.0,0.0,0.0,0.4559,0.5883,0.5883,0.6561,0.7098,0.7098,0.7098,0.7098,0.7098,0.7098,0.7098,0.7098,0.7139,0.7258,0.7412,0.746,0.7509,0.7658,0.776,0.8028,0.8508,0.8181,0.8676,1.0002,1.0386,1.0583,1.0681,1.2909,1.392,1.3968,1.5248,1.5784,1.5784,1.5784,1.5784,1.5784,1.5784,1.5784,1.5784,1.5784,1.5784,1.5784,0.0,0.0,0.0,0.0,0.0,0.0,0.0,0.0,0.0,0.0,0.0,0.0,0.0,0.0,0.0,0.0,0.0,0.0,0.0,-0.181,-0.1274,-0.1274,-0.0471,0.0,0.0,0.0,-0.0437,-0.1274,-0.0437,0.0,0.0,0.0,0.0,0.0,0.0,0.0,0.0,0.0,0.0,0.0,0.0,0.0,0.0,0.0,0.0,0.0,0.0,0.0,0.0,0.0,0.0,0.0,0.0,0.0,0.0,0.0,0.0605,0.1316,0.1526,0.1432,0.1593,0.0,0.0,0.0,0.2876,0.2309,0.1607,0.1607,0.1638,0.1989,0.3079,0.3299,0.0,0.4892,0.6099,0.6889,0.6889,0.7011,0.7098,0.7098,0.7098,0.7098,0.7098,0.7098,0.7098,0.7098,0.7285,0.7419,0.7419,0.7516,0.7665,0.7807,0.7814,0.8515,0.9944,0.8676,0.8676,1.0051,1.1317,1.1901,1.195,1.3295,1.392,1.3968,1.5235,1.5784,1.5784,1.5784,1.5784,1.5784,1.5784,1.5784,1.5784,1.5784,1.5784,1.5784,0.0,0.0,0.0,0.0,0.0,0.0,0.0,0.0,0.0,0.0,0.0,0.0,0.0,0.0,0.0,0.0,0.0,0.0,0.0,-0.0883,-0.037,-0.037,-0.0135,0.0,0.0,0.0,-0.0135,-0.037,-0.0135,0.0,0.0,0.0,0.0,0.0,0.0,0.0,0.0,0.0,0.0,0.0,0.0,0.0,0.0,0.0,0.0,0.0,0.0,0.0,0.0,0.0,0.0,0.0,0.0,0.0,0.0,0.0,0.0168,0.0406,0.0453,0.0994,0.0,0.1947,0.0,0.0,0.0,0.2376,0.0,0.0,0.2977,0.3936,0.3568,0.4769,0.0,0.5352,0.6282,0.7031,0.7031,0.7071,0.7098,0.7098,0.7098,0.7098,0.7098,0.7238,0.7299,0.7299,0.7448,0.7577,0.7678,0.7726,0.7814,0.7921,0.7921,0.8139,0.8577,0.8187,0.9114,1.1365,1.1707,1.1901,1.1999,1.422,1.5248,1.5248,1.5629,1.5784,1.5784,1.5784,1.5784,1.5784,1.5784,1.5784,1.5784,1.5784,1.5784,1.5811,0.0,0.0,0.0,0.0,0.0,0.0,0.0,0.0,0.0,0.0,-0.2735,0.0,0.0,0.0,0.0,0.0,0.0,0.0,0.0,0.0,0.0,0.0,0.0,0.0,0.0,0.0,0.0,0.0,0.0,0.0,0.0,0.0,0.0,0.0,0.0,0.0,0.0,0.0,0.0,0.0,0.0,0.0,0.0,0.0,0.0,0.0,0.0,0.0,0.0,0.0,0.0,0.0,0.0,0.0,0.0068,0.0511,0.0888,0.1274,0.1751,0.2296,0.0,0.3347,0.3596,0.3773,0.3903,0.0,0.0,0.0,0.4467,0.5041,0.492,0.5658,0.0,0.6089,0.6637,0.7098,0.7098,0.7098,0.7098,0.7098,0.7152,0.7231,0.7231,0.7373,0.7461,0.7461,0.7597,0.7719,0.7807,0.7868,0.7894,0.7988,0.7988,0.8478,0.9558,0.9065,1.0092,1.2668,1.2668,1.2668,1.2764,1.4854,1.5784,1.5784,1.5784,1.5784,1.5784,1.5784,1.5899,1.6005,1.6005,1.6072,1.6179,1.6179,1.6179,1.6206,0.0,0.0,0.0,0.0,0.0,0.0,0.0,0.0,0.0,0.0,-0.2035,-0.145,0.0,0.0,0.0,0.0,0.0,0.0,0.0,0.0,0.0,0.0,0.0,0.0,0.0,0.0,0.0,0.0,0.0,0.0,0.0,0.0,0.0,0.0,0.0,0.0,0.0,0.0,0.0,0.0,0.0101,0.0135,0.0135,0.0202,0.0,0.0,0.0,0.0,0.0,0.0,0.0,0.0,0.0236,0.027,0.0441,0.1423,0.2272,0.315,0.4239,0.4555,0.0,0.5867,0.553,0.0,0.5066,0.5177,0.5507,0.6383,0.0,0.5637,0.6731,0.6174,0.5891,0.6915,0.7098,0.7098,0.7098,0.7098,0.7098,0.7112,0.7285,0.7419,0.7439,0.7529,0.7617,0.7617,0.7753,0.7834,0.7834,0.7914,0.8038,0.8187,0.8187,0.9361,1.1901,1.073,1.1404,1.392,1.392,1.3968,1.4112,1.5296,1.5784,1.5784,1.5784,1.5798,1.5872,1.5872,1.6046,1.6362,1.6362,1.6473,1.67,1.67,1.67,1.6714,0.0,0.0,0.0,0.0,0.0,0.0,0.0,0.0,0.0,0.0,0.0,0.0,0.0,0.0,0.0,0.0,0.0,0.0,0.0,0.0,0.0,0.0,0.0,0.0,0.0,0.0,0.0,0.0,0.0,0.0,0.0,0.0,0.0,0.0,0.0,0.0,0.0,0.0,0.0,0.0067,0.0739,0.1006,0.1106,0.1843,0.2111,0.0,0.0,0.0,0.0,0.0,0.0,0.0,0.2111,0.2177,0.2322,0.2542,0.2836,0.3118,0.3366,0.403,0.0,0.0,0.5667,0.6312,0.646,0.6595,0.6486,0.5818,0.6201,0.6737,0.7007,0.6895,0.6827,0.7048,0.7098,0.7098,0.7098,0.7098,0.7139,0.7305,0.7353,0.7421,0.7536,0.7678,0.7767,0.7767,0.7853,0.7941,0.7941,0.7975,0.8478,0.9558,0.9558,1.0337,1.1901,1.1609,1.228,1.392,1.392,1.4411,1.5391,1.5676,1.5784,1.5784,1.5784,1.5965,1.6179,1.6179,1.6353,1.6607,1.6607,1.6647,1.67,1.67,1.67,1.674,0.0,0.0,0.0,0.0,0.0,0.0,0.0,0.0,0.0,0.0,0.0,0.0,0.0,0.0,0.0,0.0,0.0,0.0,0.0,0.0,0.0,0.0,0.0,0.0,0.0,0.0,0.0,0.0,0.0,0.0,0.0,0.0,0.0,0.0,0.0,0.0,0.0035,0.056,0.077,0.084,0.1779,0.2109,0.2117,0.2597,0.2744,0.2709,0.2709,0.0,0.0,0.0,0.0,0.0,0.0,0.0,0.3102,0.361,0.3803,0.3976,0.4498,0.0,0.0,0.5526,0.0,0.6742,0.6849,0.6997,0.6939,0.6337,0.6687,0.7098,0.7098,0.7098,0.7098,0.7098,0.7098,0.7125,0.7238,0.7251,0.7305,0.7461,0.7543,0.7611,0.7692,0.7834,0.8161,0.8788,0.892,0.9213,0.9846,0.9846,1.019,1.0877,1.0925,1.1551,1.2861,1.2861,1.3488,1.4806,1.4806,1.514,1.5784,1.5784,1.5784,1.5784,1.5979,1.6126,1.6335,1.642,1.666,1.6914,1.6914,1.7007,1.7128,1.7128,1.7128,1.7154,0.0,0.0,0.0,0.0,0.0,0.0,0.0,0.0,0.0,0.0,0.0,0.0,0.0,0.0,0.0,0.0,0.0,0.0,0.0,0.0,0.0,0.0,0.0183,0.0293,0.0291,0.0437,0.0,0.0,0.0,0.0,0.0,0.0,0.0,0.0291,0.0,0.0364,0.0582,0.1491,0.1853,0.1962,0.294,0.326,0.3198,0.0,0.0,0.3225,0.3225,0.3225,0.3225,0.3225,0.0,0.0,0.0,0.0,0.378,0.4678,0.4946,0.5179,0.6066,0.0,0.6368,0.6518,0.6627,0.0,0.6889,0.7011,0.7098,0.7098,0.7098,0.7098,0.7098,0.7098,0.7098,0.7098,0.7119,0.7224,0.7398,0.7439,0.7468,0.7617,0.774,0.7821,0.7848,0.816,0.8825,0.9903,1.019,1.0779,1.1853,1.1901,1.1999,1.2242,1.2242,1.2861,1.422,1.422,1.4758,1.5784,1.5784,1.5784,1.5784,1.5885,1.5912,1.5912,1.6166,1.6375,1.6496,1.6687,1.6954,1.7273,1.7273,1.742,1.7582,1.7582,1.7582,1.7582,0.0,0.0,0.0,0.0,0.0,0.0,0.0,0.0,0.0,0.0,0.0,0.0,0.0,0.0,0.0,0.0,0.0,0.0,0.0,0.0,0.0,0.0,0.0903,0.1376,0.1382,0.2252,0.2687,0.0,0.0,0.0,0.0,0.0,0.0,0.1381,0.0,0.0,0.2687,0.2835,0.2904,0.2976,0.3916,0.4303,0.4359,0.0,0.0,0.0,0.0,0.5383,0.5383,0.5383,0.5396,0.0,0.0,0.0,0.5631,0.5793,0.5936,0.6118,0.0,0.0,0.6518,0.0,0.6783,0.6896,0.0,0.0,0.7098,0.0,0.7098,0.7098,0.7098,0.7098,0.7098,0.7098,0.7251,0.7346,0.7412,0.7489,0.7624,0.7767,0.7801,0.7862,0.7948,0.9057,0.9805,1.0002,1.1023,1.1707,1.1901,1.1901,1.2425,1.3584,1.3632,1.4268,1.5534,1.5534,1.5629,1.5784,1.5784,1.5784,1.5784,1.6099,1.6219,1.6219,1.6308,1.6616,1.7085,1.7125,1.7313,1.7528,1.7528,1.7555,1.7582,1.7582,1.7582,1.7582,0.0,0.0,0.0,0.0,0.0,0.0,0.0,0.0,0.0,0.0,0.0,0.0,0.0,0.0,0.0,0.0,0.0,0.0,0.0,0.0,0.0,0.0,0.0,0.245,0.2422,0.2876,0.0,0.0,0.0,0.0,0.0,0.217,0.2007,0.0,0.0,0.0,0.0,0.0,0.4011,0.4086,0.5107,0.0,0.0,0.0,0.0,0.0,0.0,0.0,0.0,0.58,0.5861,0.5928,0.5928,0.0,0.0,0.0,0.6245,0.632,0.6395,0.6463,0.6532,0.0,0.6836,0.6923,0.7065,0.7098,0.7098,0.7098,0.7098,0.7098,0.7098,0.721,0.7272,0.7272,0.74,0.7529,0.7604,0.7678,0.7773,0.7874,0.7887,0.821,0.9065,0.9657,1.0632,1.2086,1.2716,1.3343,1.4028,1.4076,1.4364,1.4949,1.4949,1.5248,1.5784,1.5784,1.5784,1.5784,1.5784,1.5912,1.6086,1.6219,1.6321,1.6335,1.667,1.6965,1.7206,1.738,1.7462,1.7582,1.7582,1.7582,1.7582,1.7582,1.7582,1.7582,0.0,0.0,0.0,0.0,0.0,0.0,0.0,0.0,0.0,0.0,0.0,0.0,0.0,0.0,0.0,0.0,0.0,0.0,0.0,0.0,0.0,0.0,0.0,0.0,0.3515,0.0,0.0,0.0,0.0,0.0,0.3904,0.3904,0.3917,0.0,0.364,0.0,0.0,0.0,0.0,0.0,0.0,0.0,0.0,0.0,0.0,0.0,0.0,0.0,0.0,0.0,0.0,0.0,0.6091,0.6166,0.0,0.0,0.0,0.0,0.0,0.0,0.6641,0.6829,0.691,0.6964,0.0,0.0,0.7098,0.0,0.7098,0.7098,0.7098,0.7265,0.7419,0.7419,0.7529,0.7692,0.7794,0.7841,0.8007,0.8464,0.8528,0.9015,1.0337,1.0779,1.1794,1.3728,1.422,1.4806,1.5737,1.5784,1.5784,1.5784,1.5784,1.5784,1.5784,1.5784,1.5784,1.5784,1.5784,1.5979,1.6273,1.6353,1.642,1.6576,1.7005,1.7246,1.7326,1.7541,1.7582,1.7582,1.7582,1.7582,1.7582,1.7582,1.7582,1.7582,0.0,0.0,0.0,0.0,0.0,0.0,0.0,0.0,0.0,0.0,0.0,0.0,0.0,0.0,0.0,0.3238,0.0,0.0,0.0,0.0,0.0,0.0,0.0,0.0,0.0,0.0,0.0,0.0,0.0,0.0,0.6145,0.6145,0.6211,0.6291,0.5129,0.5196,0.6145,0.0,0.0,0.0,0.0,0.0,0.0,0.0,0.0,0.0,0.0,0.0,0.0,0.0,0.0,0.0,0.0,0.0,0.0,0.0,0.0,0.0,0.0,0.6681,0.0,0.6883,0.6984,0.0,0.0,0.0,0.7098,0.7098,0.7098,0.7098,0.7098,0.7265,0.7419,0.7419,0.7611,0.7801,0.7807,0.7887,0.8471,0.9756,0.9903,1.0386,1.1707,1.2958,1.3728,1.3872,1.4997,1.5737,1.5784,1.5784,1.5784,1.5784,1.5784,1.5784,1.5784,1.5784,1.5784,1.5784,1.5784,1.5979,1.6335,1.6553,1.6834,1.7152,1.7192,1.7353,1.7555,1.7569,1.7582,1.7582,1.7582,1.7582,1.7582,1.7582,1.7582,1.7582,0.0,0.0,0.0,0.0,0.0,0.0,0.0,0.0,0.0,0.0,0.0,0.0,0.0,0.3934,0.4546,0.4467,0.5084,0.0,0.0,0.0,0.0,0.0,0.0,0.0,0.0,0.0,0.0,0.0,0.0,0.6539,0.6539,0.6539,0.6573,0.6614,0.6098,0.6125,0.6539,0.6539,0.0,0.0,0.0,0.0,0.0,0.0,0.0,0.0,0.0,0.0,0.0,0.0,0.0,0.0,0.0,0.0,0.0,0.0,0.0,0.0,0.0,0.0,0.0,0.6997,0.7058,0.7098,0.7098,0.7098,0.7098,0.7098,0.7098,0.7125,0.7272,0.7414,0.7516,0.7516,0.8479,0.9217,0.9217,0.9951,1.0681,1.117,1.1219,1.1745,1.3054,1.3632,1.422,1.5045,1.5534,1.5784,1.5784,1.5784,1.5784,1.5784,1.5784,1.5784,1.5784,1.5784,1.5784,1.5784,1.6019,1.6273,1.6567,1.686,1.7206,1.7474,1.7474,1.7488,1.7582,1.7582,1.7582,1.7582,1.7582,1.7582,1.7582,1.7582,1.7582,1.7582,0.0,0.0,0.0,0.0,0.0,0.0,0.0,0.0,0.0,0.0,0.0,0.0,0.0,0.0,0.5755,0.5714,0.6306,0.6702,0.6702,0.6607,0.0,0.0,0.0,0.0,0.0,0.0,0.0,0.0,0.0,0.0,0.0,0.6702,0.6729,0.677,0.6668,0.6654,0.0,0.0,0.0,0.6702,0.0,0.0,0.6688,0.0,0.0,0.0,0.0,0.0,0.0,0.0,0.0,0.0,0.0,0.0,0.0,0.0,0.0,0.0,0.6856,0.0,0.0,0.0,0.7098,0.7098,0.7098,0.7098,0.7112,0.721,0.7522,0.7886,0.8093,0.8583,0.884,0.8422,0.9654,1.0632,1.0632,1.1365,1.2096,1.2522,1.2571,1.3102,1.4411,1.4555,1.4902,1.5737,1.5784,1.5784,1.5784,1.5784,1.5784,1.5784,1.5784,1.5784,1.5784,1.5784,1.5784,1.5784,1.6126,1.642,1.6714,1.7058,1.7367,1.7582,1.7582,1.7582,1.7582,1.7582,1.7582,1.7582,1.7582,1.7582,1.7582,1.7582,1.7649,1.7742,0.0,0.0,0.0,0.0,0.0,0.0,0.0,0.0,0.0,0.0,0.0,0.0,0.0,0.0,0.0,0.6903,0.6797,0.6715,0.6715,0.6709,0.0,0.0,0.0,0.0,0.0,0.0,0.0,0.0,0.0,0.0,0.0,0.0,0.6797,0.6896,0.6896,0.6851,0.6715,0.0,0.6715,0.6715,0.0,0.6715,0.6715,0.0,0.0,0.0,0.6702,0.6702,0.0,0.0,0.0,0.0,0.0,0.0,0.0,0.0,0.0,0.0,0.0,0.0,0.0,0.0,0.0,0.7098,0.7098,0.7098,0.719,0.743,0.845,0.936,0.954,1.0754,1.137,1.0105,1.1076,1.195,1.195,1.1999,1.2474,1.3776,1.3968,1.4459,1.5676,1.5784,1.5784,1.5784,1.5784,1.5784,1.5784,1.5784,1.5784,1.5784,1.5784,1.5784,1.5784,1.5784,1.5784,1.5798,1.6139,1.6433,1.6727,1.7072,1.7367,1.7582,1.7582,1.7582,1.7582,1.7582,1.7582,1.7582,1.7582,1.7582,1.7595,1.7595,1.7796,1.8009,0.0,0.0,0.0,0.0,0.0,0.0,0.0,0.0,0.0,0.0,0.0,0.0,0.0,0.0,0.0,0.7045,0.6997,0.6977,0.6977,0.6876,0.6865,0.6865,0.6763,0.6702,0.6702,0.0,0.0,0.0,0.0,0.6937,0.6977,0.6977,0.0,0.0,0.7038,0.7011,0.6977,0.6977,0.0,0.0,0.6977,0.6977,0.0,0.0,0.0,0.0,0.0,0.6702,0.6702,0.0,0.6702,0.6702,0.0,0.0,0.0,0.0,0.0,0.0,0.7038,0.0,0.0,0.0,0.0,0.0,0.7098,0.7224,0.759,0.857,0.9129,0.978,1.0913,1.2224,1.3038,1.2826,1.3106,1.3343,1.3343,1.4124,1.4854,1.5248,1.5296,1.5391,1.5784,1.5784,1.5784,1.5784,1.5784,1.5784,1.5784,1.5784,1.5784,1.5784,1.5784,1.5784,1.5784,1.5784,1.5939,1.6152,1.6446,1.674,1.7085,1.738,1.7502,1.7582,1.7582,1.7582,1.7582,1.7582,1.7582,1.7582,1.7582,1.7716,1.7862,1.7862,1.8103,1.837,0.0,0.0,0.0,0.0,0.0,0.0,0.0,0.0,0.0,0.0,0.0,0.0,0.0,0.0,0.0,0.7098,0.7098,0.7098,0.7098,0.7018,0.697,0.697,0.6889,0.6885,0.6885,0.6869,0.6916,0.697,0.6997,0.7038,0.7098,0.7098,0.7098,0.0,0.0,0.0,0.0,0.0,0.0,0.0,0.7098,0.0,0.0,0.7004,0.697,0.0,0.0,0.0,0.6885,0.6885,0.6885,0.0,0.0,0.0,0.0,0.0,0.0,0.0,0.0,0.0,0.0,0.0,0.0,0.0,0.7901,0.8155,0.8658,1.0021,1.0815,1.1522,1.2468,1.3708,1.4584,1.4686,1.4698,1.4698,1.4698,1.5343,1.5784,1.5784,1.5784,1.5784,1.5784,1.5784,1.5784,1.5784,1.5784,1.5784,1.5784,1.5784,1.5784,1.5784,1.5784,1.5784,1.5784,1.5784,1.5979,1.6273,1.6567,1.686,1.7206,1.7501,1.7582,1.7582,1.7582,1.7582,1.7582,1.7582,1.7582,1.7595,1.7729,1.7889,1.8009,1.8129,1.8424,1.8677,0.0,0.0,0.0,0.0,0.0,0.0,0.0,0.0,0.0,0.0,0.0,0.0,0.0,0.0,0.0,0.0,0.7146,0.7146,0.7146,0.7132,0.0,0.7119,0.7105,0.7098,0.7098,0.697,0.697,0.7098,0.697,0.697,0.7098,0.7112,0.7119,0.7125,0.0,0.0,0.0,0.0,0.0,0.7146,0.7146,0.7146,0.0,0.0,0.7146,0.7146,0.7146,0.7146,0.7146,0.7125,0.7119,0.0,0.0,0.0,0.0,0.0,0.7098,0.0,0.0,0.0,0.0,0.0,0.0,0.0,0.8836,0.9196,0.9737,1.1189,1.244,1.3378,1.3646,1.4603,1.5439,1.5581,1.5581,1.5629,1.5784,1.5784,1.5784,1.5784,1.5784,1.5784,1.5784,1.5784,1.5784,1.5784,1.5784,1.5784,1.5784,1.5784,1.5784,1.5784,1.5784,1.5784,1.5784,1.5858,1.6032,1.6375,1.662,1.6914,1.7259,1.7514,1.7582,1.7582,1.7582,1.7582,1.7582,1.7622,1.7635,1.7662,1.7889,1.8035,1.8115,1.8437,1.8718,1.8971,0.0,0.0,0.0,0.0,0.0,0.0,0.0,0.0,0.0,0.0,0.0,0.0,0.0,0.0,0.0,0.0,0.0,0.7509,0.0,0.0,0.7326,0.7326,0.7204,0.7098,0.7098,0.7071,0.7065,0.7098,0.7065,0.7071,0.7098,0.7272,0.7326,0.7333,0.0,0.0,0.0,0.0,0.0,0.7509,0.7509,0.0,0.7509,0.7509,0.7509,0.7509,0.7509,0.7509,0.7489,0.7366,0.7326,0.7305,0.0,0.0,0.0,0.0,0.0,0.0,0.0,0.0,0.0,0.0,0.0,0.0,0.7876,0.8037,0.8534,0.9897,1.0461,1.1025,1.2086,1.2474,1.3006,1.4124,1.4268,1.4603,1.5689,1.5784,1.5784,1.5784,1.5784,1.5784,1.5784,1.5784,1.5784,1.5784,1.5784,1.5784,1.5784,1.5784,1.5784,1.5784,1.5784,1.5784,1.5784,1.6072,1.6326,1.662,1.6978,1.7273,1.7502,1.7555,1.7582,1.7582,1.7582,1.7582,1.7595,1.7849,1.7902,1.7902,1.7969,1.8275,1.8701,1.8824,1.9025,1.9279,0.0,0.0,0.0,0.0,0.0,0.0,0.0,0.0,0.0,0.0,0.0,0.0,0.0,0.0,0.0,0.0,0.0,0.0,0.0,0.0,0.7489,0.7489,0.7414,0.7366,0.7366,0.7366,0.7366,0.7366,0.7366,0.7366,0.7373,0.7448,0.7489,0.7489,0.0,0.0,0.0,0.0,0.7706,0.7699,0.7631,0.0,0.7597,0.7597,0.7597,0.7597,0.7597,0.7597,0.759,0.7509,0.7489,0.0,0.0,0.7366,0.7366,0.0,0.7366,0.7366,0.0,0.0,0.0,0.7489,0.0,0.0,0.0,0.882,0.9275,1.0575,1.09,1.1121,1.1804,1.1901,1.2328,1.368,1.392,1.4364,1.5629,1.5784,1.5784,1.5784,1.5784,1.5784,1.5784,1.5784,1.5784,1.5784,1.5784,1.5784,1.5784,1.5784,1.5784,1.5784,1.5784,1.5784,1.5784,1.6126,1.642,1.6714,1.7058,1.7353,1.7582,1.7582,1.7582,1.7582,1.7582,1.7675,1.7822,1.7929,1.8169,1.8435,1.8435,1.8608,1.8945,1.9092,1.9239,1.9533,0.0,0.0,0.0,0.0,0.0,0.0,0.0,0.0,0.0,0.0,0.0,0.0,0.0,0.0,0.0,0.0,0.0,0.0,0.0,0.0,0.0,0.0,0.7611,0.7597,0.7597,0.7597,0.7597,0.7597,0.7597,0.7597,0.7597,0.7631,0.7638,0.7645,0.0,0.0,0.0,0.0,0.0,0.7841,0.0,0.7685,0.7685,0.7685,0.7685,0.7685,0.7685,0.7685,0.7678,0.7651,0.7638,0.7638,0.7611,0.7597,0.0,0.0,0.0,0.0,0.0,0.0,0.0,0.0,0.0,0.8858,0.0,0.0,0.0,1.1707,1.1901,1.1901,1.1901,1.1901,1.2318,1.3622,1.3849,1.4339,1.5563,1.5792,1.5784,1.5784,1.5784,1.5784,1.5784,1.5784,1.5784,1.5784,1.5784,1.5784,1.5784,1.5784,1.5784,1.5784,1.5784,1.5811,1.5912,1.6206,1.65,1.6794,1.7139,1.7407,1.7582,1.7582,1.7582,1.7582,1.7582,1.7756,1.7995,1.8049,1.8395,1.8918,1.8918,1.8958,1.9038,1.9279,1.943,1.9591,0.5977,0.6132,0.0,0.0,0.0,0.0,0.0,0.0,0.0,0.0,0.0,0.0,0.0,0.0,0.0,0.0,0.0,0.0,0.7941,0.0,0.0,0.0,0.0,0.0,0.7597,0.7597,0.7597,0.7597,0.7597,0.7597,0.7604,0.7726,0.7787,0.7794,0.788,0.0,0.0,0.0,0.7961,0.0,0.7948,0.7941,0.0,0.7941,0.7941,0.7941,0.7941,0.7941,0.7921,0.0,0.7787,0.7767,0.0,0.7597,0.7597,0.0,0.0,0.0,0.0,0.0,0.0,0.0,1.1355,0.0,0.0,0.0,1.1755,1.1853,0.0,1.1901,0.0,0.0,0.0,1.3285,1.372,1.4279,1.5285,1.5671,1.5784,1.5784,1.5784,1.5784,1.5784,1.5784,1.5784,1.5784,1.5784,1.5784,1.5784,1.5784,1.5784,1.5784,1.5784,1.5952,1.6219,1.6513,1.6807,1.7152,1.7395,1.7555,1.7582,1.7582,1.7582,1.7582,1.7582,1.7756,1.8009,1.833,1.8624,1.8918,1.8918,1.9092,1.9377,1.9417,1.943,1.9591,0.0,0.0,0.0,0.0,0.0,0.0,0.0,0.0,0.0,0.0,0.0,0.0,0.0,0.0,0.0,0.0,0.0,0.7988,0.0,0.0,0.0,0.0,0.0,0.0,0.0,0.7855,0.7855,0.7855,0.7855,0.7855,0.7855,0.7867,0.7894,0.7894,0.7961,0.0,0.7988,0.0,0.7988,0.0,0.0,0.0,0.0,0.7988,0.7988,0.7988,0.7988,0.7988,0.7982,0.0,0.7894,0.0,0.0,0.0,0.0,0.0,0.0,0.0,0.0,0.0,0.0,0.0,0.0,0.0,1.1901,0.0,1.1901,0.0,0.0,0.0,0.0,0.0,0.0,0.0,1.3802,1.4327,1.547,1.5752,1.5784,1.5784,1.5784,1.5784,1.5784,1.5784,1.5784,1.5784,1.5784,1.5784,1.5784,1.5784,1.5784,1.5784,1.5784,1.5979,1.6321,1.6567,1.686,1.7206,1.7448,1.7582,1.7582,1.7582,1.7582,1.7595,1.7769,1.8023,1.833,1.8624,1.8918,1.9185,1.9185,1.9252,1.943,1.943,1.943,1.9707,0.0,0.0,0.0,0.0,0.0,0.0,0.0,0.0,0.0,0.0,0.0,0.0,0.7988,0.7988,0.0,0.0,0.7988,0.7988,0.0,0.0,0.7988,0.0,0.0,0.0,0.0,0.0,0.7988,0.7988,0.7988,0.7988,0.7988,0.7988,0.7988,0.7988,0.0,0.7988,0.7988,0.0,0.7988,0.7988,0.7988,0.7988,0.7988,0.7988,0.7988,0.7988,0.7988,0.7988,0.8038,0.8428,0.8528,0.0,0.8966,0.0,0.0,0.0,0.0,0.0,0.96,0.0,0.0,0.0,0.0,0.0,0.0,0.0,0.0,0.0,0.0,0.0,0.0,0.0,0.0,0.0,0.0,1.4721,1.5583,1.5731,1.5784,1.5784,1.5784,1.5784,1.5784,1.5784,1.5784,1.5784,1.5784,1.5784,1.5784,1.5784,1.5784,1.5784,1.5784,1.6005,1.6393,1.6607,1.6901,1.7326,1.7527,1.7582,1.7582,1.7582,1.7582,1.7595,1.7862,1.8223,1.8517,1.8811,1.9092,1.943,1.943,1.9649,1.9982,1.9982,1.9982,2.0429,0.7739,0.693,0.0,0.0,0.0,0.0,0.0,0.0,0.0,0.0,0.0,0.0,0.0,0.0,0.0,0.0,0.0,0.7988,0.7988,0.0,0.7988,0.0,0.0,0.7988,0.0,0.0,0.0,0.7988,0.7988,0.7988,0.7988,0.7988,0.7988,0.7988,0.7988,0.7988,0.7988,0.7988,0.7988,0.7988,0.7988,0.7988,0.7988,0.0,0.7988,0.7988,0.7988,0.0,0.0,0.9509,0.9953,1.0141,1.1414,0.0,0.0,0.0,0.0,0.0,0.0,0.0,0.0,1.5629,0.0,0.0,0.0,0.0,1.5689,0.0,0.0,0.0,0.0,0.0,0.0,0.0,0.0,0.0,0.0,1.5658,1.5784,1.5784,1.5784,1.5784,1.5784,1.5784,1.5784,1.5784,1.5784,1.5784,1.5784,1.5784,1.5784,1.5784,1.5784,1.6112,1.6687,1.67,1.6994,1.7569,1.7582,1.7582,1.7582,1.7582,1.7582,1.7595,1.7862,1.8223,1.8517,1.8811,1.9092,1.943,1.943,2.0256,2.1529,2.1529,2.1529,2.1968,0.0,0.0,0.0,0.0,0.0,0.0,0.0,0.7988,0.0,0.0,0.0,0.0,0.0,0.7988,0.7988,0.0,0.0,0.7988,0.7988,0.7988,0.0,0.0,0.0,0.7988,0.0,0.0,0.0,0.0,0.0,0.7988,0.7988,0.7988,0.7988,0.7988,0.0,0.7988,0.0,0.0,0.0,0.0,0.0,0.7988,0.7988,0.0,0.7988,0.7988,0.7988,0.7988,0.8088,0.8528,0.8676,0.8924,1.0239,1.0632,1.0828,1.1658,1.2231,1.2571,1.2571,1.3536,1.4555,1.4555,0.0,0.0,0.0,0.0,0.0,0.0,0.0,0.0,0.0,0.0,0.0,0.0,0.0,0.0,0.0,1.5718,1.5784,1.5784,1.5784,0.0,1.5784,1.5784,1.5784,1.5784,1.5784,1.5784,1.5784,1.5784,1.5784,1.5784,1.6019,1.6313,1.67,1.6901,1.7246,1.7582,1.7582,1.7582,1.7582,1.7582,1.7689,1.7849,1.821,1.8504,1.8798,1.9092,1.9885,2.0859,2.0859,2.1756,2.2927,2.1983,2.2194,2.3375,0.7988,0.0,0.0,0.0,0.0,0.0,0.0,0.0,0.0,0.0,0.8119,0.0,0.8194,0.0,0.8194,0.0,0.8194,0.8194,0.8194,0.8194,0.0,0.8126,0.8119,0.0,0.0,0.0,0.0,0.0,0.0,0.7988,0.7988,0.7988,0.7988,0.7988,0.7988,0.7988,0.7988,0.7988,0.7988,0.0,0.0,0.8153,0.0,0.0,0.8083,0.7988,0.7988,0.7988,0.8137,0.9065,0.941,0.9698,1.1502,1.2037,1.2231,1.3065,1.3307,1.3307,1.3307,1.3932,1.4555,1.4555,1.5188,0.0,1.5784,0.0,1.5784,0.0,0.0,0.0,0.0,0.0,0.0,0.0,0.0,0.0,0.0,1.5784,1.5784,1.5784,1.5784,0.0,0.0,1.5784,1.5784,1.5784,1.5784,1.5784,1.5784,1.5784,1.5784,1.5784,1.6112,1.642,1.67,1.7058,1.734,1.7582,1.7582,1.7582,1.7582,1.7689,1.7849,1.8009,1.8464,1.9011,1.9709,2.0016,2.1031,2.2307,2.1813,2.2476,2.3654,2.2702,2.3319,2.4765,0.0,0.0,0.0,0.0,0.7988,0.0,0.0,0.0,0.8106,0.0,0.8327,0.833,0.8465,0.8479,0.8479,0.8479,0.8479,0.8479,0.8479,0.8479,0.0,0.0,0.8333,0.8208,0.8002,0.0,0.0,0.0,0.0,0.0,0.7988,0.7988,0.7988,0.7988,0.7988,0.0,0.8002,0.8002,0.8008,0.8022,0.8221,0.8364,0.8479,0.8479,0.8309,0.8008,0.8108,0.8158,0.8499,1.1091,1.1912,1.2349,1.4902,1.5724,1.5737,1.5784,1.5784,1.5784,1.5784,1.5784,1.5784,1.5784,1.5784,1.5784,0.0,0.0,1.5784,0.0,0.0,0.0,0.0,0.0,0.0,0.0,0.0,0.0,0.0,0.0,1.5784,1.5784,1.5784,0.0,0.0,1.5784,1.5784,1.5784,1.5784,1.5784,0.0,1.5784,1.5784,1.5798,1.6139,1.6433,1.6727,1.7072,1.7367,1.7582,1.7582,1.7595,1.7609,1.7889,1.8036,1.8062,1.8621,1.9738,2.1137,2.1395,2.242,2.3654,2.2194,2.2476,2.3822,2.3877,2.482,2.61,0.7988,0.7988,0.7988,0.0,0.7988,0.7988,0.0,0.0,0.0,0.0,0.8364,0.8438,0.8479,0.8479,0.8479,0.8479,0.8479,0.0,0.0,0.0,0.0,0.8431,0.8425,0.8364,0.8214,0.8214,0.0,0.7988,0.0,0.0,0.7988,0.7988,0.7988,0.7988,0.0,0.8106,0.8214,0.8214,0.8269,0.837,0.8411,0.8452,0.8479,0.8479,0.8431,0.8519,0.9587,0.9989,1.0229,1.1754,1.2292,1.2509,1.3943,1.4411,1.4555,1.5534,1.5784,1.5784,1.5784,1.5784,1.5784,1.5784,1.5784,1.5784,1.5784,1.5784,1.5784,0.0,0.0,0.0,0.0,0.0,0.0,0.0,0.0,0.0,0.0,0.0,0.0,1.5784,0.0,0.0,1.5784,1.5784,1.5784,1.5784,1.5784,1.5784,1.5784,1.5784,1.5925,1.6152,1.6446,1.674,1.7085,1.7328,1.7515,1.7582,1.7582,1.7702,1.7876,1.7955,1.8222,1.8704,1.8851,1.9864,2.141,2.0386,2.1487,2.3654,2.2194,2.2476,2.3933,2.5058,2.5735,2.6282,0.6276,0.0,0.0,0.8119,0.0,0.0,0.8147,0.8269,0.0,0.8452,0.8587,0.0,0.8825,0.8832,0.8872,0.8872,0.8872,0.0,0.8832,0.0,0.0,0.8587,0.8581,0.8513,0.8364,0.8364,0.0,0.8235,0.0,0.0,0.8235,0.8235,0.8235,0.8235,0.0,0.8282,0.8364,0.8364,0.8445,0.8581,0.8581,0.8621,0.0,0.8682,0.8682,0.8944,1.1106,1.0941,1.0016,1.1846,1.2466,1.2798,1.4568,1.5108,1.5254,1.5963,1.6126,1.6019,1.6019,1.5925,1.5784,1.5784,1.5784,1.5784,1.5784,1.5784,1.5784,1.5784,1.5784,1.5784,1.5784,0.0,0.0,0.0,0.0,0.0,0.0,0.0,0.0,0.0,1.5784,1.5784,1.5784,1.5784,1.5784,1.5784,1.5784,1.5784,1.5784,1.5784,1.5965,1.6308,1.6553,1.6847,1.7192,1.7487,1.7582,1.7582,1.7716,1.7822,1.7995,1.8262,1.8555,1.8931,1.9721,2.0643,2.1586,2.1373,2.2322,2.371,2.287,2.3191,2.4294,2.5818,2.6334,2.6536,0.4246,0.0,0.0,0.0,0.0,0.0,0.0,0.8465,0.0,0.8723,0.0,0.9042,0.9228,0.93,0.9381,0.9381,0.0,0.9327,0.9248,0.9241,0.9111,0.8784,0.8771,0.8689,0.8513,0.8513,0.0,0.0,0.0,0.0,0.8479,0.8479,0.8479,0.8479,0.0,0.0,0.0,0.8533,0.8621,0.8743,0.8743,0.8927,0.921,0.921,0.932,0.9809,1.2398,1.1478,0.9527,1.2287,1.3203,1.3612,1.5947,1.67,1.67,1.67,1.6526,1.6326,1.6326,1.6139,1.5939,1.5939,1.5864,1.5885,1.5885,1.5811,1.5784,1.5784,1.5784,1.5784,1.5784,1.5784,0.0,0.0,0.0,0.0,0.0,0.0,0.0,0.0,0.0,0.0,1.5784,1.5784,1.5784,1.5784,1.5784,1.5784,1.5784,1.5824,1.6019,1.6326,1.6607,1.6901,1.7259,1.7462,1.7609,1.7649,1.7862,1.8035,1.8129,1.8635,1.8945,1.9055,2.063,2.1529,2.1968,2.3039,2.3654,2.3822,2.4094,2.4311,2.4668,2.6433,2.6823,2.6578,0.567,0.0,0.0,0.0,0.0,0.8797,0.877,0.8845,0.8811,0.8838,0.9137,0.9313,0.934,0.9367,0.9381,0.9381,0.9381,0.0,0.0,0.0,0.0,0.9139,0.9132,0.8947,0.8676,0.8669,0.8608,0.0,0.0,0.0,0.8479,0.8479,0.8479,0.0,0.0,0.0,0.8676,0.8804,0.0,0.8844,0.8844,0.9614,1.0726,1.0726,1.1483,1.2615,1.3102,1.2945,1.2856,1.5515,1.6382,1.6446,1.6629,1.67,1.67,1.67,1.6673,1.6633,1.6633,1.6593,1.6553,1.6553,1.6366,1.6192,1.6192,1.6005,1.5784,1.5784,1.5784,1.5784,1.5784,1.5784,0.0,0.0,0.0,0.0,0.0,0.0,0.0,0.0,0.0,1.5784,1.5784,1.5784,1.5784,1.5784,1.5784,1.5784,1.5784,1.6059,1.6326,1.662,1.6914,1.7259,1.7554,1.7555,1.7716,1.7916,1.7969,1.8249,1.8771,1.8878,1.9052,1.935,1.9622,2.1159,2.3319,2.2363,2.2702,2.3966,2.5573,2.5449,2.4741,2.794,2.7573,2.5948,0.0,0.0,0.0,0.0,0.0,0.9171,0.9171,0.9239,0.9259,0.9178,0.9361,0.9496,0.9496,0.9564,0.9612,0.9612,0.9612,0.9578,0.9503,0.9496,0.9435,0.9337,0.933,0.0,0.8947,0.894,0.8866,0.8716,0.0,0.0,0.8716,0.8716,0.8716,0.8716,0.0,0.8757,0.0,0.8851,0.932,1.0029,1.0168,1.1142,1.2468,1.2626,1.3109,1.383,1.4603,1.4746,1.4819,1.5911,1.6246,1.639,1.6988,1.7154,1.7154,1.7154,1.7048,1.6941,1.6941,1.682,1.67,1.67,1.6607,1.65,1.65,1.638,1.6286,1.6286,1.6166,1.6005,1.5811,1.5784,1.5784,0.0,0.0,0.0,0.0,0.0,0.0,0.0,0.0,0.0,0.0,0.0,1.5784,1.5784,1.5784,1.5899,1.6046,1.6192,1.6473,1.6978,1.7125,1.734,1.7582,1.7582,1.7742,1.7995,1.8196,1.8504,1.8931,1.9078,1.9225,1.943,2.0199,2.1373,2.2589,2.187,2.2585,2.4062,2.4244,2.5,2.6296,2.8063,2.8452,2.8414,0.0,0.492,0.0,0.0,0.9327,0.9429,0.9429,0.9557,0.9598,0.9449,0.9557,0.9652,0.9652,0.9754,0.9822,0.9822,0.9822,0.9774,0.9659,0.9652,0.9585,0.9435,0.9429,0.9361,0.9262,0.9262,0.9144,0.0,0.0,0.0,0.8885,0.8885,0.8885,0.8885,0.8974,0.9147,0.948,0.9516,1.0183,1.1292,1.1827,1.2721,1.379,1.4358,1.477,1.5164,1.6366,1.6624,1.6417,1.6145,1.5946,1.6062,1.7252,1.7582,1.7582,1.7582,1.7474,1.73,1.73,1.7074,1.6887,1.6887,1.6847,1.6807,1.6807,1.6754,1.67,1.67,1.6526,1.6286,1.6059,1.5971,1.5971,1.5971,0.0,0.0,0.0,0.0,0.0,0.0,0.0,0.0,1.5912,1.5925,1.5952,1.6005,1.5952,1.6019,1.6308,1.6442,1.6723,1.7192,1.7259,1.7407,1.7582,1.7649,1.7836,1.8089,1.8437,1.8731,1.9025,1.9265,1.943,1.9475,2.0973,2.1756,2.2096,2.2498,2.3326,2.4212,2.3494,2.4886,2.7364,2.8173,2.9074,2.9905,0.0,0.0,0.0,0.9064,0.949,0.9591,0.9591,0.9707,0.9747,0.9605,0.9713,0.9802,0.9802,0.9815,0.9822,0.9822,0.9822,0.9815,0.9802,0.9802,0.9741,0.9591,0.9591,0.9517,0.9361,0.9361,0.9354,0.0,0.0,0.9062,0.8885,0.8885,0.8885,0.8892,0.9076,0.9969,1.126,1.1427,1.1617,1.1845,1.3259,1.3891,1.4015,1.5558,1.6937,1.8089,1.8255,1.8298,1.8271,1.8245,1.7874,1.7424,1.7582,1.7582,1.7582,1.7582,1.7569,1.7542,1.7542,1.7515,1.7502,1.7502,1.7353,1.7166,1.7166,1.6901,1.67,1.67,1.6687,1.666,1.6633,1.662,1.662,1.662,0.0,0.0,0.0,0.0,0.0,0.0,0.0,0.0,1.6206,1.6233,1.6339,1.6607,1.638,1.6295,1.6321,1.6831,1.7139,1.7206,1.746,1.7555,1.7582,1.7862,1.8156,1.845,1.8744,1.9038,1.9332,1.9417,1.943,1.9475,2.0973,2.2363,2.3743,2.5367,2.5371,2.449,2.651,2.6572,2.5948,2.9343,2.8824,2.6893,0.4399,0.6083,0.7729,0.9281,0.9639,0.9734,0.9734,0.9781,0.9802,0.9741,0.9788,0.9822,0.9822,0.9822,0.9822,0.9822,0.9822,0.9822,0.9822,0.9822,0.9795,0.9741,0.9734,0.9666,0.9523,0.9517,0.9469,0.0,0.0,0.0,0.0,0.9205,0.9205,0.9205,0.9266,0.9688,1.0311,1.1347,1.2289,1.3203,1.4977,1.6137,1.6968,1.7824,1.8542,1.9011,1.9011,1.8905,1.8744,1.8744,1.8477,1.813,1.813,1.813,1.809,1.7916,1.7862,1.7822,1.7635,1.7582,1.7582,1.7582,1.7502,1.746,1.746,1.7315,1.7235,1.7235,1.7088,1.6914,1.674,1.67,1.67,1.67,1.6607,0.0,0.0,0.0,0.0,0.0,0.0,0.0,0.0,1.6526,1.658,1.67,1.6593,1.6607,1.6844,1.782,1.8082,1.746,1.8338,1.8492,1.7862,1.7929,1.8235,1.8744,1.8865,1.9078,1.9417,2.0314,2.0702,2.0816,2.2266,2.2812,2.2788,2.3502,2.421,2.4926,2.4984,2.5887,2.7344,2.8847,2.8545,2.7751,0.5171,0.6891,0.8456,0.9486,0.9754,0.9822,0.9822,0.9863,0.989,0.989,0.993,0.9924,0.9829,0.9822,0.9822,0.9822,0.9822,0.9822,0.9822,0.9822,0.9822,0.9822,0.9822,0.0,0.9673,0.9673,0.9618,0.951,0.9469,0.0,0.9381,0.9334,0.934,0.9439,0.9939,1.0426,1.0999,1.2605,1.3894,1.4948,1.6793,1.781,1.8422,1.9105,1.943,1.943,1.943,1.9225,1.9052,1.9052,1.8918,1.8718,1.8544,1.849,1.845,1.8237,1.8183,1.813,1.7903,1.7849,1.7849,1.7849,1.7782,1.7716,1.7716,1.7649,1.7582,1.7582,1.7474,1.7259,1.7007,1.6967,1.6967,1.6967,1.6887,0.0,0.0,1.6767,0.0,0.0,1.67,1.674,1.6834,1.6834,1.6874,1.6954,1.6967,1.7021,1.7192,1.8184,1.8433,1.7755,1.8654,1.8809,1.817,1.8209,1.8462,1.8918,1.9453,1.9603,1.943,2.0472,2.1202,2.1643,2.2755,2.2757,2.2021,2.2171,2.3227,2.4619,2.4127,2.5468,2.7751,2.823,2.811,2.7931,0.7052,0.8647,0.9754,0.9822,0.9822,0.9822,0.9822,0.9889,0.9984,0.9984,1.0181,1.0161,0.9856,0.9822,0.9822,0.9822,0.9822,0.9822,0.9822,0.9822,0.9822,0.0,0.0,0.9822,0.9822,0.9822,0.9815,0.9815,0.0,0.953,0.9374,0.9282,0.9296,0.9504,1.1211,1.2858,1.445,1.6202,1.6962,1.7079,1.8693,1.8402,1.7196,1.8765,1.943,1.943,1.943,1.9417,1.9359,1.9359,1.9417,1.931,1.8677,1.849,1.849,1.849,1.849,1.8477,1.8477,1.8477,1.8477,1.8477,1.8263,1.7982,1.7982,1.7809,1.7582,1.7582,1.7582,1.7569,1.7569,1.7569,1.7569,1.7569,1.738,1.7192,0.0,1.6887,0.0,1.67,1.67,1.682,1.7166,1.7192,0.0,1.7555,1.7569,1.7501,1.7219,1.7474,1.7716,1.7982,1.7982,1.8183,1.8477,1.8771,1.8918,1.8931,2.0715,2.0802,1.943,1.943,2.0199,2.1601,2.1915,2.2006,2.2066,2.2616,2.2944,2.3354,2.523,2.5968,2.6227,2.7811,2.7374,2.6288,0.5474,0.7165,0.8691,0.9926,1.0134,1.0134,1.0134,1.0175,1.0209,1.0209,1.0249,1.0243,1.0148,1.0134,1.0134,1.0134,1.0039,0.9916,0.9916,0.9876,0.9822,0.9822,0.9822,0.9822,0.9822,0.9822,0.9822,0.9822,0.9774,0.9727,0.968,1.0747,1.128,1.1395,1.3049,1.4084,1.4616,1.6281,1.702,1.7149,1.8765,1.9068,1.8706,1.9185,1.943,1.943,1.943,1.943,1.943,1.943,1.943,1.939,1.9145,1.9092,1.9052,1.8851,1.8784,1.8744,1.8544,1.849,1.849,1.849,1.8424,1.8343,1.8343,1.8277,1.8143,1.7943,1.7849,1.7836,1.7622,1.7582,1.7582,1.7582,1.7502,1.7448,1.7448,0.0,1.7301,1.7301,1.7301,1.7341,1.7435,1.7448,1.7527,1.7569,1.7782,1.7769,1.7514,1.9583,1.9963,1.8077,2.0077,2.0411,1.8784,1.8878,1.951,2.0715,2.0315,2.0371,2.0916,2.0916,2.1262,2.1857,2.1961,2.1625,2.1241,2.2506,2.3215,2.3609,2.5327,2.5984,2.6045,2.6591,2.5741,2.4778,0.556,0.6899,0.8191,1.0002,1.0283,1.0283,1.0283,1.0324,1.0358,1.0358,1.0412,1.0446,1.0446,1.0446,1.0399,1.029,1.0188,1.0134,1.0134,1.0046,0.9964,0.991,0.9849,0.9883,0.9822,0.9822,0.9822,0.9822,0.9822,0.9822,0.9822,1.1434,1.2217,1.2277,1.454,1.5488,1.5607,1.7208,1.7923,1.7981,1.901,1.943,1.943,1.943,1.943,1.943,1.943,1.943,1.943,1.943,1.943,1.943,1.943,1.943,1.939,1.9145,1.9092,1.9052,1.8865,1.8824,1.8824,1.8824,1.8731,1.8624,1.8517,1.849,1.8437,1.825,1.821,1.8156,1.7956,1.7929,1.7929,1.7929,1.7929,1.7929,1.7929,1.7929,1.7929,0.0,0.0,1.7929,1.7929,1.8438,1.8744,1.8744,1.894,1.8954,1.8758,2.0089,2.0106,1.8398,2.0267,2.0586,1.9078,1.9092,1.9674,2.0759,1.9809,2.0141,2.1586,2.1762,2.1927,2.2079,2.2333,2.2453,2.2547,2.2418,2.3195,2.4532,2.4962,2.5085,2.5085,2.5085,2.4471,2.3993,0.681,0.7518,0.8231,0.9985,1.031,1.031,1.031,1.0426,1.0507,1.0507,1.0629,1.0717,1.0717,1.0717,1.0609,1.0337,1.0304,1.0297,1.0297,1.0283,1.0215,1.0011,1.0004,0.9936,0.9856,0.9856,0.9849,0.9836,0.9829,0.9822,0.9822,1.1434,1.2277,1.2509,1.5596,1.7079,1.7267,1.8765,1.943,1.9457,1.9457,1.947,1.9484,1.9484,1.9484,1.9484,1.9484,1.9412,1.9457,1.9457,1.9444,1.943,1.943,1.943,1.943,1.943,1.943,1.943,1.943,1.943,1.943,1.943,1.9158,1.8878,1.8611,1.8557,1.8544,1.8517,1.8517,1.8517,1.849,1.849,1.849,1.849,1.849,1.849,1.849,1.849,1.849,1.849,1.849,1.849,1.849,1.9757,2.056,2.056,2.0575,2.059,2.059,1.9388,1.8832,1.9018,1.9115,1.925,1.9533,1.9417,1.9417,1.9533,1.956,2.0342,2.1801,2.2002,2.2109,2.2285,2.2736,2.3853,2.5087,2.24,2.2999,2.5497,2.4116,2.3574,2.3574,2.345,2.3574,2.3993,0.5472,0.6978,0.8508,1.0261,1.0616,1.0616,1.0616,1.0643,1.0663,1.0663,1.0697,1.0717,1.0717,1.0717,1.069,1.0622,1.0507,1.0439,1.0439,1.0337,1.0263,1.0229,1.0222,1.0209,1.0175,1.0168,1.0114,0.993,0.9876,0.9822,0.9822,1.1434,1.2868,1.4123,1.6138,1.7689,1.8881,1.9243,1.9492,1.9693,1.9693,1.9826,2.0027,2.0027,2.0027,2.0027,2.0027,1.988,1.9693,1.9693,1.9546,1.943,1.943,1.943,1.943,1.943,1.943,1.943,1.943,1.943,1.943,1.943,1.9319,1.9252,1.9172,1.9216,1.9092,1.8865,1.8824,1.8758,1.8531,1.849,1.849,1.849,1.849,1.849,1.849,1.849,1.849,1.849,1.849,1.849,1.849,1.8809,1.9016,1.9016,1.9236,1.9304,1.9304,2.0287,2.0781,2.0606,2.084,2.1015,2.1088,1.9982,1.9982,2.1088,2.1278,2.2248,2.3739,2.1611,2.1481,2.2841,2.1756,2.1582,2.2228,2.2798,2.2702,2.2327,2.3263,2.3574,2.345,2.2153,2.3311,2.5497,0.503,0.6819,0.8558,1.0366,1.0717,1.0717,1.0717,1.0717,1.0717,1.0717,1.0717,1.0717,1.0717,1.0717,1.0717,1.0717,1.0643,1.0595,1.0595,1.0527,1.0453,1.0378,1.0378,1.0344,1.0283,1.0283,1.0243,1.0154,1.0073,1.0032,1.0094,1.2471,1.4112,1.5024,1.7386,1.8962,1.976,1.976,1.9853,2.0,2.0,2.0094,2.0167,2.0167,2.0167,2.0167,2.0167,2.0134,2.0,2.0,1.9893,1.976,1.976,1.976,1.9733,1.9599,1.9466,1.943,1.943,1.943,1.943,1.943,1.943,1.943,1.943,1.943,1.9319,1.9158,1.9132,1.9078,1.8918,1.8891,1.8891,1.8891,1.8891,1.8891,1.8891,1.8891,1.8891,1.8891,1.8891,1.8891,1.8891,1.9541,1.992,1.992,2.0681,2.084,2.0175,2.1042,2.1227,2.0331,2.1156,2.1259,2.0587,2.0671,2.1076,2.1867,2.2937,2.3515,2.3663,2.3004,2.2841,2.3081,2.2338,2.2544,2.3311,2.2702,2.2341,2.2341,2.3263,2.3574,2.3574,2.3373,2.4455,2.5984,0.5095,0.7031,0.89,1.0452,1.0717,1.0717,1.0717,1.0717,1.0717,1.0717,1.0717,1.0717,1.0717,1.0717,1.0717,1.0717,1.0717,1.0717,1.0717,1.0717,1.0663,1.0534,1.0527,1.0473,1.0351,1.0324,1.031,1.031,1.029,1.0404,1.0721,1.3582,1.5194,1.5804,1.8606,1.9985,2.0167,2.0167,2.0254,2.0294,2.0294,2.0321,2.0361,2.0361,2.0361,2.0361,2.0361,2.0334,2.0294,2.0294,2.0267,2.0167,2.0167,2.0167,2.0187,1.9933,1.9693,1.9479,1.9399,1.943,1.943,1.943,1.943,1.943,1.943,1.943,1.943,1.943,1.943,1.943,1.943,1.943,1.943,1.943,1.943,1.943,1.943,1.943,1.943,1.943,1.943,1.943,1.943,2.0529,2.1259,2.1259,2.2435,2.2605,2.1316,2.1472,2.0916,1.943,2.0587,2.0773,1.9819,2.1423,2.2485,2.2995,2.423,2.4349,2.3495,2.448,2.4277,2.317,2.3207,2.3993,2.5069,2.2514,2.2153,2.3263,2.376,2.3807,2.376,2.513,2.5802,2.5984,0.5362,0.8035,1.0379,1.0651,1.0717,1.0717,1.0717,1.0717,1.0717,1.0717,1.0717,1.0717,1.0717,1.0717,1.0717,1.0717,1.0717,1.0717,1.0717,1.0717,1.0711,1.0683,1.0683,1.0677,1.0649,1.0527,1.046,1.046,1.0337,1.1031,1.2532,1.3026,1.4759,1.7541,1.8043,1.8985,2.0167,2.0167,2.0374,2.0601,2.0601,2.0748,2.0975,2.0975,2.0975,2.0975,2.0975,2.0815,2.0601,2.0601,2.0441,2.0167,2.0167,2.0167,2.0167,2.0174,2.0134,1.9987,1.9506,1.943,1.943,1.943,1.943,1.943,1.943,1.943,1.943,1.943,1.943,1.943,1.943,1.943,1.943,1.943,1.943,1.943,1.943,1.943,1.943,1.943,1.943,1.943,1.943,1.9591,1.9764,1.9764,1.9924,1.9982,1.9751,2.0916,2.0916,1.943,1.9649,2.0382,2.1757,2.2034,2.3636,2.65,2.4423,2.4659,2.6865,2.3381,2.2443,2.3437,2.2076,2.1601,2.1902,2.2827,2.2529,2.179,2.4532,2.4778,2.3636,2.3869,2.484,2.5802,0.6631,0.8906,1.0717,1.0717,1.0717,1.0717,1.0717,1.0717,1.0717,1.0717,1.0717,1.0717,1.0717,1.0717,1.0717,1.0717,1.0717,1.0717,1.0717,1.0717,1.0717,1.0717,1.0717,1.0717,1.0717,1.0649,1.0616,1.0616,1.151,1.2306,1.3135,1.5047,1.6751,1.8274,1.9175,1.9998,2.0708,2.0708,2.0788,2.0909,2.0909,2.0989,2.1109,2.1109,2.1109,2.1109,2.1109,2.1029,2.0909,2.0909,2.0815,2.0708,2.0708,2.0708,2.0681,2.0521,2.0361,2.0174,1.9907,1.972,1.9599,1.9599,1.9479,1.943,1.943,1.943,1.943,1.943,1.943,1.943,1.943,1.943,1.943,1.943,1.943,1.943,1.943,1.943,1.943,1.943,1.943,1.943,1.943,1.943,1.943,1.943,2.0141,2.0256,1.943,2.0917,2.1119,1.9658,1.9599,2.0545,2.2466,2.2631,2.3451,2.5031,2.4791,2.4968,2.5452,2.3375,2.2404,2.2278,2.2404,2.1915,2.1235,2.2889,2.2591,2.1348,2.3745,2.424,2.3698,2.4594,2.484,2.4594,0.7764,0.9437,1.0717,1.0717,1.0717,1.0717,1.0717,1.0717,1.0717,1.0717,1.0717,1.0717,1.0717,1.0717,1.0717,1.0717,1.0717,1.0717,1.0717,1.0717,1.0717,1.0717,1.0717,1.0717,1.0717,1.0717,1.0916,1.1306,1.261,1.3709,1.4558,1.728,1.8704,1.9152,2.0526,2.1109,2.1109,2.1109,2.1109,2.1109,2.1109,2.1109,2.1109,2.1109,2.1109,2.1109,2.1109,2.1109,2.1109,2.1109,2.1109,2.1109,2.1109,2.1109,2.1069,2.0842,2.0615,2.0414,2.0267,2.0067,1.9907,1.9907,1.9733,1.9573,1.9573,1.9519,1.9466,1.9466,1.9412,1.943,1.943,1.943,1.943,1.943,1.943,1.943,1.943,1.943,1.943,1.943,1.943,1.943,1.943,1.943,1.943,1.943,2.0485,2.0701,1.9524,2.0824,2.1244,2.0585,2.0112,2.0805,2.2767,2.3006,2.3354,2.3794,2.4881,2.4778,2.3574,2.3201,2.2529,2.1727,2.2654,2.2529,2.179,2.3076,2.2591,2.1299,2.3387,2.3683,2.3201,2.484,2.4409,2.3029,0.7964,0.9437,1.0717,1.0717,1.0717,1.0717,1.0717,1.0717,1.0717,1.0717,1.0717,1.0717,1.0717,1.0717,1.0717,1.0717,1.0717,1.0717,1.0717,1.0717,1.0717,1.0717,1.0717,1.0717,1.0717,1.0717,1.1505,1.3128,1.3259,1.4949,1.8116,1.8372,1.9355,2.0919,2.1046,2.1109,2.1109,2.1109,2.1109,2.1109,2.1109,2.1109,2.1109,2.1109,2.1109,2.1109,2.1109,2.1109,2.1109,2.1109,2.1109,2.1109,2.1109,2.1109,2.1109,2.1082,2.1056,2.0922,2.0374,2.0214,2.0201,2.0201,2.0187,2.0174,2.0174,1.996,1.9773,1.9773,1.9559,1.943,1.943,1.943,1.943,1.943,1.943,1.943,1.943,1.943,1.943,1.943,1.943,1.943,1.943,1.943,1.943,1.943,1.973,1.9878,1.9773,2.016,2.1097,2.2809,2.111,2.111,2.3036,2.3066,2.4007,2.5753,2.4409,2.3698,2.3574,2.1978,2.2041,2.3325,2.1915,2.209,2.345,2.3574,2.2591,2.1411,2.4578,2.3977,2.1475,2.3139,2.2716,2.1299,0.9437,1.0246,1.0717,1.0717,1.0717,1.0717,1.0717,1.0717,1.0717,1.0717,1.0717,1.0717,1.0717,1.0717,1.0717,1.0717,1.0717,1.0717,1.0717,1.0717,1.0717,1.0717,1.0717,1.0717,1.0717,1.0717,1.1049,1.1696,1.2734,1.4558,1.6883,1.7988,1.9419,2.1109,2.1109,2.1109,2.1109,2.1109,2.1109,2.1109,2.1109,2.1109,2.1109,2.1109,2.1109,2.1109,2.1109,2.1109,2.1109,2.1109,2.1109,2.1109,2.1109,2.1109,2.1109,2.1109,2.1109,2.1056,2.0842,2.0641,2.0508,2.0508,2.0374,2.0167,2.0167,2.0147,2.0067,2.0067,1.9987,1.9907,1.9907,1.9907,1.9907,1.9907,1.9907,1.9907,1.9907,1.9907,1.9907,1.9907,1.9907,1.9907,1.9907,1.9907,1.9907,1.9907,2.0,2.0067,2.0067,2.0347,2.0937,2.1846,2.114,2.1624,2.338,2.2405,2.2213,2.2937,2.2341,2.2591,2.3512,2.1853,2.2041,2.3574,2.2966,2.2404,2.2153,2.3139,2.2591,2.1235,2.2452,2.2201,2.1172,2.179,2.1664,2.1109,1.0452,1.0717,1.0717,1.0717,1.0717,1.0717,1.0717,1.0717,1.0717,1.0717,1.0717,1.0717,1.0717,1.0717,1.0717,1.0717,1.0717,1.0717,1.0717,1.0717,1.0717,1.0717,1.0717,1.0717,1.0717,1.0717,1.124,1.2347,1.3521,1.5265,1.7538,1.8768,1.9941,2.1109,2.1109,2.1109,2.1109,2.1109,2.1109,2.1109,2.1109,2.1109,2.1109,2.1109,2.1109,2.1109,2.1109,2.1109,2.1109,2.1109,2.1109,2.1109,2.1109,2.1109,2.1109,2.1109,2.1109,2.1109,2.1109,2.0962,2.0815,2.0815,2.0655,2.0508,2.0508,2.0441,2.0374,2.0374,2.0294,2.0167,2.0167,2.0167,2.0167,2.0167,2.0167,2.0167,2.0167,2.0167,2.0167,2.0167,2.0167,2.0167,2.0167,2.0167,2.0167,2.0167,2.0321,2.0414,2.0508,2.0708,2.0909,2.1096,2.1109,2.1664,2.2779,2.1664,2.1109,2.1109,2.1109,2.1727,2.2779,2.1601,2.2041,2.3574,2.3014,2.2466,2.1915,2.2591,2.2153,2.1109,2.1109,2.1109,2.1109,2.1109,2.1109,2.1109,1.0717,1.0717,1.0717,1.0717,1.0717,1.0717,1.0717,1.0717,1.0717,1.0717,1.0717,1.0717,1.0717,1.0717,1.0717,1.0717,1.0717,1.0717,1.0717,1.0717,1.0717,1.0717,1.0717,1.0717,1.0717,1.0717,1.2413,1.5848,1.5913,1.7667,2.1109,2.1109,2.1109,2.1109,2.1109,2.1109,2.1109,2.1109,2.1109,2.1109,2.1109,2.1109,2.1109,2.1109,2.1109,2.1109,2.1109,2.1109,2.1109,2.1109,2.1109,2.1109,2.1109,2.1109,2.1109,2.1109,2.1109,2.1109,2.1109,2.1109,2.1109,2.1109,2.1109,2.1109,2.1109,2.0882,2.0681,2.0681,2.0441,2.0241,2.0241,2.0241,2.0241,2.0241,2.0241,2.0241,2.0241,2.0241,2.0241,2.0241,2.0241,2.0241,2.0241,2.0241,2.0241,2.0241,2.0508,2.0802,2.1096,2.1109,2.1109,2.1109,2.1109,2.1109,2.1109,2.1109,2.1109,2.1109,2.1109,2.1109,2.1109,2.1109,2.2041,2.3512,2.1853,2.2027,2.345,2.179,2.1109,2.1109,2.1109,2.1109,2.1109,2.1109,2.1109,2.1109,1.0717,1.0717,1.0717,1.0717,1.0717,1.0717,1.0717,1.0717,1.0717,1.0717,1.0717,1.0717,1.0717,1.0717,1.0717,1.0717,1.0717,1.0717,1.0717,1.0717,1.0717,1.0717,1.0717,1.0717,1.0717,1.1894,1.3062,1.4101,1.5329,1.7076,1.9291,1.9291,1.9941,2.1109,2.1109,2.1109,2.1109,2.1109,2.1109,2.1109,2.1109,2.1109,2.1109,2.1109,2.1109,2.1109,2.1109,2.1109,2.1109,2.1109,2.1109,2.1109,2.1109,2.1109,2.1109,2.1109,2.1109,2.1109,2.1109,2.1109,2.1109,2.1109,2.1109,2.1109,2.1109,2.1042,2.0975,2.0975,2.0909,2.0842,2.0842,2.0842,2.0842,2.0842,2.0842,2.0842,2.0842,2.0842,2.0842,2.0842,2.0842,2.0842,2.0842,2.0842,2.0842,2.0842,2.0935,2.1015,2.1109,2.1109,2.1109,2.1109,2.1109,2.1109,2.1109,2.1109,2.1109,2.1109,2.1109,2.1727,2.2841,2.1664,2.2041,2.3512,2.1853,2.1362,2.179,2.1299,2.1109,2.1109,2.1109,2.1109,2.1109,2.1109,2.1109,2.1109,1.0717,1.0717,1.0717,1.0717,1.0717,1.0717,1.0717,1.0717,1.0717,1.0717,1.0717,1.0717,1.0717,1.0717,1.0717,1.0717,1.0717,1.0717,1.0717,1.0717,1.0717,1.0717,1.1372,1.1439,1.0717,1.2413,1.3643,1.4362,1.6043,1.7795,1.9546,1.9546,2.0068,2.1109,2.1109,2.1109,2.1109,2.1109,2.1109,2.1109,2.1109,2.1109,2.1109,2.1109,2.1109,2.1109,2.1109,2.1109,2.1109,2.1109,2.1109,2.1109,2.1109,2.1109,2.1109,2.1109,2.1109,2.1109,2.1109,2.1109,2.1109,2.1109,2.1109,2.1109,2.1109,2.1109,2.1109,2.1109,2.1109,2.1109,2.1109,2.1109,2.1109,2.1109,2.1109,2.1109,2.1109,2.1109,2.1109,2.1109,2.1109,2.1109,2.1109,2.1109,2.1109,2.1109,2.1109,2.1109,2.1109,2.1109,2.1109,2.1109,2.1109,2.1109,2.1109,2.1109,2.1109,2.1109,2.1109,2.1601,2.2591,2.1538,2.1664,2.2529,2.1538,2.1109,2.1109,2.1109,2.1109,2.1109,2.1109,2.1109,2.1109,2.1109,2.1109,2.1109,1.0717,1.0717,1.0717,1.0717,1.0717,1.0717,1.0717,1.0717,1.0717,1.0717,1.0717,1.0717,1.0717,1.0717,1.0717,1.0717,1.0717,1.0717,1.0717,1.0717,1.0784,1.0916,1.2479,1.261,1.1174,1.2865,1.4558,1.6108,1.7859,1.9546,2.1109,2.1109,2.1109,2.1109,2.1109,2.1109,2.1109,2.1109,2.1109,2.1109,2.1109,2.1109,2.1109,2.1109,2.1109,2.1109,2.1109,2.1109,2.1109,2.1109,2.1109,2.1109,2.1109,2.1109,2.1109,2.1109,2.1109,2.1109,2.1109,2.1109,2.1109,2.1109,2.1109,2.1109,2.1109,2.1109,2.1109,2.1109,2.1109,2.1109,2.1109,2.1109,2.1109,2.1109,2.1109,2.1109,2.1109,2.1109,2.1109,2.1109,2.1109,2.1109,2.1109,2.1109,2.1109,2.1109,2.1109,2.1109,2.1109,2.1109,2.1109,2.1109,2.1109,2.1109,2.1109,2.1109,2.1109,2.1109,2.1109,2.1109,2.1109,2.1109,2.1109,2.1109,2.1109,2.1109,2.1109,2.1109,2.1109,2.1109,2.1109,2.1109,2.1109,2.1109,2.1109,2.1109,1.0717,1.0717,1.0717,1.0717,1.0717,1.0717,1.0717,1.0717,1.0717,1.0717,1.0717,1.0717,1.0717,1.0717,1.0717,1.0717,1.0717,1.0717,1.0717,1.0717,1.1306,1.2676,1.3128,1.3774,1.4754,1.6496,1.7538,1.7923,1.9674,2.0716,2.1109,2.1109,2.1109,2.1109,2.1109,2.1109,2.1109,2.1109,2.1109,2.1109,2.1109,2.1109,2.1109,2.1109,2.1109,2.1109,2.1109,2.1109,2.1109,2.1109,2.1109,2.1109,2.1109,2.1109,2.1109,2.1109,2.1109,2.1109,2.1109,2.1109,2.1109,2.1109,2.1109,2.1109,2.1109,2.1109,2.1109,2.1109,2.1109,2.1109,2.1109,2.1109,2.1109,2.1109,2.1109,2.1109,2.1109,2.1109,2.1109,2.1109,2.1109,2.1109,2.1109,2.1109,2.1109,2.1109,2.1109,2.1109,2.1109,2.1109,2.1109,2.1109,2.1109,2.1109,2.1109,2.1109,2.1109,2.1109,2.1109,2.1109,2.1109,2.1109,2.1109,2.1109,2.1109,2.1109,2.1109,2.1109,2.1109,2.1109,2.1109,2.1109,2.1109,2.1109,2.1109,2.1109,1.0717,1.0717,1.0717,1.0717,1.0717,1.0717,1.0717,1.0717,1.0717,1.0717,1.0717,1.0717,1.0717,1.0717,1.0717,1.0717,1.0717,1.0717,1.0717,1.1505,1.2347,1.3259,1.4874,1.6237,1.7141,1.8832,1.9355,1.8512,2.0259,2.1109,2.1109,2.1109,2.1109,2.1109,2.1109,2.1109,2.1109,2.1109,2.1109,2.1109,2.1109,2.1109,2.1109,2.1109,2.1109,2.1109,2.1109,2.1109,2.1109,2.1109,2.1109,2.1109,2.1109,2.1109,2.1109,2.1109,2.1109,2.1109,2.1109,2.1109,2.1109,2.1109,2.1109,2.1109,2.1109,2.1109,2.1109,2.1109,2.1109,2.1109,2.1109,2.1109,2.1109,2.1109,2.1109,2.1109,2.1109,2.1109,2.1109,2.1109,2.1109,2.1109,2.1109,2.1109,2.1109,2.1109,2.1109,2.1109,2.1109,2.1109,2.1109,2.1109,2.1109,2.1109,2.1109,2.1109,2.1109,2.1109,2.1109,2.1109,2.1109,2.1109,2.1109,2.1109,2.1109,2.1109,2.1109,2.1109,2.1109,2.1109,2.1109,2.1109,2.1109,2.1109,2.1109,2.1122,1.0717,1.0717,1.0717,1.0717,1.0717,1.0717,1.0717,1.0717,1.0717,1.0717,1.0717,1.0717,1.0717,1.0717,1.0717,1.0717,1.0717,1.085,1.1115,1.2479,1.3587,1.4166,1.6958,1.864,1.896,2.0386,2.0386,1.896,2.0386,2.1109,2.1109,2.1109,2.1109,2.1109,2.1109,2.1109,2.1109,2.1109,2.1109,2.1109,2.1109,2.1109,2.1109,2.1109,2.1109,2.1109,2.1109,2.1109,2.1109,2.1109,2.1109,2.1109,2.1109,2.1109,2.1109,2.1109,2.1109,2.1109,2.1109,2.1109,2.1109,2.1109,2.1109,2.1109,2.1109,2.1109,2.1109,2.1109,2.1109,2.1109,2.1109,2.1109,2.1109,2.1109,2.1109,2.1109,2.1109,2.1109,2.1109,2.1109,2.1109,2.1109,2.1109,2.1109,2.1109,2.1109,2.1109,2.1109,2.1109,2.1109,2.1109,2.1109,2.1109,2.1109,2.1109,2.1109,2.1109,2.1109,2.1109,2.1109,2.1109,2.1109,2.1109,2.1109,2.1109,2.1109,2.1109,2.1109,2.1109,2.1109,2.1109,2.1109,2.1122,2.1162,2.1189,2.1229,1.0717,1.0717,1.0717,1.0717,1.0717,1.0717,1.0717,1.0717,1.0717,1.0717,1.0717,1.0717,1.0717,1.0717,1.0717,1.0717,1.0717,1.1372,1.2865,1.3193,1.4623,1.7667,1.8244,1.9228,2.0716,2.0982,2.0982,2.0779,2.0982,2.1109,2.1109,2.1109,2.1109,2.1109,2.1109,2.1109,2.1109,2.1109,2.1109,2.1109,2.1109,2.1109,2.1109,2.1109,2.1109,2.1109,2.1109,2.1109,2.1109,2.1109,2.1109,2.1109,2.1109,2.1109,2.1109,2.1109,2.1109,2.1109,2.1109,2.1109,2.1109,2.1109,2.1109,2.1109,2.1109,2.1109,2.1109,2.1109,2.1109,2.1109,2.1109,2.1109,2.1109,2.1109,2.1109,2.1109,2.1109,2.1109,2.1109,2.1109,2.1109,2.1109,2.1109,2.1109,2.1109,2.1109,2.1109,2.1109,2.1109,2.1109,2.1109,2.1109,2.1109,2.1109,2.1109,2.1109,2.1109,2.1109,2.1109,2.1109,2.1109,2.1109,2.1109,2.1109,2.1109,2.1109,2.1109,2.1109,2.1109,2.1109,2.1109,2.1109,2.1136,2.1403,2.1561,2.1601,1.0717,1.0717,1.0717,1.0717,1.0717,1.0717,1.0717,1.0717,1.0717,1.0717,1.0717,1.0717,1.0717,1.0717,1.0717,1.0717,1.0717,1.1439,1.3193,1.4232,1.5848,1.8372,1.9419,2.0322,2.1109,2.1109,2.1109,2.1109,2.1109,2.1109,2.1109,2.1109,2.1109,2.1109,2.1109,2.1109,2.1109,2.1109,2.1109,2.1109,2.1109,2.1109,2.1109,2.1109,2.1109,2.1109,2.1109,2.1109,2.1109,2.1109,2.1109,2.1109,2.1109,2.1109,2.1109,2.1109,2.1109,2.1109,2.1109,2.1109,2.1109,2.1109,2.1109,2.1109,2.1109,2.1109,2.1109,2.1109,2.1109,2.1109,2.1109,2.1109,2.1109,2.1109,2.1109,2.1109,2.1109,2.1109,2.1109,2.1109,2.1109,2.1109,2.1109,2.1109,2.1109,2.1109,2.1109,2.1109,2.1109,2.1109,2.1109,2.1109,2.1109,2.1109,2.1109,2.1109,2.1109,2.1109,2.1109,2.1109,2.1109,2.1109,2.1109,2.1109,2.1109,2.1109,2.1109,2.1109,2.1109,2.1122,2.1296,2.1456,2.1617,2.175,2.179,2.2027]},{"header":{"parameterUnit":"m.s-1","parameterCategory":1,"la1":30.6,"la2":28.766,"lo1":-90.7593,"lo2":-88.6598,"dy":0.0162,"dx":0.0183,"nx":116,"ny":114,"refTime":"2023-11-01T12:00:00:Z","depth":0,"parameterNumber":3,"parameterNumberName":"V-component_of_WINDS"},"data":[0.0,0.0,0.0,0.0,0.0,0.0,0.0,0.0,0.0,0.0,0.0,0.0,0.0,0.0,0.0,0.0,0.0,0.0,0.0,0.0,0.0,0.0,0.0,0.0,0.0,0.0,0.0,0.0,0.0,0.0,0.0,0.0,0.0,0.0,0.0,0.0,0.0,0.0,0.0,0.0,0.0,0.0,0.0,0.0,0.0,0.0,0.0,0.0,0.0,0.0,0.0,0.0,0.0,0.0,0.0,0.0,0.0,0.0,0.0,0.0,0.0,0.0,0.0,0.0,0.0,0.0,0.0,0.0,0.0,0.0,0.0,0.0,0.0,0.0,0.0,0.0,0.0,0.0,0.0,0.0,0.0,0.0,0.0,0.0,0.0,0.0,0.0,0.0,0.0,0.0,0.0,0.0,0.0,0.0,0.0,0.0,0.0,0.0,0.0,0.0,0.0,0.0,0.0,0.0,0.0,0.0,0.0,0.0,0.0,0.0,0.0,0.0,0.0,0.0,0.0,0.0,0.0,0.0,0.0,0.0,0.0,0.0,0.0,0.0,0.0,0.0,0.0,0.0,0.0,0.0,0.0,0.0,0.0,0.0,0.0,0.0,0.0,0.0,0.0,0.0,0.0,0.0,0.0,0.0,0.0,0.0,0.0,0.0,0.0,0.0,0.0,0.0,0.0,0.0,0.0,0.0,0.0,0.0,0.0,0.0,0.0,0.0,0.0,0.0,0.0,0.0,0.0,0.0,0.0,0.0,0.0,0.0,0.0,0.0,0.0,0.0,0.0,0.0,0.0,0.0,0.0,0.0,0.0,0.0,0.0,0.0,0.0,0.0,0.0,0.0,0.0,0.0,0.0,0.0,0.0,0.0,0.0,0.0,0.0,0.0,0.0,0.0,0.0,0.0,0.0,0.0,0.0,0.0,0.0,0.0,0.0,0.0,0.0,0.0,0.0,0.0,0.0,0.0,0.0,0.0,0.0,0.0,0.0,0.0,0.0,0.0,0.0,0.0,0.0,0.0,0.0,0.0,0.0,0.0,0.0,0.0,0.0,0.0,0.0,0.0,0.0,0.0,0.0,0.0,0.0,0.0,0.0,0.0,0.0,0.0,0.0,0.0,0.0,0.0,0.0,0.0,0.0,0.0,0.0,0.0,0.0,0.0,0.0,0.0,0.0,0.0,0.0,0.0,0.0,0.0,0.0,0.0,0.0,0.0,0.0,0.0,0.0,0.0,0.0,0.0,0.0,0.0,0.0,0.0,0.0,0.0,0.0,0.0,0.0,0.0,0.0,0.0,0.0,0.0,0.0,0.0,0.0,0.0,0.0,0.0,0.0,0.0,0.0,0.0,0.0,0.0,0.0,0.0,0.0,0.0,0.0,0.0,0.0,0.0,0.0,0.0,0.0,0.0,0.0,0.0,0.0,0.0,0.0,0.0,0.0,0.0,0.0,0.0,0.0,0.0,0.0,0.0,0.0,0.0,0.0,0.0,0.0,0.0,0.0,0.0,0.0,0.0,0.0,0.0,0.0,0.0,0.0,0.0,0.0,0.0,0.0,0.0,0.0,0.0,0.0,0.0,0.0,0.0,0.0,0.0,0.0,0.0,0.0,0.0,0.0,0.0,0.0,0.0,0.0,0.0,0.0,0.0,0.0,0.0,0.0,0.0,0.0,0.0,0.0,0.0,0.0,0.0,0.0,0.0,0.0,0.0,0.0,0.0,0.0,0.0,0.0,0.0,0.0,0.0,0.0,0.0,0.0,0.0,0.0,0.0,0.0,0.0,0.0,0.0,0.0,0.0,0.0,0.0,0.0,0.0,0.0,0.0,0.0,0.0,0.0,0.0,0.0,0.0,0.0,0.0,0.0,0.0,0.0,0.0,0.0,0.0,0.0,0.0,0.0,0.0,0.0,0.0,0.0,0.0,0.0,0.0,0.0,0.0,0.0,0.0,0.0,0.0,0.0,0.0,0.0,0.0,0.0,0.0,0.0,0.0,0.0,0.0,0.0,0.0,0.0,0.0,0.0,0.0,0.0,0.0,0.0,0.0,0.0,0.0,0.0,0.0,0.0,0.0,0.0,0.0,0.0,0.0,0.0,0.0,0.0,0.0,0.0,0.0,0.0,0.0,0.0,0.0,0.0,0.0,0.0,0.0,0.0,0.0,0.0,0.0,0.0,0.0,0.0,0.0,0.0,0.0,0.0,0.0,0.0,0.0,0.0,0.0,0.0,0.0,0.0,0.0,0.0,0.0,0.0,0.0,0.0,0.0,0.0,0.0,0.0,0.0,0.0,0.0,0.0,0.0,0.0,0.0,0.0,0.0,0.0,0.0,0.0,0.0,0.0,0.0,0.0,0.0,0.0,0.0,0.0,0.0,0.0,0.0,0.0,0.0,0.0,0.0,0.0,0.0,0.0,0.0,0.0,0.0,0.0,0.0,0.0,0.0,0.0,0.0,0.0,0.0,0.0,0.0,0.0,0.0,0.0,0.0,0.0,0.0,0.0,0.0,0.0,0.0,0.0,0.0,0.0,0.0,0.0,0.0,0.0,0.0,0.0,0.0,0.0,0.0,0.0,0.0,0.0,0.0,0.0,0.0,0.0,0.0,0.0,0.0,0.0,0.0,0.0,0.0,0.0,0.0,0.0,0.0,0.0,0.0,0.0,0.0,0.0,0.0,0.0,0.0,0.0,0.0,0.0,0.0,0.0,0.0,0.0,0.0,0.0,0.0,0.0,0.0,0.0,0.0,0.0,0.0,0.0,0.0,0.0,0.0,0.0,0.0,0.0,0.0,0.0,0.0,0.0,0.0,0.0,0.0,0.0,0.0,0.0,0.0,0.0,0.0,0.0,0.0,0.0,0.0,0.0,0.0,0.0,0.0,0.0,0.0,0.0,0.0,0.0,0.0,0.0,0.0,0.0,0.0,0.0,0.0,0.0,0.0,0.0,0.0,0.0,0.0,0.0,0.0,0.0,0.0,0.0,0.0,0.0,0.0,0.0,0.0,0.0,0.0,0.0,0.0,0.0,0.0,0.0,0.0,0.0,0.0,0.0,0.0,0.0,0.0,0.0,0.0,0.0,0.0,0.0,0.0,0.0,0.0,0.0,0.0,0.0,0.0,0.0,0.0,0.0,0.0,0.0,0.0,0.0,0.0,0.0,0.0,0.0,0.0,0.0,0.0,0.0,0.0,0.0,0.0,0.0,0.0,0.0,0.0,0.0,0.0,0.0,0.0,0.0,0.0,0.0,0.0,0.0,0.0,0.0,0.0,0.0,0.0,0.0,0.0,0.0,0.0,0.0,0.0,0.0,0.0,0.0,0.0,0.0,0.0,0.0,0.0,0.0,0.0,0.0,0.0,0.0,0.0,0.0,0.0,0.0,0.0,0.0,0.0,0.0,0.0,0.0,0.0,0.0,0.0,0.0,0.0,0.0,0.0,0.0,0.0,0.0,0.0,0.0,0.0,0.0,0.0,0.0,0.0,0.0,0.0,0.0,0.0,0.0,0.0,0.0,0.0,0.0,0.0,0.0,0.0,0.0,0.0,0.0,0.0,0.0,0.0,0.0,0.0,0.0,0.0,0.0,0.0,0.0,0.0,0.0,0.0,0.0,0.0,0.0,0.0,0.0,0.0,0.0,0.0,0.0,0.0,0.0,0.0,0.0,0.0,0.0,0.0,0.0,0.0,0.0,0.0,0.0,0.0,0.0,0.0,0.0,0.0,0.0,0.0,0.0,0.0,0.0,0.0,0.0,0.0,0.0,0.0,0.0,0.0,0.0,0.0,0.0,0.0,0.0,0.0,0.0,0.0,0.0,0.0,0.0,0.0,0.0,0.0,0.0,0.0,0.0,0.0,0.0,0.0,0.0,0.0,0.0,0.0,0.0,0.0,0.0,0.0,0.0,0.0,0.0,0.0,0.0,0.0,0.0,0.0,0.0,0.0,0.0,0.0,0.0,0.0,0.0,0.0,0.0,0.0,0.0,0.0,0.0,0.0,0.0,0.0,0.0,0.0,0.0,0.0,0.0,0.0,0.0,0.0,0.0,0.0,0.0,0.0,0.0,0.0,0.0,0.0,0.0,0.0,0.0,0.0,0.0,0.0,0.0,0.0,0.0,0.0,0.0,0.0,0.0,0.0,0.0,0.0,0.0,0.0,0.0,0.0,0.0,0.0,0.0,0.0,0.0,0.0,0.0,0.0,0.0,0.0,0.0,0.0,0.0,0.0,0.0,0.0,0.0,0.0,0.0,0.0,0.0,0.0,0.0,0.0,0.0,0.0,0.0,0.0,0.0,0.0,0.0,0.0,0.0,0.0,0.0,0.0,0.0,0.0,0.0,0.0,0.0,0.0,0.0,0.0,0.0,0.0,0.0,0.0,0.0,0.0,0.0,0.0,0.0,0.0,0.0,0.0,0.0,0.0,0.0,0.0,0.0,0.0,0.0,0.0,0.0,0.0,0.0,0.0,0.0,0.0,0.0,0.0,0.0,0.0,0.0,0.0,0.0,0.0,0.0,0.0,0.0,0.0,0.0,0.0,0.0,0.0,0.0,0.0,0.0,0.0,0.0,0.0,0.0,0.0,0.0,0.0,0.0,0.0,0.0,0.0,0.0,0.0,0.0,0.0,0.0,0.0,0.0,0.0,0.0,0.0,0.0,0.0,0.0,0.0,0.0,0.0,0.0,0.0,0.0,0.0,0.0,0.0,0.0,0.0,0.0,0.0,0.0,0.0,0.0,0.0,0.0,0.0,0.0,0.0,0.0,0.0,0.0,0.0,0.0,0.0,0.0,0.0,0.0,0.0,0.0,0.0,0.0,0.0,0.0,0.0,0.0,0.0,0.0,0.0,0.0,0.0,0.0,0.0,0.0,0.0,0.0,0.0,0.0,0.0,0.0,0.0,0.0,0.0,0.0,0.0,0.0,0.0,0.0,0.0,0.0,0.0,0.0,0.0,0.0,0.0,0.0,0.0,0.0,0.0,0.0,0.0,0.0,0.0,0.0,0.0,0.0,0.0,0.0,0.0,0.0,0.0,0.0,0.0,0.0,0.0,0.0,0.0,0.0,0.0,0.0,0.0,0.0,0.0,0.0,0.0,0.0,0.0,0.0,0.0,0.0,0.0,0.0,0.0,0.0,0.0,0.0,0.0,0.0,0.0,0.0,0.0,0.0,0.0,0.0,0.0,0.0,0.0,0.0,0.0,0.0,0.0,0.0,0.0,0.0,0.0,0.0,0.0,0.0,0.0,0.0,0.0,0.0,0.0,0.0,0.0,0.0,0.0,0.0,0.0,0.0,0.0,0.0,0.0,0.0,0.0,0.0,0.0,0.0,0.0,0.0,0.0,0.0,0.0,0.0,0.0,0.0,0.0,0.0,0.0,0.0,0.0,0.0,0.0,0.0,0.0,0.0,0.0,0.0,0.0,0.0,0.0,0.0,0.0,0.0,0.0,0.0,0.0,0.0,0.0,0.0,0.0,0.0,0.0,0.0,0.0,0.0,0.0,0.0,0.0,0.0,0.0,0.0,0.0,0.0,0.0,0.0,0.0,0.0,0.0,0.0,0.0,0.0,0.0,0.0,0.0,0.0,0.0,0.0,0.0,0.0,0.0,0.0,0.0,0.0,0.0,0.0,0.0,0.0,0.0,0.0,0.0,0.0,0.0,0.0,0.0,0.0,0.0,0.0,0.0,0.0,0.0,0.0,0.0,0.0,0.0,0.0,0.0,0.0,0.0,0.0,0.0,0.0,0.0,0.0,0.0,0.0,0.0,0.0,0.0,0.0,0.0,0.0,0.0,0.0,0.0,0.0,0.0,0.0,0.0,0.0,0.0,0.0,0.0,0.0,0.0,0.0,0.0,0.0,0.0,0.0,0.0,0.0,0.0,0.0,0.0,0.0,0.0,0.0,0.0,0.0,0.0,0.0,0.0,0.0,0.0,0.0,0.0,0.0,0.0,0.0,0.0,0.0,0.0,0.0,0.0,0.0,0.0,0.0,0.0,0.0,0.0,0.0,0.0,0.0,0.0,0.0,0.0,0.0,0.0,0.0,0.0,0.0,0.0,0.0,0.0,0.0,0.0,0.0,0.0,0.0,0.0,0.0,0.0,0.0,0.0,1.0813,1.0295,0.0,0.0,0.0,0.0,0.0,0.0,0.0,0.0,0.0,0.0,0.0,0.0,0.0,0.0,0.0,0.0,0.0,0.0,0.0,0.0,0.0,0.0,0.0,0.0,0.0,0.0,0.0,0.0,0.0,0.0,0.0,0.0,0.0,0.0,0.0,0.0,0.0,2.1675,2.1675,2.1675,2.1675,2.1984,2.2451,2.2972,0.0,0.0,0.0,0.0,0.0,0.0,0.0,0.0,0.0,0.0,0.0,0.0,0.0,0.0,0.0,0.0,0.0,0.0,0.0,0.0,0.0,0.0,0.0,0.0,0.0,0.0,0.0,0.0,0.0,0.0,0.0,0.0,0.0,0.0,0.0,0.0,0.0,0.0,0.0,0.0,0.0,0.0,0.0,0.0,0.0,0.0,0.0,0.0,0.0,0.0,0.0,0.0,0.0,0.0,0.0,0.0,0.0,0.0,0.0,0.0,0.0,0.0,0.0,0.0,0.0,0.0,0.0,0.0,0.0,0.0,1.1591,1.1091,0.0,0.0,0.0,0.0,0.0,0.0,0.0,0.0,0.0,0.0,0.0,0.0,0.0,0.0,0.0,0.0,0.0,0.0,0.0,0.0,0.0,0.0,0.0,2.2992,2.2974,2.2885,2.2382,2.2033,0.0,0.0,0.0,0.0,0.0,0.0,0.0,2.1243,2.1213,2.1183,2.1055,2.0991,2.0991,2.0991,2.1519,2.2411,2.275,0.0,0.0,0.0,0.0,0.0,0.0,0.0,0.0,0.0,0.0,0.0,0.0,0.0,0.0,0.0,0.0,0.0,0.0,0.0,0.0,0.0,0.0,0.0,0.0,0.0,0.0,0.0,0.0,0.0,0.0,0.0,0.0,0.0,0.0,0.0,0.0,0.0,0.0,0.0,0.0,0.0,0.0,0.0,0.0,0.0,0.0,0.0,0.0,0.0,0.0,0.0,0.0,0.0,0.0,0.0,0.0,0.0,0.0,0.0,0.0,0.0,0.0,0.0,1.419,1.3956,1.3933,1.3454,1.3162,1.3017,1.2423,1.2012,1.1765,1.1191,0.0,0.0,0.0,0.0,0.0,0.0,0.0,0.0,0.0,0.0,0.0,0.0,0.0,0.0,0.0,0.0,0.0,0.0,0.0,0.0,0.0,2.2992,2.2848,2.2443,2.2313,2.2132,2.176,0.0,0.0,0.0,0.0,0.0,2.2146,2.2146,2.2034,2.1885,2.1294,2.0991,2.0991,2.0991,2.1086,2.1227,2.1624,2.2172,2.2772,0.0,0.0,0.0,0.0,0.0,0.0,0.0,0.0,0.0,0.0,0.0,0.0,0.0,0.0,0.0,0.0,0.0,0.0,0.0,0.0,0.0,0.0,0.0,0.0,0.0,0.0,0.0,0.0,0.0,0.0,0.0,0.0,0.0,0.0,0.0,0.0,0.0,0.0,0.0,0.0,0.0,2.0894,2.035,0.0,0.0,0.0,0.0,0.0,0.0,0.0,0.0,0.0,0.0,0.0,0.0,0.0,1.6849,1.6185,1.5796,1.531,1.4698,1.4629,1.4583,1.4583,1.4491,1.4167,1.3674,1.3579,0.0,1.1789,1.169,0.0,0.0,0.0,0.0,0.0,0.0,0.0,0.0,0.0,0.0,0.0,0.0,0.0,0.0,0.0,0.0,0.0,0.0,0.0,0.0,0.0,2.3323,2.3243,2.3071,2.2717,2.2455,2.2254,2.2073,0.0,0.0,0.0,2.1959,2.1959,2.1959,2.1923,2.1843,2.1535,2.1381,2.1381,2.1381,2.1507,2.1725,2.1918,2.2021,2.2088,2.2088,0.0,0.0,0.0,0.0,0.0,0.0,0.0,0.0,0.0,0.0,0.0,0.0,0.0,0.0,0.0,0.0,0.0,0.0,0.0,0.0,0.0,0.0,0.0,0.0,0.0,0.0,0.0,0.0,0.0,0.0,0.0,0.0,0.0,0.0,0.0,0.0,0.0,0.0,0.0,2.1659,2.0911,2.0958,2.1164,2.1305,0.0,0.0,0.0,0.0,0.0,0.0,0.0,0.0,0.0,1.8588,1.7733,1.6995,1.64,1.651,1.6249,1.5661,1.5957,1.6123,1.6149,1.5448,1.5029,1.4746,1.446,1.3958,1.3396,1.3058,1.2914,1.2962,0.0,0.0,0.0,0.0,1.2632,1.2295,0.0,0.0,0.0,0.0,0.0,0.0,0.0,0.0,0.0,0.0,0.0,0.0,2.3414,2.3363,2.3297,2.3113,2.2702,2.2531,2.2681,2.2236,2.201,2.2173,2.2173,2.2173,2.2173,2.2024,2.1963,2.1949,2.1963,2.2024,2.2173,2.2173,2.2355,2.2631,2.2478,2.2151,2.1691,2.1691,2.1855,2.2132,0.0,0.0,0.0,0.0,0.0,0.0,0.0,0.0,0.0,0.0,0.0,0.0,0.0,0.0,0.0,0.0,0.0,0.0,0.0,0.0,0.0,0.0,0.0,0.0,0.0,0.0,0.0,0.0,0.0,0.0,0.0,0.0,0.0,0.0,0.0,0.0,0.0,2.1826,2.1188,2.145,2.1513,2.1531,0.0,0.0,0.0,0.0,0.0,0.0,1.9989,1.9893,1.9664,1.9322,1.8479,1.786,1.7534,1.786,1.7795,1.7362,1.7741,1.7948,1.7986,1.6907,1.6338,1.6148,1.5613,1.5291,1.5085,1.4326,1.4027,1.4027,1.4027,1.3671,1.3138,1.3138,1.2763,1.2302,0.0,0.0,0.0,0.0,0.0,0.0,0.0,0.0,0.0,0.0,0.0,2.3363,2.2807,2.274,2.2483,2.1852,2.1777,2.2035,2.2665,2.2682,2.2899,2.3468,2.349,2.349,2.349,2.2942,2.2638,2.2653,2.2638,2.2942,2.349,2.349,2.3511,2.3503,2.2954,2.2432,2.1966,2.1966,2.1843,2.1627,2.1642,0.0,0.0,0.0,0.0,0.0,0.0,0.0,0.0,0.0,0.0,0.0,0.0,0.0,0.0,0.0,0.0,0.0,0.0,0.0,0.0,0.0,0.0,0.0,0.0,0.0,0.0,0.0,0.0,0.0,0.0,0.0,0.0,0.0,0.0,0.0,0.0,0.0,0.0,2.1525,2.1564,0.0,0.0,0.0,0.0,2.2223,2.1794,2.1288,2.0767,2.0566,2.0438,2.04,2.0128,2.0182,2.0666,2.0203,1.9925,1.9909,1.9931,1.9958,1.9943,1.9248,1.8633,1.8052,1.7436,1.686,1.6243,1.5108,1.4652,1.4652,1.4652,1.4283,1.3745,1.3745,1.3602,1.3426,0.0,0.0,0.0,0.0,0.0,0.0,0.0,0.0,2.361,2.361,2.3253,2.3076,2.3253,2.2552,2.2109,2.2323,2.1946,2.1805,2.2039,2.2039,2.2346,2.2987,2.262,2.2386,2.2386,2.2936,2.3022,2.266,2.2997,2.3267,2.3465,2.3465,2.3707,2.4189,2.3932,2.3778,2.3621,2.263,2.2044,2.1859,2.1859,2.1854,0.0,0.0,0.0,0.0,0.0,0.0,0.0,0.0,0.0,0.0,0.0,0.0,0.0,0.0,0.0,0.0,0.0,0.0,0.0,0.0,0.0,0.0,0.0,0.0,0.0,0.0,0.0,0.0,0.0,0.0,0.0,0.0,0.0,0.0,0.0,0.0,0.0,2.2242,2.2068,0.0,2.2046,2.233,2.2528,2.2563,2.2568,2.2491,2.234,2.2516,2.2507,2.225,2.1808,2.1535,2.1416,2.1235,2.0966,2.0612,2.0944,2.1119,2.1121,2.053,2.0134,1.9925,1.9345,1.8737,1.8099,1.769,1.6626,1.5287,1.5287,1.5108,1.4884,1.4884,1.4775,1.4594,0.0,0.0,0.0,0.0,0.0,0.0,0.0,0.0,2.3545,2.3319,2.2942,2.2762,2.2935,2.2016,2.1595,2.1997,2.1448,2.1159,2.1376,2.1592,2.1899,2.2346,2.2118,2.1894,2.1651,2.2871,2.3376,2.3173,2.3739,2.4202,2.4641,2.4911,2.5311,2.5782,2.5633,2.5594,2.5518,2.4052,2.303,2.2402,2.1963,2.1759,2.1725,0.0,0.0,0.0,0.0,0.0,0.0,0.0,0.0,0.0,0.0,0.0,0.0,0.0,0.0,0.0,0.0,0.0,0.0,0.0,0.0,0.0,0.0,0.0,0.0,0.0,0.0,0.0,0.0,0.0,0.0,0.0,0.0,0.0,0.0,0.0,2.291,2.3385,2.3094,2.3034,2.3371,2.3515,2.3636,2.3697,2.3858,2.392,2.3834,2.4164,2.4166,2.374,2.3474,2.3211,2.2879,2.2879,2.2697,2.2344,2.2531,2.2716,2.2841,2.1936,2.1609,2.1737,2.0985,2.0278,1.9705,1.9705,1.867,1.7087,1.6645,1.6313,1.6096,1.6096,1.5997,1.583,0.0,0.0,0.0,0.0,0.0,0.0,0.0,2.361,2.3363,2.2785,2.2672,2.2415,2.1781,2.1137,2.0771,2.0795,2.0194,2.0067,2.0721,2.1304,2.1639,2.1667,2.2297,2.2303,2.1641,2.2824,2.369,2.4303,2.4879,2.582,2.7003,2.7824,2.8254,2.8282,2.7823,2.7619,2.7555,2.6243,2.4805,2.331,2.1929,2.1645,2.1966,0.0,0.0,0.0,0.0,0.0,0.0,0.0,0.0,0.0,0.0,0.0,0.0,0.0,0.0,0.0,0.0,0.0,0.0,0.0,0.0,0.0,0.0,0.0,0.0,0.0,0.0,0.0,0.0,0.0,0.0,0.0,0.0,0.0,2.4479,2.4229,2.4218,2.4852,2.4647,2.4761,2.5557,2.5605,2.5641,2.5664,2.5689,2.5522,2.5185,2.5381,2.5311,2.4908,2.5116,2.5278,2.5259,2.524,2.5221,2.5202,2.4672,2.4712,2.5144,2.3498,2.3047,2.3468,2.2266,2.1449,2.0973,2.0973,2.0634,2.002,1.874,1.7894,1.7363,1.7363,1.725,1.7111,0.0,0.0,0.0,0.0,0.0,0.0,2.361,2.361,2.3363,2.2785,2.2276,2.1899,2.1734,2.0744,2.027,2.0746,2.0194,1.9888,2.0042,2.0245,2.0527,2.094,2.2397,2.283,2.2102,2.3291,2.3974,2.4091,2.4628,2.5397,2.6363,2.6607,2.7298,2.8367,2.8244,2.851,2.8963,2.7615,2.6819,2.6217,2.3894,2.2683,2.2163,0.0,0.0,0.0,0.0,0.0,0.0,0.0,0.0,0.0,0.0,0.0,0.0,0.0,0.0,0.0,0.0,0.0,0.0,0.0,0.0,0.0,0.0,0.0,0.0,0.0,0.0,0.0,0.0,0.0,0.0,0.0,0.0,2.5513,2.506,2.4599,2.4575,2.5301,2.5333,2.5431,2.5841,2.612,2.635,2.6693,2.7163,2.7316,2.7155,2.7416,2.7402,2.7043,2.6831,2.6522,2.6147,2.5895,2.558,2.5202,2.5047,2.5067,2.5182,2.4318,2.4017,2.4091,2.3398,2.2759,2.2209,2.2209,2.1846,2.1153,2.0007,1.9455,1.9261,1.9261,1.8809,1.818,0.0,0.0,0.0,0.0,0.0,0.0,2.361,2.361,2.3363,2.2785,2.2137,2.1805,2.2086,2.0744,2.0169,2.1088,2.0346,1.9811,1.9811,2.0037,2.0546,2.1399,2.2609,2.3072,2.2648,2.3795,2.4484,2.4682,2.4983,2.5521,2.6278,2.6606,2.7461,2.8647,2.8742,2.9227,2.9894,2.8873,2.8124,2.7465,2.5908,2.4294,2.2807,2.2317,2.2213,2.2313,2.2081,2.2247,2.2533,2.2656,0.0,0.0,0.0,0.0,0.0,0.0,0.0,0.0,0.0,0.0,0.0,0.0,0.0,0.0,0.0,0.0,0.0,0.0,0.0,0.0,0.0,0.0,0.0,0.0,2.5964,2.6284,2.6552,2.6036,2.6036,2.7215,2.7361,2.7695,2.8513,2.8758,2.8991,2.9222,2.9593,2.9673,2.9331,2.9207,2.8897,2.8401,2.7836,2.733,2.6836,2.6623,2.6299,2.5819,2.5617,2.5635,2.5801,2.5086,2.4871,2.5028,2.4266,2.3721,2.3398,2.3187,2.2846,2.2398,0.0,0.0,0.0,0.0,2.0232,1.9529,0.0,0.0,0.0,0.0,0.0,0.0,2.361,2.361,2.3363,2.2785,2.2184,2.1969,2.2443,2.0942,2.032,2.14,2.0446,1.9836,1.9886,2.0465,2.1288,2.2424,2.2941,2.3271,2.3371,2.4349,2.5159,2.5686,2.5686,2.603,2.6645,2.7397,2.8168,2.9006,2.9275,2.9813,3.0441,2.9926,2.9022,2.7914,2.7764,2.6147,2.3803,2.3468,2.2879,2.2281,2.2459,2.2442,2.2367,2.2581,0.0,0.0,0.0,0.0,0.0,0.0,0.0,0.0,0.0,0.0,0.0,0.0,0.0,0.0,0.0,0.0,0.0,0.0,0.0,0.0,0.0,0.0,0.0,0.0,2.6453,2.688,2.8358,2.8131,2.8335,2.9763,3.0028,3.0641,3.2088,3.2239,3.2239,3.2239,3.2239,3.1984,3.137,0.0,0.0,0.0,0.0,2.7882,2.7407,2.7396,2.7162,2.6775,2.635,2.6333,2.6674,2.5728,2.5542,2.5943,2.493,2.4522,2.4595,2.4097,2.3902,2.3789,2.2374,2.1805,2.1805,2.1734,2.1304,2.0795,0.0,0.0,0.0,0.0,0.0,0.0,2.361,2.361,2.3363,2.2785,2.2603,2.2161,2.1286,2.082,2.0497,2.0194,1.994,2.0012,2.049,2.1043,2.1826,2.2896,2.3538,2.423,2.5109,2.5335,2.5711,2.6323,2.6323,2.6722,2.7471,2.7637,2.8168,2.9034,2.9791,3.0216,3.0337,3.0328,3.0193,2.9834,2.8816,2.7111,2.5076,2.3988,2.3661,2.3713,2.2533,2.2297,2.2544,2.242,2.2527,2.2708,2.2784,2.3033,0.0,0.0,0.0,0.0,0.0,0.0,0.0,0.0,0.0,0.0,0.0,0.0,0.0,0.0,0.0,0.0,0.0,0.0,0.0,2.7686,2.8251,2.8686,2.9028,3.0083,3.0818,3.0755,3.1325,3.1934,3.2483,3.2537,3.2537,3.2537,3.2537,3.2266,3.173,3.1559,3.1009,3.0002,2.9515,2.8932,2.8192,2.7904,2.7592,2.7194,2.7099,0.0,2.6674,2.6104,2.5906,2.5961,2.5316,2.5385,2.5926,2.5826,2.5832,2.572,2.3411,2.2512,2.2438,2.1899,2.1304,2.087,0.0,0.0,0.0,0.0,0.0,0.0,2.361,2.361,2.3471,2.3187,2.2875,2.2581,2.2253,2.1643,2.1137,2.0767,2.0169,2.0162,2.1043,2.137,2.2121,2.3471,2.4104,2.4782,2.5586,2.6163,2.6625,2.6901,2.7178,2.7516,2.791,2.791,2.8211,2.8795,2.9668,3.0156,3.033,3.0776,3.0821,3.0432,2.9475,2.8308,2.6931,2.5255,2.4485,2.4143,2.2943,2.2403,2.2313,2.23,2.2212,2.2186,2.2433,2.2704,2.2984,0.0,0.0,0.0,0.0,0.0,0.0,0.0,0.0,0.0,0.0,0.0,0.0,0.0,0.0,2.6201,0.0,0.0,2.7695,2.8631,2.9069,2.9596,3.0415,3.1646,3.232,3.1988,3.2668,3.3402,3.399,3.4036,3.4036,3.4036,3.4036,3.3867,3.3478,3.2927,3.2183,3.1241,3.0344,2.9489,2.8603,2.8311,2.796,2.7607,2.7607,2.7502,2.7303,2.7231,2.7199,2.7164,2.685,2.6906,2.7244,2.6953,2.6725,2.6373,2.5091,2.4432,2.4118,2.3786,2.3283,2.2797,0.0,0.0,0.0,0.0,0.0,0.0,0.0,2.361,2.361,2.361,2.3165,2.3009,2.3363,2.2529,2.1805,2.1544,2.0668,2.05,2.1295,2.1557,2.2365,2.3929,2.4531,2.5109,2.5762,2.6666,2.7118,2.7118,2.757,2.7795,2.7795,2.7795,2.8017,2.8396,2.9263,2.9919,3.0359,3.1161,3.1182,3.0642,2.9921,2.9292,2.8547,2.6422,2.5153,2.4399,2.328,2.2575,2.221,2.2185,2.1897,2.1672,2.2166,2.2378,2.2525,2.2656,2.2898,0.0,0.0,0.0,0.0,0.0,0.0,0.0,0.0,0.0,2.5351,2.5543,2.6265,2.697,2.7168,2.7773,2.854,2.9469,2.979,3.036,3.1724,3.2789,3.3375,3.3214,3.3966,3.4738,3.543,3.55,3.5514,3.5509,3.552,3.5398,3.5122,3.4232,3.3318,3.2468,3.1191,3.0047,2.9163,2.8737,2.836,2.801,2.801,2.8039,2.8145,2.8402,2.8564,2.8624,2.8572,2.858,2.8542,2.8144,2.7678,2.7237,2.7127,2.668,2.6109,2.5751,2.523,2.4742,0.0,0.0,0.0,0.0,0.0,0.0,0.0,0.0,2.361,2.361,2.3545,2.3319,2.2852,2.2672,2.2114,2.1017,2.1256,2.1282,2.0822,2.1738,2.2796,2.396,2.4531,2.531,2.6373,2.6524,2.6575,2.6575,2.665,2.6675,2.6675,2.6675,2.7105,2.7815,2.8697,2.9529,3.0359,3.1161,3.1451,3.1271,3.0073,2.9562,2.9175,2.6602,2.5548,2.5183,2.3139,2.2603,2.2762,2.1967,2.1627,2.1672,2.2166,2.2046,2.1845,2.2512,2.2733,2.2898,2.3533,2.3935,2.4182,2.4454,2.4485,2.4609,0.0,0.0,2.6314,2.6589,2.7314,2.8139,2.8871,2.9107,2.943,3.0314,3.1123,3.1678,3.1873,3.331,3.4364,3.4305,3.4986,3.5477,3.5514,3.55,3.5528,3.5593,3.5515,3.5416,3.521,3.5015,3.4393,3.328,3.22,3.1246,3.0389,2.9406,2.8737,2.8337,2.8337,2.8551,2.8982,2.9009,2.9191,2.9486,2.9767,2.9897,2.9892,2.9959,2.9941,2.9835,2.9261,2.8707,2.795,2.6247,2.523,2.4791,0.0,0.0,0.0,0.0,0.0,0.0,0.0,0.0,0.0,2.361,2.361,2.3493,2.3231,2.2897,2.2489,2.1927,2.1781,2.1718,2.1793,2.2613,2.339,2.4034,2.4653,2.5314,2.5971,2.6323,2.665,2.6977,2.7304,2.7419,2.7454,2.7934,2.8178,2.8245,2.9624,3.0247,3.033,3.0717,3.0913,3.0821,2.9535,2.8783,2.8184,2.5884,2.4784,2.4244,2.2815,2.2183,0.0,2.1678,2.1445,2.1322,2.1764,2.1764,2.1657,2.196,2.2248,2.2607,2.3248,2.3642,2.3996,0.0,2.4681,2.5132,2.5529,2.6269,2.6969,2.7373,2.8113,2.8793,2.9175,2.9648,3.0153,0.0,3.0951,3.1557,3.2617,3.3391,3.4227,3.5212,3.5608,3.5748,3.5636,3.5621,3.5645,3.5659,3.5581,3.5537,3.5421,3.5231,3.4721,3.3899,3.2974,3.195,3.0847,3.0539,3.0064,2.9454,2.9904,3.0241,3.0437,3.0686,3.0955,3.1317,3.1429,3.1338,3.1099,3.1166,3.0818,3.0288,3.0021,2.9563,2.8887,2.7696,2.6916,2.6426,0.0,0.0,0.0,0.0,0.0,0.0,0.0,0.0,0.0,0.0,2.361,2.361,2.361,2.3209,2.2875,2.2717,2.2415,2.2259,2.2373,2.3106,2.3573,2.3612,2.4402,2.4931,2.5134,2.5711,2.6248,2.6615,2.7017,2.7299,2.7519,2.8126,2.8432,2.8471,2.9769,3.0242,3.0105,3.0208,3.0133,2.9894,2.8757,2.7944,2.7106,2.5106,2.3939,2.3203,2.2219,2.1713,2.1475,2.1311,2.1134,2.1071,2.1476,2.1521,2.1476,2.1735,2.207,2.2514,2.308,2.3598,0.0,2.4461,2.5167,2.5894,2.6266,2.7032,2.7766,2.8148,2.8896,2.9462,2.9525,3.007,3.0533,3.0621,3.0895,3.1583,3.3161,3.3593,3.4295,3.5766,3.5918,3.5908,3.5792,3.5713,3.5736,3.5758,3.5671,3.5645,3.5645,3.54,3.5031,3.4584,3.3675,3.2758,3.1791,3.1678,3.1293,3.0646,3.1236,3.1593,3.1739,3.2145,3.246,3.2699,3.2568,3.223,3.1789,3.1824,3.1321,3.0539,3.0539,3.0171,2.9585,2.9157,2.8599,2.8076,0.0,0.0,0.0,0.0,0.0,0.0,0.0,0.0,0.0,0.0,0.0,0.0,0.0,2.3588,2.3319,2.274,2.3209,2.3024,2.1809,2.2823,2.3178,2.2457,2.3531,2.4098,2.4029,2.4582,2.485,2.4876,2.4876,2.5269,2.598,2.598,2.6813,2.8312,2.834,2.885,2.9597,2.9624,2.9235,2.8607,2.7914,2.7225,2.6393,2.4388,2.3251,2.2553,2.1216,2.1288,2.1801,2.0717,2.0649,2.1071,2.1476,2.1337,2.1166,2.2017,2.246,2.2759,2.3105,0.0,2.4943,2.5277,2.6105,2.6925,2.711,2.8002,2.8796,2.9016,2.9775,3.0346,3.0352,3.0433,3.0483,3.0492,3.1312,3.2278,3.3179,3.4098,3.5,3.5898,3.6016,3.6015,0.0,3.5808,3.5758,3.5896,3.5766,3.568,3.568,3.5615,3.5548,3.5468,3.4374,3.3775,3.3707,3.268,3.2051,3.1763,3.1763,3.2066,3.257,3.298,3.3181,3.3136,3.2715,3.223,3.1824,3.1877,3.1617,3.1171,3.1171,3.0818,3.0288,3.0267,2.9848,2.9248,0.0,0.0,0.0,0.0,0.0,0.0,0.0,0.0,0.0,0.0,0.0,0.0,0.0,0.0,0.0,0.0,2.3471,2.3428,2.298,2.3759,2.3896,2.3178,2.3933,2.4096,2.3557,2.3706,2.3752,2.3672,2.4048,2.4663,2.538,2.6327,2.7298,2.8311,2.8435,2.8667,2.8876,2.8004,2.747,2.72,2.6542,2.5884,2.5143,2.4029,2.2951,2.1944,0.0,2.1183,2.1229,2.0527,2.0615,2.0975,2.0781,2.0878,2.1166,2.2032,2.2717,2.324,2.3558,0.0,2.5373,2.5717,2.6637,2.7557,2.7755,2.8501,2.9256,2.9444,2.9718,2.9946,2.9946,3.007,3.0225,3.0336,3.0753,3.1629,3.3158,3.3632,3.4375,3.582,3.6016,0.0,0.0,0.0,0.0,3.5972,3.5797,3.5687,3.5687,3.5576,3.5522,3.55,3.4979,3.4377,3.3791,3.3847,3.3423,3.2609,3.2945,3.3226,3.339,3.3538,3.3592,3.3578,3.3415,3.3136,3.2711,3.2763,3.2281,3.1585,3.1585,3.1317,3.0898,3.0898,3.0777,3.0393,0.0,0.0,0.0,0.0,0.0,0.0,0.0,0.0,0.0,0.0,0.0,0.0,0.0,0.0,0.0,0.0,0.0,2.361,2.361,2.3999,2.3925,2.3252,2.3808,2.3803,2.3071,2.3231,2.3277,2.3192,2.3609,2.4142,2.4911,2.5799,2.6633,2.7336,2.748,2.753,2.747,2.6602,2.6093,2.5854,2.5435,2.4844,2.4156,2.352,2.2695,0.0,2.1455,2.1266,2.115,2.0683,2.0862,2.1166,2.0846,2.1102,2.1635,2.2454,2.3038,2.3532,2.4129,2.5106,2.6042,2.6344,2.733,2.8305,2.8525,2.8984,2.9464,2.9671,2.9686,2.9686,2.9686,2.9893,3.0107,3.023,3.0467,3.1252,3.3118,3.3356,3.4022,3.5781,3.6016,3.6016,0.0,0.0,0.0,3.6016,3.5876,3.5785,3.5691,3.5626,3.5552,3.5507,3.5346,3.4979,3.442,3.4802,3.4519,3.3612,3.3858,3.3889,3.3807,3.3807,3.3807,3.3807,3.3807,3.3564,3.3181,3.3181,3.2825,3.224,3.224,3.2113,3.2002,3.2002,3.2002,3.1705,0.0,0.0,0.0,0.0,0.0,0.0,0.0,0.0,0.0,0.0,0.0,0.0,0.0,0.0,0.0,0.0,0.0,0.0,2.361,2.361,2.3341,2.2762,2.3224,2.323,2.2619,2.3098,2.3348,2.3296,2.3324,2.3735,2.4464,2.4492,2.4888,2.5615,2.5585,2.5555,2.5555,2.5501,2.5113,2.4545,2.4567,2.42,2.3563,2.2975,2.2595,2.2276,2.1587,2.1467,2.1536,2.1134,2.1244,2.1567,2.1582,2.193,2.2454,2.3207,2.3444,2.3735,2.4755,2.5897,2.6881,2.7171,2.8106,2.9044,2.9339,2.9363,2.9434,2.9635,2.9651,2.9651,2.9651,0.0,3.0181,3.0186,3.0419,3.1237,3.2976,3.3257,3.3972,0.0,0.0,0.0,0.0,0.0,0.0,3.6016,0.0,3.5884,3.5694,3.5677,3.5615,3.5514,3.55,3.55,3.55,3.5479,3.5207,3.4733,3.4349,3.408,3.386,3.3847,3.3834,3.3834,3.3844,3.3651,3.3283,3.3319,3.3249,3.313,3.313,3.3255,3.3473,3.3431,3.3431,3.3144,0.0,0.0,0.0,0.0,0.0,0.0,0.0,0.0,0.0,0.0,0.0,0.0,0.0,0.0,0.0,0.0,0.0,0.0,2.361,2.361,2.3545,2.3363,2.3518,2.3288,2.2694,2.2818,2.2639,2.2131,2.2575,2.3168,2.3928,2.4316,2.4888,2.5585,2.5083,2.4844,2.4814,2.4328,2.3999,2.3871,2.4271,2.4368,2.4164,2.3842,2.338,2.283,2.2406,2.197,2.1536,0.0,0.0,0.0,0.0,2.205,2.27,2.3234,2.4188,2.5083,2.5381,2.6285,2.7247,2.7621,2.8128,2.8639,2.9033,2.91,2.9123,2.9163,2.9174,2.9174,2.9174,2.9542,0.0,2.9872,3.0288,0.0,3.2155,3.2921,0.0,3.4883,0.0,3.6016,3.6016,3.6016,0.0,0.0,3.5869,3.5769,3.5687,3.5601,3.5554,3.55,3.55,3.55,3.55,3.5086,3.4935,3.499,3.4449,3.4318,3.4453,3.4225,3.4117,3.413,3.4539,3.4618,3.4585,3.5243,3.5302,3.4946,3.4946,3.4782,3.4457,3.411,3.3987,3.3839,0.0,0.0,0.0,0.0,0.0,0.0,0.0,0.0,0.0,0.0,0.0,0.0,0.0,0.0,0.0,0.0,0.0,0.0,0.0,2.373,2.361,2.361,2.361,2.3428,2.3098,2.3098,2.292,2.2523,2.2873,2.3259,2.3655,2.3961,2.4322,2.4717,2.4306,2.431,2.4489,2.4095,2.411,0.0,0.0,2.4273,2.4217,2.3782,2.3316,2.2863,2.2655,2.2284,0.0,0.0,0.0,2.1615,2.1823,2.2412,2.314,2.3688,0.0,2.5709,2.6223,2.6961,2.7631,2.8016,2.8399,2.8725,2.894,2.8987,2.8987,2.8987,2.8987,0.0,2.8987,2.9387,0.0,0.0,0.0,0.0,3.1809,3.2753,3.3708,0.0,3.5469,0.0,3.6016,3.6016,3.6016,0.0,3.5866,3.5764,3.5687,3.5591,3.5541,3.55,3.55,3.55,3.55,3.5207,3.5051,3.5115,3.4765,3.476,3.5049,3.4878,3.4897,3.5153,3.5432,3.5555,3.5591,3.6083,3.6228,3.6069,3.6069,3.6019,3.5863,3.5351,3.5188,3.5128,0.0,0.0,0.0,0.0,0.0,0.0,0.0,0.0,0.0,0.0,0.0,0.0,0.0,0.0,0.0,0.0,0.0,0.0,0.0,0.0,2.3773,2.3709,2.3709,2.3636,2.346,2.346,2.343,2.334,2.334,2.334,2.334,2.334,2.3443,2.3567,2.3413,2.373,2.4367,2.4193,2.441,2.4862,2.4292,2.4035,2.3971,0.0,2.2897,2.2699,2.26,2.2463,0.0,0.0,2.2321,2.2313,2.2429,2.2979,2.3769,2.4498,2.531,2.6136,2.7115,2.7651,2.7982,2.8311,2.8639,2.8929,2.8975,2.8987,2.8987,2.8987,0.0,2.8987,2.8987,2.9387,2.9695,2.9729,0.0,3.0816,3.161,3.265,3.3622,3.4414,3.5391,3.6016,3.6016,3.6016,3.6016,3.6016,3.5921,3.5831,3.573,3.5645,3.5575,3.5507,3.55,3.55,3.55,3.5556,3.5507,3.5318,3.5335,3.5503,3.5773,3.5689,3.5897,3.6374,3.6442,3.645,3.645,3.656,3.6754,3.6985,3.6985,3.7145,3.7323,3.6786,3.662,3.66,0.0,0.0,0.0,0.0,0.0,0.0,0.0,0.0,0.0,0.0,2.6641,0.0,0.0,0.0,0.0,0.0,0.0,0.0,0.0,0.0,0.0,2.4287,2.4266,2.3824,2.2882,2.2853,2.2583,2.2024,2.2024,2.2024,2.2024,2.2024,2.2536,2.3383,2.2455,2.2834,2.4081,2.3079,2.2955,2.3415,2.3645,2.3783,2.3719,2.3432,0.0,0.0,2.2584,0.0,0.0,2.2581,2.2473,2.2415,2.3004,2.393,2.4939,2.5705,2.6655,2.7549,2.7747,2.7855,2.7982,2.8311,2.8464,2.859,2.8929,2.8987,0.0,0.0,2.8987,2.8987,2.8987,2.9387,2.9708,2.9779,0.0,0.0,0.0,0.0,3.3437,0.0,0.0,0.0,0.0,0.0,0.0,0.0,3.5855,3.57,3.5687,3.5593,3.5495,3.55,3.55,3.55,3.55,3.5959,3.6249,3.6411,3.6654,3.6886,3.7138,3.6691,3.6558,3.6679,3.7094,3.7309,3.7345,3.7991,3.8313,3.8361,3.8361,3.8387,3.8385,3.7825,3.7649,3.7596,0.0,0.0,0.0,0.0,0.0,0.0,0.0,0.0,0.0,0.0,2.7334,2.7162,0.0,0.0,0.0,0.0,0.0,0.0,0.0,0.0,0.0,0.0,2.4445,2.3994,2.3448,2.3049,2.269,2.2399,0.0,2.2399,2.2399,2.2399,2.2686,2.3192,2.2636,2.2933,2.3835,2.3252,2.3315,2.3786,2.3616,2.3528,2.3492,0.0,0.0,0.0,0.0,0.0,0.0,0.0,2.25,2.2609,2.314,2.423,2.537,2.5729,2.6803,2.794,2.8098,2.8139,2.8268,2.8602,2.8725,2.8761,2.8952,0.0,0.0,0.0,2.8987,2.8987,2.8987,2.9387,0.0,0.0,0.0,0.0,0.0,0.0,0.0,0.0,0.0,0.0,0.0,0.0,0.0,3.6016,3.6233,3.6186,3.5723,3.5571,3.5692,3.6115,3.6115,3.6346,3.6815,3.7072,3.7264,3.7385,3.7327,3.7516,3.7892,3.7517,3.7495,3.7747,3.7993,3.8102,3.8138,3.8542,3.8689,3.8689,3.8689,3.8689,3.8643,3.8099,3.7893,3.7859,0.0,0.0,0.0,0.0,0.0,0.0,0.0,2.936,2.8876,2.8244,2.8018,2.7666,2.7019,2.6938,2.6906,0.0,0.0,0.0,0.0,0.0,0.0,0.0,0.0,0.0,0.0,0.0,0.0,2.2582,2.2582,0.0,0.0,0.0,0.0,0.0,2.2681,2.2974,2.362,2.3358,2.3563,0.0,0.0,2.324,0.0,0.0,0.0,0.0,0.0,0.0,0.0,0.0,2.273,2.2972,2.3294,2.4409,2.5676,2.5806,2.6939,2.8188,2.8464,2.854,2.8602,2.8917,2.8987,2.8987,2.8987,2.8987,0.0,0.0,2.9078,2.91,2.913,2.9504,2.9771,0.0,3.0381,0.0,0.0,0.0,0.0,0.0,0.0,0.0,0.0,0.0,0.0,3.6209,3.6869,3.6914,3.6241,3.6072,3.6346,3.6962,3.6962,3.7315,3.8007,3.82,3.8277,3.8277,3.8129,3.8279,3.8693,3.8377,3.8451,3.8788,3.8788,3.8765,3.8689,3.8689,3.8689,3.8689,3.8689,3.8689,3.8643,3.8234,3.8065,3.8065,0.0,0.0,0.0,0.0,0.0,0.0,0.0,3.0263,2.9053,2.9018,2.8351,2.7869,2.7811,2.7797,2.7651,0.0,0.0,0.0,0.0,0.0,0.0,0.0,0.0,0.0,0.0,0.0,0.0,2.1167,2.1167,0.0,0.0,0.0,0.0,0.0,0.0,2.2034,2.3369,2.2258,0.0,0.0,0.0,0.0,0.0,0.0,0.0,0.0,0.0,0.0,0.0,0.0,0.0,2.3653,2.4006,2.5016,2.6189,2.6837,0.0,0.0,2.894,2.894,2.8952,2.8975,2.8987,2.8987,2.8987,0.0,0.0,2.9291,2.9343,2.9424,2.9616,2.9821,2.9997,3.0132,3.1012,3.1767,0.0,0.0,0.0,0.0,0.0,0.0,0.0,0.0,0.0,3.696,3.763,3.7941,3.7795,3.7791,3.7815,3.7892,3.7892,3.793,3.8007,3.8777,3.9169,3.92,3.963,3.9871,3.9918,3.9596,3.9289,3.9077,3.9077,3.8919,3.8689,3.8689,3.8689,3.8689,3.8689,3.8689,3.8673,3.8643,3.8627,3.8627,0.0,0.0,0.0,0.0,0.0,0.0,0.0,3.1319,3.0318,2.9834,2.906,2.8563,2.8563,2.8563,2.8321,0.0,0.0,0.0,0.0,0.0,0.0,0.0,0.0,0.0,0.0,0.0,2.23,2.2026,2.2249,0.0,0.0,0.0,0.0,0.0,0.0,2.2689,2.3237,2.276,0.0,0.0,0.0,0.0,0.0,0.0,0.0,0.0,0.0,0.0,0.0,0.0,0.0,0.0,2.3847,2.473,0.0,0.0,2.7503,2.8374,2.8877,2.8987,2.8987,2.8987,2.8987,2.9033,2.9211,0.0,2.9301,2.9523,2.9579,2.9607,2.9706,2.9869,3.0188,3.0769,3.1383,3.2176,3.3234,0.0,0.0,0.0,0.0,0.0,0.0,0.0,3.7296,3.8497,3.8848,3.9138,3.9492,3.8546,3.8238,3.8777,3.8777,3.9008,3.9515,3.9861,4.0015,4.0008,4.0089,4.012,4.011,3.9754,3.9414,3.9093,3.9093,3.8947,3.8689,3.8689,3.8689,3.8689,3.8689,3.8689,3.8689,3.8689,3.8689,3.8689,0.0,0.0,0.0,0.0,0.0,0.0,3.3023,3.2265,3.1458,3.065,2.9843,2.9244,2.9023,2.8987,2.881,2.8268,0.0,0.0,0.0,0.0,0.0,0.0,0.0,0.0,0.0,0.0,2.286,2.286,2.3081,2.32,0.0,0.0,2.32,2.32,0.0,0.0,0.0,0.0,0.0,0.0,0.0,0.0,0.0,0.0,0.0,0.0,0.0,0.0,0.0,0.0,0.0,0.0,0.0,0.0,2.5326,0.0,2.7227,2.8064,2.8902,2.9141,2.9206,2.9206,2.9206,2.9259,0.0,0.0,2.9533,2.9738,2.9788,2.9804,2.9907,3.0228,3.0703,3.1322,3.203,3.2914,3.4115,0.0,0.0,0.0,0.0,0.0,0.0,3.7343,3.8452,3.9536,3.9807,4.0079,4.0492,3.94,3.9008,3.9631,3.9669,3.9938,4.0477,4.0516,4.0516,4.0516,4.0313,4.0233,4.0223,3.9882,3.9545,3.9238,3.9133,3.8947,3.8726,3.8946,3.9056,3.9093,3.9313,3.9407,3.9407,3.9407,3.9407,3.9407,0.0,0.0,0.0,0.0,0.0,0.0,0.0,3.3096,3.2302,3.1507,3.0687,2.9879,2.9097,2.8987,2.9012,2.8975,0.0,0.0,0.0,0.0,0.0,0.0,0.0,0.0,0.0,0.0,0.0,2.3189,2.32,2.32,2.32,2.32,2.32,2.32,0.0,0.0,0.0,0.0,0.0,0.0,0.0,0.0,0.0,0.0,0.0,0.0,0.0,0.0,0.0,0.0,0.0,0.0,0.0,2.4654,2.476,2.6207,2.7298,2.8286,2.916,2.9533,2.9677,2.9677,2.9677,2.9677,0.0,2.9715,2.9746,2.9962,2.9999,3.0095,3.0349,3.1115,3.1692,3.1692,3.3083,3.4186,3.4298,0.0,0.0,0.0,0.0,0.0,0.0,3.8708,3.966,3.961,4.0271,0.0,4.0523,4.0477,4.0477,4.0477,4.0477,4.0477,4.0516,4.0516,4.0516,4.0516,4.0516,4.0508,4.0508,4.0233,3.9893,3.9557,3.9238,3.8947,3.8762,3.957,3.99,3.9974,4.0781,4.1058,4.1058,4.1058,4.1058,4.1058,0.0,0.0,0.0,0.0,0.0,0.0,0.0,3.3109,3.2289,3.1507,3.0687,2.9867,2.9097,2.8987,2.8987,2.8987,0.0,0.0,0.0,0.0,0.0,0.0,0.0,0.0,0.0,0.0,0.0,2.3544,2.3774,2.3868,2.3868,2.3868,2.3868,2.3868,2.3868,2.3868,0.0,0.0,0.0,0.0,0.0,0.0,0.0,0.0,0.0,0.0,0.0,0.0,0.0,0.0,0.0,0.0,0.0,0.0,0.0,2.6713,2.7226,2.7812,2.9231,2.9662,2.9686,2.9686,2.9686,2.9729,2.9877,2.9908,2.9969,3.0235,3.0267,3.0478,3.1148,3.1506,3.2083,3.3199,3.3859,3.4411,0.0,0.0,0.0,0.0,0.0,0.0,0.0,0.0,3.9894,4.0396,4.0628,4.0704,4.0492,4.0595,4.0609,4.0516,4.0516,4.0516,4.0516,4.0516,4.0516,4.0516,4.0516,4.0397,4.0233,4.0158,3.9786,3.9288,3.9717,3.9785,3.957,4.0377,4.0744,4.0744,4.0985,4.1095,4.1095,4.1095,4.1095,4.1095,0.0,0.0,0.0,0.0,0.0,0.0,0.0,3.3445,3.2669,3.1544,3.0944,3.0246,2.9133,2.9089,2.9112,2.8998,0.0,0.0,0.0,0.0,0.0,0.0,0.0,0.0,0.0,0.0,2.3878,2.3878,2.4112,2.419,2.419,2.419,2.4247,2.4303,2.4303,2.4348,0.0,0.0,0.0,0.0,0.0,0.0,2.4804,0.0,0.0,0.0,0.0,0.0,0.0,0.0,0.0,0.0,0.0,0.0,0.0,0.0,2.7664,2.8175,0.0,2.9869,2.9969,2.9969,2.9969,0.0,0.0,3.015,3.0221,3.0361,3.0385,3.0654,3.1545,3.1968,3.2583,3.3975,3.4488,3.491,0.0,0.0,0.0,0.0,0.0,0.0,0.0,3.9556,4.0365,4.0785,4.0779,4.0699,4.0492,4.0588,4.0595,4.0516,4.0516,4.0516,4.0516,4.0516,4.0516,4.0516,4.0516,4.0406,4.026,4.0473,4.0317,3.9951,4.0544,4.0703,0.0,4.125,4.1535,4.1572,4.1882,4.2029,4.2029,4.2029,4.2029,4.2029,0.0,0.0,0.0,0.0,0.0,0.0,0.0,0.0,0.0,0.0,3.1495,3.087,2.9313,2.9296,2.9312,0.0,0.0,0.0,0.0,0.0,0.0,0.0,0.0,0.0,0.0,2.4733,2.4301,2.4247,2.4247,2.4247,2.4247,2.4247,2.433,2.451,2.451,0.0,0.0,0.0,0.0,0.0,0.0,0.0,0.0,0.0,0.0,0.0,0.0,0.0,0.0,0.0,0.0,0.0,0.0,0.0,0.0,0.0,0.0,0.0,0.0,3.0228,0.0,0.0,0.0,0.0,3.0385,3.0385,0.0,3.0385,3.0462,3.0775,3.164,3.2448,3.3301,3.4161,3.5057,3.5606,0.0,0.0,0.0,0.0,0.0,0.0,3.8672,4.0102,4.0952,4.0824,4.0742,4.063,4.0523,4.0516,4.0516,4.0516,4.0516,4.0516,4.0516,4.0516,4.0516,4.0516,4.0516,4.0508,4.0561,4.1055,4.1272,4.1335,4.1565,4.1636,4.1682,4.2173,4.2396,4.247,4.3221,4.3515,4.3515,4.3515,4.3515,4.3515,0.0,0.0,0.0,0.0,0.0,0.0,0.0,0.0,0.0,0.0,3.2395,3.1634,3.064,2.9992,2.9616,0.0,0.0,0.0,0.0,0.0,0.0,0.0,0.0,0.0,0.0,2.5755,2.5101,2.4654,2.4654,2.4654,2.4654,2.4654,2.4685,2.4731,2.4731,0.0,0.0,0.0,0.0,0.0,0.0,0.0,0.0,0.0,0.0,0.0,2.5187,2.5198,0.0,0.0,0.0,0.0,0.0,0.0,0.0,0.0,2.8929,3.0148,3.026,0.0,3.0385,3.0385,3.0385,3.0385,0.0,3.0385,3.0385,3.0385,0.0,3.1663,3.2599,3.3421,3.4265,3.5215,3.5519,3.569,0.0,0.0,0.0,0.0,3.7928,3.8827,3.9531,4.0454,4.0952,4.0824,4.0742,4.063,4.0523,4.0516,4.0516,4.0516,4.0516,4.0516,4.0516,4.0516,4.0516,4.0516,4.0516,4.0696,4.1122,4.0989,4.1141,4.1563,4.1971,4.2157,4.2177,4.2924,4.3204,4.3258,4.3441,4.3515,4.3515,4.3515,4.3515,4.3515,0.0,0.0,0.0,0.0,0.0,0.0,0.0,0.0,0.0,0.0,0.0,0.0,0.0,0.0,0.0,0.0,0.0,0.0,0.0,0.0,0.0,0.0,0.0,0.0,0.0,2.6459,2.585,2.5952,2.5566,2.5333,2.5333,2.5333,2.5187,2.4891,2.5006,0.0,0.0,0.0,0.0,0.0,2.5278,0.0,0.0,0.0,0.0,0.0,2.5376,2.5391,0.0,2.5391,2.5391,2.5383,0.0,0.0,0.0,0.0,2.9144,3.0462,3.0482,3.0451,3.0402,3.0436,3.0451,3.0467,3.0486,0.0,0.0,0.0,0.0,3.2197,3.351,3.4097,3.4696,3.556,3.5758,0.0,0.0,0.0,0.0,0.0,3.8437,3.9374,0.0,4.0463,4.0857,4.0747,4.0641,4.0588,4.0485,4.0516,4.0516,4.0516,4.0516,4.0516,4.0516,4.0516,4.0708,4.1085,4.1085,4.1353,4.1864,4.2085,4.2258,4.2411,4.2878,4.3061,4.3081,4.3362,4.3515,4.3515,4.3515,4.3515,4.3515,4.3515,4.3515,4.3515,0.0,0.0,0.0,0.0,0.0,0.0,0.0,0.0,0.0,0.0,0.0,0.0,0.0,0.0,0.0,0.0,0.0,0.0,0.0,0.0,0.0,0.0,0.0,0.0,2.8561,2.7161,2.673,2.738,2.6645,2.6297,2.6297,2.6138,2.5728,2.5065,2.5219,0.0,0.0,0.0,0.0,0.0,2.5317,0.0,0.0,0.0,0.0,0.0,0.0,0.0,0.0,2.5491,2.5491,2.552,2.5573,0.0,0.0,0.0,0.0,0.0,3.0565,3.0505,3.0446,3.0479,3.0505,3.0529,3.0607,0.0,0.0,0.0,0.0,0.0,0.0,3.4622,0.0,0.0,0.0,0.0,0.0,0.0,0.0,0.0,3.8983,0.0,3.9874,4.0422,4.0752,4.0709,4.0581,4.0516,4.0516,4.0516,4.0516,4.0516,4.0516,4.0554,4.0708,4.0708,4.1085,4.1808,4.1923,4.2283,4.2802,4.3476,4.3681,4.3504,4.3862,4.3952,4.3912,4.3631,4.3515,4.3515,4.3515,4.3515,4.3515,4.3515,4.3515,4.3515,0.0,0.0,0.0,0.0,0.0,0.0,0.0,0.0,0.0,0.0,0.0,0.0,0.0,0.0,0.0,0.0,0.0,0.0,0.0,0.0,0.0,0.0,0.0,2.9288,2.8789,2.8484,2.8185,2.7791,2.7675,2.7599,2.7599,2.6864,2.6069,2.5278,2.5298,0.0,0.0,0.0,0.0,0.0,2.547,0.0,0.0,0.0,0.0,0.0,0.0,0.0,0.0,2.5491,2.5491,2.5647,2.6342,0.0,0.0,0.0,0.0,0.0,3.058,3.0565,3.0587,3.0562,3.0565,3.0607,3.058,0.0,0.0,0.0,0.0,0.0,0.0,3.5194,3.5749,0.0,0.0,3.6249,0.0,0.0,3.7811,3.9154,0.0,3.9989,4.0578,4.0699,4.0726,4.0697,4.0581,4.0516,4.0516,4.0516,4.0516,4.0516,4.0516,4.0854,4.1585,4.1585,4.1662,4.1808,4.2547,4.3299,4.4025,4.3874,4.4022,4.4397,4.4123,4.3833,4.3563,4.3532,4.3515,4.3515,4.3515,4.3515,4.3515,4.3515,4.3515,4.3515,0.0,0.0,0.0,0.0,0.0,0.0,0.0,0.0,0.0,0.0,0.0,0.0,0.0,0.0,0.0,0.0,0.0,0.0,0.0,0.0,0.0,0.0,3.0195,2.9956,2.966,2.9206,2.9051,2.9236,2.8775,2.8549,2.8511,2.7268,2.6176,2.537,2.5391,2.5417,2.542,0.0,0.0,0.0,0.0,0.0,0.0,0.0,0.0,0.0,0.0,0.0,0.0,0.0,2.5605,2.5759,2.6599,0.0,0.0,0.0,0.0,0.0,3.075,3.0756,3.0756,3.0756,3.1053,3.1393,0.0,0.0,0.0,0.0,0.0,0.0,0.0,0.0,3.5972,3.5976,0.0,3.6745,3.7136,3.7977,3.8807,0.0,0.0,4.0415,4.0733,4.0699,4.0661,4.0609,4.053,4.0516,4.0516,4.0516,4.0516,4.0516,4.0969,4.1393,4.1808,4.2701,4.3162,4.3162,4.3547,4.4093,4.4719,4.4395,4.426,4.4247,4.3881,4.3664,4.3515,4.3515,4.3515,4.3515,4.3515,4.3515,4.3515,4.3515,4.3515,4.3515,0.0,0.0,0.0,0.0,0.0,0.0,0.0,0.0,0.0,0.0,0.0,0.0,0.0,0.0,0.0,0.0,0.0,0.0,0.0,0.0,3.0442,3.0442,3.043,3.0419,3.0385,2.977,2.9753,3.0442,2.9785,2.9342,2.9149,2.7919,2.6756,2.5712,2.5779,2.5688,0.0,0.0,0.0,0.0,0.0,0.0,0.0,0.0,0.0,0.0,0.0,0.0,0.0,0.0,0.0,0.0,0.0,0.0,0.0,2.9557,3.0259,3.077,3.0859,3.0898,3.0937,3.1133,0.0,0.0,0.0,0.0,0.0,0.0,0.0,0.0,0.0,3.5976,0.0,3.5974,3.6614,3.7162,3.7359,3.8673,3.9673,3.9842,4.0386,4.0728,4.0661,4.0642,4.0629,4.0523,4.0516,4.0516,4.0516,4.0516,4.0593,4.0785,4.147,4.2,4.2393,4.3662,4.4316,4.4316,4.4509,4.4833,4.5211,4.4872,4.4495,4.4117,4.3775,4.3563,4.3515,4.3515,4.3515,4.3515,4.3515,4.3515,4.3515,4.3515,4.3515,4.3515,0.0,0.0,0.0,0.0,0.0,0.0,0.0,0.0,0.0,0.0,0.0,0.0,0.0,0.0,0.0,0.0,0.0,0.0,0.0,0.0,3.0505,3.0505,3.0563,3.0521,3.039,3.0404,3.0432,3.0505,3.0489,3.0104,2.9368,2.9257,2.829,2.67,0.0,0.0,0.0,0.0,0.0,0.0,0.0,0.0,0.0,0.0,0.0,0.0,0.0,0.0,0.0,0.0,0.0,0.0,0.0,0.0,2.9687,3.0547,3.0859,3.0898,3.0898,3.0898,3.1094,3.1914,3.2148,0.0,3.2187,3.3437,0.0,3.4687,0.0,0.0,0.0,3.5967,3.5907,3.5907,3.6515,3.7276,3.81,0.0,3.9838,4.0533,4.0676,4.0655,4.0515,4.05,4.0492,4.0516,4.0516,4.0516,4.0516,4.0516,4.0854,4.1692,4.1769,4.2547,4.4085,4.4239,4.4316,4.4316,4.5133,4.5547,4.5559,4.5222,4.4884,4.4508,4.4132,4.3807,4.3515,4.3515,4.3515,4.3515,4.3515,4.3515,4.3515,4.3515,4.3515,4.3515,0.0,0.0,0.0,0.0,0.0,0.0,0.0,0.0,0.0,0.0,0.0,0.0,0.0,0.0,0.0,0.0,0.0,0.0,0.0,0.0,3.0577,3.0577,3.0607,3.0594,3.0517,3.0556,3.0577,3.0577,3.061,3.0197,2.9388,2.9425,2.8819,0.0,0.0,0.0,0.0,0.0,0.0,0.0,0.0,0.0,0.0,0.0,0.0,0.0,0.0,0.0,0.0,0.0,2.6719,2.7266,2.8672,2.9336,2.9766,3.0625,3.0898,3.0898,3.0898,3.1289,3.1797,3.2109,3.2969,0.0,0.0,3.4648,3.5508,3.5508,3.5781,0.0,0.0,0.0,3.6593,3.6633,3.7661,3.8626,3.8942,3.9646,4.0269,4.0549,4.0581,4.0559,4.0485,4.0516,4.0516,4.0516,4.0516,4.0746,4.1277,4.1316,4.17,4.2585,4.3085,4.3662,4.4278,4.4855,4.5015,4.4814,4.512,4.5273,4.5263,4.4688,4.4359,4.4204,4.3871,4.3631,4.3515,4.3515,4.3515,4.3515,4.3515,4.3515,4.3515,4.3515,4.3515,4.3515,0.0,0.0,0.0,0.0,0.0,0.0,0.0,0.0,0.0,0.0,0.0,0.0,0.0,0.0,0.0,0.0,0.0,0.0,0.0,3.058,3.0621,3.0621,3.0676,3.0687,3.0687,3.0687,3.0678,3.0621,3.0678,3.0416,2.9874,2.9939,0.0,0.0,0.0,0.0,0.0,0.0,0.0,0.0,2.6758,2.6523,0.0,0.0,0.0,0.0,0.0,0.0,0.0,0.0,2.7578,2.8047,2.9219,2.9805,3.0117,3.0703,3.0859,3.0895,3.1168,3.1676,3.2262,3.28,0.0,0.0,3.4949,3.55,3.5973,3.5973,3.6207,3.6362,3.6315,0.0,0.0,0.0,3.852,3.9367,3.9367,4.0012,4.0516,4.0516,4.0516,4.0516,4.0516,4.0516,4.0516,4.0516,4.0746,4.1162,4.1769,4.2038,4.2585,4.3431,4.4008,4.4397,4.4546,4.5243,4.5429,4.5115,4.4988,4.4943,4.4919,4.429,4.3982,4.3967,4.3664,4.3515,4.3515,4.3515,4.3515,4.3515,4.3515,4.3515,4.3515,4.3515,4.3515,4.3515,0.0,0.0,0.0,0.0,0.0,0.0,0.0,0.0,0.0,0.0,0.0,0.0,0.0,0.0,0.0,0.0,0.0,0.0,0.0,3.0689,3.0716,3.0716,3.0817,3.0898,3.0898,3.0898,3.0817,3.0716,3.0817,3.0898,3.0898,3.0898,0.0,0.0,0.0,0.0,0.0,0.0,0.0,0.0,2.8281,2.8281,0.0,0.0,0.0,0.0,0.0,0.0,0.0,0.0,2.8906,2.9609,2.9609,3.0195,3.0898,3.0898,3.0814,3.0909,3.176,3.1999,3.2422,0.0,0.0,0.0,3.5548,3.5824,3.5901,3.5901,3.6604,3.7173,3.706,3.7707,0.0,3.8125,3.8781,3.9323,3.9323,4.0015,4.0516,4.0516,4.0516,4.0516,4.0516,4.0516,4.0516,4.0516,4.1316,4.1808,4.1808,4.2624,4.347,4.4278,4.4316,4.4585,4.5088,4.5429,4.5429,4.5105,4.4763,4.4612,4.4599,4.4175,4.3982,4.3967,4.3627,4.3515,4.3515,4.3515,4.3515,4.3515,4.3515,4.3515,4.3515,4.3515,4.3515,4.3515,0.0,0.0,0.0,0.0,0.0,0.0,0.0,0.0,0.0,0.0,0.0,0.0,0.0,0.0,0.0,0.0,0.0,0.0,0.0,3.112,3.0857,3.0857,3.0898,3.0898,3.0898,3.0898,3.0898,3.0857,3.0898,3.0898,3.0898,0.0,0.0,3.0508,0.0,0.0,0.0,0.0,0.0,2.9141,2.8555,2.8281,2.8281,0.0,0.0,0.0,0.0,0.0,0.0,0.0,0.0,0.0,3.0312,3.0703,3.0898,3.0898,3.0859,3.1013,3.1911,3.2524,0.0,3.4281,0.0,0.0,0.0,3.625,0.0,0.0,3.7303,3.7843,3.7918,3.8495,0.0,3.9009,3.9662,4.0131,4.0131,4.0362,4.0516,4.0516,4.0516,4.0516,4.0516,4.1046,4.1393,4.1393,4.2239,4.297,4.3547,4.3816,4.4316,4.521,4.521,4.529,4.5448,4.5559,4.5303,4.4751,4.4663,4.4612,4.4585,4.3927,4.3664,4.3664,4.3529,4.3515,4.3515,4.3515,4.3515,4.3515,4.3515,4.3515,4.3515,4.3515,4.3515,4.3588,0.0,0.0,0.0,0.0,0.0,0.0,0.0,0.0,0.0,0.0,3.5755,0.0,0.0,0.0,0.0,0.0,0.0,0.0,0.0,0.0,3.125,3.0937,3.0898,3.0898,3.0898,3.0898,3.0898,3.0898,3.0898,0.0,0.0,0.0,3.0898,3.0898,0.0,3.0898,0.0,0.0,3.0117,3.0078,2.9531,2.9336,2.9336,0.0,0.0,0.0,0.0,0.0,0.0,0.0,0.0,0.0,3.0742,3.0898,3.0976,3.1246,3.1315,3.1537,3.2727,3.3358,0.0,3.4761,3.5325,3.5896,3.6746,0.0,0.0,0.0,3.8098,3.8618,3.8673,3.9322,0.0,3.985,4.0198,4.0516,4.0516,4.0516,4.0516,4.0516,4.0823,4.1008,4.1008,4.1816,4.2316,4.2316,4.3085,4.3778,4.4278,4.4624,4.5056,4.5594,4.5594,4.5466,4.5211,4.5313,4.5055,4.4359,4.4359,4.4359,4.4332,4.3758,4.3515,4.3515,4.3515,4.3515,4.3515,4.3515,4.3681,4.3975,4.3975,4.4158,4.4452,4.4452,4.4452,4.4525,0.0,0.0,0.0,0.0,0.0,0.0,0.0,0.0,0.0,0.0,3.5841,3.5908,0.0,0.0,0.0,0.0,0.0,0.0,0.0,0.0,3.1953,3.1172,3.1055,3.0976,3.0898,3.0898,3.0898,3.0898,3.0898,0.0,0.0,0.0,3.0898,3.0898,0.0,3.0898,3.0898,3.0898,3.0898,3.0898,3.0898,3.0898,3.0898,3.0859,0.0,0.0,0.0,0.0,0.0,0.0,0.0,0.0,3.0858,3.0936,3.113,3.1804,3.199,3.2347,3.3916,3.4308,0.0,3.5297,3.5668,0.0,3.692,3.7732,3.8278,3.8141,0.0,3.9482,3.943,4.0113,4.063,4.0508,4.0516,4.0516,4.0516,4.0516,4.0516,4.0593,4.1316,4.1808,4.1923,4.2701,4.3201,4.3201,4.397,4.4432,4.4432,4.5171,4.5586,4.5559,4.5559,4.5253,4.4612,4.4908,4.4701,4.3982,4.3982,4.3967,4.3921,4.3647,4.3515,4.3515,4.3515,4.3551,4.3608,4.3608,4.4085,4.4801,4.4801,4.5259,4.5883,4.5883,4.5883,4.592,0.0,0.0,0.0,0.0,0.0,0.0,0.0,0.0,0.0,0.0,0.0,0.0,0.0,0.0,0.0,0.0,0.0,0.0,0.0,0.0,3.3047,3.2851,3.2266,3.1601,3.0898,3.0898,3.0898,3.0898,3.0898,0.0,0.0,0.0,0.0,3.0898,0.0,3.0898,3.0898,3.0898,3.0898,3.0898,3.0772,3.0726,3.0722,3.0687,3.067,0.0,0.0,0.0,0.0,0.0,0.0,0.0,3.067,3.1135,3.1712,3.1852,3.2415,3.3135,3.4171,3.4374,0.0,0.0,3.6555,3.7718,3.8604,3.9413,3.9827,3.9219,3.9714,4.026,4.0254,4.0392,4.0523,4.0485,4.0516,4.0516,4.0516,4.0516,4.0746,4.1431,4.17,4.2085,4.2739,4.3547,4.4047,4.4047,4.4825,4.5325,4.5325,4.5518,4.5466,4.5211,4.5211,4.5,4.4612,4.4688,4.4468,4.3982,4.3982,4.3865,4.3614,4.3512,4.3515,4.3515,4.3515,4.3864,4.4452,4.4452,4.4929,4.5626,4.5626,4.5736,4.5883,4.5883,4.5883,4.5993,0.0,0.0,0.0,0.0,0.0,0.0,0.0,0.0,0.0,0.0,0.0,0.0,0.0,0.0,0.0,0.0,0.0,0.0,0.0,0.0,0.0,0.0,3.3008,3.2578,3.2109,3.2109,3.2109,0.0,0.0,0.0,0.0,0.0,0.0,3.2109,0.0,3.2109,3.2109,3.2065,3.2061,3.2059,3.1943,3.1648,3.1256,3.1259,3.0972,3.0583,3.0583,0.0,0.0,0.0,0.0,0.0,0.0,0.0,3.2587,3.2967,3.3378,3.3908,3.4749,0.0,0.0,3.5905,0.0,3.8238,3.9092,3.9938,4.0385,4.0009,4.0229,4.0516,4.0516,4.0516,4.0516,4.0516,4.0516,4.0669,4.1046,4.1123,4.1431,4.2316,4.2777,4.3162,4.3624,4.4432,4.4849,4.4691,4.5103,4.5283,4.511,4.511,4.5033,4.4872,4.4861,4.4663,4.4304,4.4304,4.4117,4.3775,4.3775,4.366,4.3515,4.3515,4.3515,4.3515,4.3901,4.4305,4.4728,4.5112,4.5773,4.6471,4.6471,4.6728,4.7058,4.7058,4.7058,4.7131,0.0,0.0,0.0,0.0,0.0,0.0,0.0,0.0,0.0,0.0,0.0,0.0,0.0,0.0,0.0,0.0,0.0,0.0,0.0,0.0,0.0,0.0,3.3593,3.3553,3.3397,3.3356,0.0,0.0,0.0,0.0,0.0,0.0,0.0,3.3397,0.0,3.3396,3.3354,3.3326,3.3269,3.3262,3.319,3.2729,3.2107,0.0,0.0,3.1005,3.1005,3.1005,3.1005,3.1005,0.0,0.0,0.0,0.0,3.3498,3.4095,3.4373,3.4654,3.5303,0.0,3.5885,3.6731,3.7584,0.0,3.9323,4.0015,4.0516,4.0516,4.0516,4.0516,4.0516,4.0516,4.0516,4.0516,4.0631,4.0969,4.1692,4.1923,4.2354,4.3201,4.3893,4.4355,4.4509,4.5127,4.54,4.5137,4.5033,4.4896,4.4624,4.4612,4.4585,4.4519,4.4519,4.4304,4.3927,4.3927,4.3791,4.3515,4.3515,4.3515,4.3515,4.3644,4.3718,4.3718,4.4415,4.4838,4.5168,4.5847,4.6581,4.7296,4.7296,4.77,4.8306,4.8306,4.8306,4.8306,0.0,0.0,0.0,0.0,0.0,0.0,0.0,0.0,0.0,0.0,3.6016,0.0,0.0,0.0,0.0,0.0,0.0,0.0,0.0,0.0,0.0,0.0,3.448,3.4074,3.3331,3.3244,3.3212,0.0,0.0,0.0,0.0,0.0,0.0,3.3292,0.0,0.0,3.3212,3.3239,3.3193,3.3187,3.3089,3.2962,3.2837,0.0,0.0,0.0,0.0,3.2605,3.2605,3.2605,3.2682,0.0,0.0,0.0,3.4108,3.4161,3.477,3.5373,0.0,0.0,3.6731,0.0,3.8469,3.9361,0.0,0.0,4.0516,0.0,4.0516,4.0516,4.0516,4.0516,4.0516,4.0516,4.1123,4.1662,4.1769,4.247,4.3239,4.4047,4.4239,4.4586,4.5364,4.5275,4.5159,4.5115,4.4837,4.4663,4.4612,4.4612,4.4428,4.4087,4.4073,4.3912,4.3563,4.3563,4.3529,4.3515,4.3515,4.3515,4.3515,4.4232,4.4562,4.4562,4.4654,4.5498,4.6782,4.6892,4.7406,4.8159,4.8159,4.8233,4.8306,4.8306,4.8306,4.8306,0.0,0.0,0.0,0.0,0.0,0.0,0.0,0.0,0.0,0.0,0.0,3.6523,0.0,0.0,0.0,0.0,0.0,0.0,0.0,0.0,0.0,0.0,0.0,3.5032,3.4642,3.4607,0.0,0.0,0.0,0.0,0.0,3.4854,3.4668,0.0,0.0,0.0,0.0,0.0,3.4533,3.4525,3.4428,0.0,0.0,0.0,0.0,0.0,0.0,0.0,0.0,3.2891,3.3237,3.3622,3.3622,0.0,0.0,0.0,3.5192,3.5615,3.6038,3.6423,3.7046,0.0,3.9015,3.9515,4.0323,4.0516,4.0516,4.0516,4.0516,4.0516,4.0516,4.0893,4.1239,4.1239,4.197,4.2701,4.3124,4.3547,4.4085,4.494,4.5017,4.5118,4.5313,4.5191,4.4931,4.4521,4.4346,4.4161,4.3989,4.3974,4.3881,4.3726,4.3726,4.3664,4.3515,4.3515,4.3515,4.3515,4.3515,4.3718,4.4195,4.4562,4.4691,4.4728,4.5645,4.6452,4.7113,4.759,4.7976,4.8306,4.8306,4.8306,4.8306,4.8306,4.8306,4.8306,0.0,0.0,0.0,0.0,0.0,0.0,0.0,0.0,0.0,0.0,0.0,0.0,0.0,0.0,0.0,0.0,0.0,0.0,0.0,0.0,0.0,0.0,0.0,0.0,3.5687,0.0,0.0,0.0,0.0,0.0,3.5646,3.5646,3.5763,0.0,3.5753,0.0,0.0,0.0,0.0,0.0,0.0,0.0,0.0,0.0,0.0,0.0,0.0,0.0,0.0,0.0,0.0,0.0,3.4545,3.4968,0.0,0.0,0.0,0.0,0.0,0.0,3.7661,3.8977,3.9438,3.9746,0.0,0.0,4.0516,0.0,4.0516,4.0516,4.0516,4.12,4.1808,4.1808,4.2701,4.3624,4.4201,4.447,4.4837,4.5389,4.5457,4.5323,4.5,4.4896,4.46,4.4043,4.3927,4.3775,4.3532,4.3515,4.3515,4.3515,4.3515,4.3515,4.3515,4.3515,4.3515,4.3515,4.3515,4.3901,4.4709,4.4929,4.5112,4.5388,4.6562,4.7223,4.7443,4.803,4.8306,4.8306,4.8306,4.8306,4.8306,4.8306,4.8306,4.8306,0.0,0.0,0.0,0.0,0.0,0.0,0.0,0.0,0.0,0.0,0.0,0.0,0.0,0.0,0.0,3.7007,0.0,0.0,0.0,0.0,0.0,0.0,0.0,0.0,0.0,0.0,0.0,0.0,0.0,0.0,3.5527,3.5527,3.5912,3.6612,3.5925,3.556,3.5527,0.0,0.0,0.0,0.0,0.0,0.0,0.0,0.0,0.0,0.0,0.0,0.0,0.0,0.0,0.0,0.0,0.0,0.0,0.0,0.0,0.0,0.0,3.7892,0.0,3.9284,3.9861,0.0,0.0,0.0,4.0516,4.0516,4.0516,4.0516,4.0516,4.12,4.1808,4.1808,4.3162,4.4239,4.4278,4.5017,4.5428,4.5169,4.5137,4.4988,4.4663,4.4276,4.4043,4.3998,4.371,4.3532,4.3515,4.3515,4.3515,4.3515,4.3515,4.3515,4.3515,4.3515,4.3515,4.3515,4.3515,4.3901,4.4728,4.548,4.625,4.6966,4.7076,4.7516,4.8233,4.8269,4.8306,4.8306,4.8306,4.8306,4.8306,4.8306,4.8306,4.8306,0.0,0.0,0.0,0.0,0.0,0.0,0.0,0.0,0.0,0.0,0.0,0.0,0.0,3.8236,3.805,3.7744,3.7666,0.0,0.0,0.0,0.0,0.0,0.0,0.0,0.0,0.0,0.0,0.0,0.0,3.7084,3.7084,3.7084,3.7276,3.7507,3.6684,3.66,3.7084,3.7084,0.0,0.0,0.0,0.0,0.0,0.0,0.0,0.0,0.0,0.0,0.0,0.0,0.0,0.0,0.0,0.0,0.0,0.0,0.0,0.0,0.0,0.0,0.0,3.9938,4.0285,4.0516,4.0516,4.0516,4.0516,4.0516,4.0516,4.0669,4.1239,4.2047,4.2624,4.2624,4.3876,4.4804,4.4804,4.4887,4.4919,4.48,4.4788,4.4612,4.4247,4.4073,4.3927,4.3693,4.3563,4.3515,4.3515,4.3515,4.3515,4.3515,4.3515,4.3515,4.3515,4.3515,4.3515,4.3515,4.4011,4.4709,4.5516,4.6324,4.7113,4.7846,4.7846,4.8049,4.8306,4.8306,4.8306,4.8306,4.8306,4.8306,4.8306,4.8306,4.8306,4.8306,0.0,0.0,0.0,0.0,0.0,0.0,0.0,0.0,0.0,0.0,0.0,0.0,0.0,0.0,3.8794,3.8524,3.8194,3.8007,3.8007,3.7469,0.0,0.0,0.0,0.0,0.0,0.0,0.0,0.0,0.0,0.0,0.0,3.8007,3.8161,3.8392,3.7815,3.7738,0.0,0.0,0.0,3.8007,0.0,0.0,3.793,0.0,0.0,0.0,0.0,0.0,0.0,0.0,0.0,0.0,0.0,0.0,0.0,0.0,0.0,0.0,3.913,0.0,0.0,0.0,4.0516,4.0516,4.0516,4.0516,4.0593,4.0893,4.0836,4.1046,4.1881,4.2661,4.3206,4.333,4.4232,4.4931,4.4931,4.4751,4.4559,4.4401,4.4387,4.4233,4.3865,4.3818,4.3742,4.3532,4.3515,4.3515,4.3515,4.3515,4.3515,4.3515,4.3515,4.3515,4.3515,4.3515,4.3515,4.3515,4.4305,4.5112,4.592,4.6709,4.7553,4.8306,4.8306,4.8306,4.8306,4.8306,4.8306,4.8306,4.8306,4.8306,4.8306,4.8306,4.8489,4.8746,0.0,0.0,0.0,0.0,0.0,0.0,0.0,0.0,0.0,0.0,0.0,0.0,0.0,0.0,0.0,3.94,3.8546,3.8084,3.8084,3.8046,0.0,0.0,0.0,0.0,0.0,0.0,0.0,0.0,0.0,0.0,0.0,0.0,3.8546,3.9361,3.9361,3.8854,3.8084,0.0,3.8084,3.8084,0.0,3.8084,3.8084,0.0,0.0,0.0,3.8007,3.8007,0.0,0.0,0.0,0.0,0.0,0.0,0.0,0.0,0.0,0.0,0.0,0.0,0.0,0.0,0.0,4.0516,4.0516,4.0516,4.0777,4.1607,4.1532,4.1576,4.2377,4.2931,4.3378,4.377,4.422,4.4599,4.4599,4.4585,4.4414,4.4028,4.3967,4.3849,4.3512,4.3515,4.3515,4.3515,4.3515,4.3515,4.3515,4.3515,4.3515,4.3515,4.3515,4.3515,4.3515,4.3515,4.3515,4.3551,4.4342,4.5149,4.5957,4.6746,4.7553,4.8306,4.8306,4.8306,4.8306,4.8306,4.8306,4.8306,4.8306,4.8306,4.8343,4.8343,4.8893,4.9647,0.0,0.0,0.0,0.0,0.0,0.0,0.0,0.0,0.0,0.0,0.0,0.0,0.0,0.0,0.0,4.0208,3.9938,3.9823,3.9823,3.9246,3.8931,3.8931,3.8354,3.8007,3.8007,0.0,0.0,0.0,0.0,3.9592,3.9823,3.9823,0.0,0.0,4.0169,4.0015,3.9823,3.9823,0.0,0.0,3.9823,3.9823,0.0,0.0,0.0,0.0,0.0,3.8007,3.8007,0.0,3.8007,3.8007,0.0,0.0,0.0,0.0,0.0,0.0,4.0169,0.0,0.0,0.0,0.0,0.0,4.0516,4.0969,4.1459,4.1427,4.1828,4.2362,4.2972,4.2983,4.3151,4.3826,4.4069,4.4161,4.4161,4.3958,4.3758,4.3664,4.3647,4.3614,4.3515,4.3515,4.3515,4.3515,4.3515,4.3515,4.3515,4.3515,4.3515,4.3515,4.3515,4.3515,4.3515,4.3515,4.3791,4.4378,4.5186,4.5993,4.6782,4.759,4.8086,4.8306,4.8306,4.8306,4.8306,4.8306,4.8306,4.8306,4.8306,4.8673,4.9243,4.9243,4.9738,5.0472,0.0,0.0,0.0,0.0,0.0,0.0,0.0,0.0,0.0,0.0,0.0,0.0,0.0,0.0,0.0,4.0516,4.0516,4.0516,4.0516,4.0054,3.9785,3.9785,3.9323,3.9046,3.9046,3.9207,3.9477,3.9785,3.9938,4.0169,4.0516,4.0516,4.0516,0.0,0.0,0.0,0.0,0.0,0.0,0.0,4.0516,0.0,0.0,3.9977,3.9785,0.0,0.0,0.0,3.9046,3.9046,3.9046,0.0,0.0,0.0,0.0,0.0,0.0,0.0,0.0,0.0,0.0,0.0,0.0,0.0,4.0884,4.1471,4.2087,4.2145,4.2392,4.2813,4.3482,4.3312,4.3272,4.3733,4.377,4.377,4.377,4.3631,4.3515,4.3515,4.3515,4.3515,4.3515,4.3515,4.3515,4.3515,4.3515,4.3515,4.3515,4.3515,4.3515,4.3515,4.3515,4.3515,4.3515,4.3515,4.3901,4.4709,4.5516,4.6324,4.7113,4.792,4.8306,4.8306,4.8306,4.8306,4.8306,4.8306,4.8306,4.8343,4.871,4.915,4.9647,4.9978,5.0618,5.1316,0.0,0.0,0.0,0.0,0.0,0.0,0.0,0.0,0.0,0.0,0.0,0.0,0.0,0.0,0.0,0.0,4.0785,4.0785,4.0785,4.0708,0.0,4.0631,4.0554,4.0516,4.0516,3.9785,3.9785,4.0516,3.9785,3.9785,4.0516,4.0593,4.0631,4.0669,0.0,0.0,0.0,0.0,0.0,4.0785,4.0785,4.0785,0.0,0.0,4.0785,4.0785,4.0785,4.0785,4.0785,4.0669,4.0631,0.0,0.0,0.0,0.0,0.0,4.0516,0.0,0.0,0.0,0.0,0.0,0.0,0.0,4.1571,4.2133,4.2813,4.3264,4.3206,4.3252,4.3946,4.3802,4.3597,4.3546,4.3546,4.3529,4.3515,4.3515,4.3515,4.3515,4.3515,4.3515,4.3515,4.3515,4.3515,4.3515,4.3515,4.3515,4.3515,4.3515,4.3515,4.3515,4.3515,4.3515,4.3515,4.3571,4.4048,4.4838,4.5663,4.6471,4.7259,4.7957,4.8306,4.8306,4.8306,4.8306,4.8306,4.8416,4.8453,4.8526,4.9317,4.9721,4.9941,5.0655,5.1426,5.2123,0.0,0.0,0.0,0.0,0.0,0.0,0.0,0.0,0.0,0.0,0.0,0.0,0.0,0.0,0.0,0.0,0.0,4.2585,0.0,0.0,4.1546,4.1546,4.0854,4.0516,4.0516,4.0362,4.0323,4.0516,4.0323,4.0362,4.0516,4.1239,4.1546,4.1585,0.0,0.0,0.0,0.0,0.0,4.2585,4.2585,0.0,4.2585,4.2585,4.2585,4.2585,4.2585,4.2585,4.247,4.1777,4.1546,4.1431,0.0,0.0,0.0,0.0,0.0,0.0,0.0,0.0,0.0,0.0,0.0,0.0,4.2757,4.3363,4.3905,4.3738,4.4209,4.4635,4.4521,4.4414,4.4261,4.3958,4.3912,4.3802,4.3549,4.3515,4.3515,4.3515,4.3515,4.3515,4.3515,4.3515,4.3515,4.3515,4.3515,4.3515,4.3515,4.3515,4.3515,4.3515,4.3515,4.3515,4.3515,4.4158,4.4856,4.5663,4.6489,4.7296,4.8086,4.8233,4.8306,4.8306,4.8306,4.8306,4.8343,4.904,4.9353,4.9353,4.9537,5.0381,5.1557,5.172,5.227,5.2968,0.0,0.0,0.0,0.0,0.0,0.0,0.0,0.0,0.0,0.0,0.0,0.0,0.0,0.0,0.0,0.0,0.0,0.0,0.0,0.0,4.247,4.247,4.2047,4.1777,4.1777,4.1777,4.1777,4.1777,4.1777,4.1777,4.1816,4.2239,4.247,4.247,0.0,0.0,0.0,0.0,4.3701,4.3662,4.3278,0.0,4.3085,4.3085,4.3085,4.3085,4.3085,4.3085,4.3047,4.2585,4.247,0.0,0.0,4.1777,4.1777,0.0,4.1777,4.1777,0.0,0.0,0.0,4.247,0.0,0.0,0.0,4.4087,4.4592,4.4262,4.4545,4.4812,4.4637,4.4612,4.4455,4.4058,4.3982,4.3881,4.3529,4.3515,4.3515,4.3515,4.3515,4.3515,4.3515,4.3515,4.3515,4.3515,4.3515,4.3515,4.3515,4.3515,4.3515,4.3515,4.3515,4.3515,4.3515,4.4305,4.5112,4.592,4.6709,4.7516,4.8306,4.8306,4.8306,4.8306,4.8306,4.8563,4.8967,4.9427,5.0088,5.0822,5.0822,5.13,5.205,5.2454,5.2858,5.3124,0.0,0.0,0.0,0.0,0.0,0.0,0.0,0.0,0.0,0.0,0.0,0.0,0.0,0.0,0.0,0.0,0.0,0.0,0.0,0.0,0.0,0.0,4.3162,4.3085,4.3085,4.3085,4.3085,4.3085,4.3085,4.3085,4.3085,4.3278,4.3316,4.3355,0.0,0.0,0.0,0.0,0.0,4.447,0.0,4.3585,4.3585,4.3585,4.3585,4.3585,4.3585,4.3585,4.3547,4.3393,4.3316,4.3316,4.3162,4.3085,0.0,0.0,0.0,0.0,0.0,0.0,0.0,0.0,0.0,4.4279,0.0,0.0,0.0,4.4663,4.4612,4.4612,4.4612,4.4612,4.4417,4.3871,4.3923,4.3806,4.3345,4.3387,4.3515,4.3515,4.3515,4.3515,4.3515,4.3515,4.3515,4.3515,4.3515,4.3515,4.3515,4.3515,4.3515,4.3515,4.3515,4.3588,4.3718,4.4525,4.5333,4.614,4.6929,4.7663,4.8306,4.8306,4.8306,4.8306,4.8306,4.8783,4.961,4.9757,5.0712,5.1977,5.1977,5.2087,5.2307,5.2968,5.3203,5.3103,4.5783,4.5802,0.0,0.0,0.0,0.0,0.0,0.0,0.0,0.0,0.0,0.0,0.0,0.0,0.0,0.0,0.0,0.0,4.5325,0.0,0.0,0.0,0.0,0.0,4.3085,4.3085,4.3085,4.3085,4.3085,4.3085,4.3124,4.3816,4.4162,4.4201,4.4979,0.0,0.0,0.0,4.5441,0.0,4.5364,4.5325,0.0,4.5325,4.5325,4.5325,4.5325,4.5325,4.521,0.0,4.4162,4.4047,0.0,4.3085,4.3085,0.0,0.0,0.0,0.0,0.0,0.0,0.0,4.3907,0.0,0.0,0.0,4.465,4.4624,0.0,4.4612,0.0,0.0,0.0,4.3117,4.3513,4.3621,4.2573,4.3057,4.3515,4.3515,4.3515,4.3515,4.3515,4.3515,4.3515,4.3515,4.3515,4.3515,4.3515,4.3515,4.3515,4.3515,4.3515,4.3828,4.4562,4.5369,4.6177,4.6966,4.7792,4.8233,4.8306,4.8306,4.8306,4.8306,4.8306,4.8783,4.9647,5.0362,5.1169,5.1977,5.1977,5.2454,5.3057,5.3167,5.3203,5.3103,0.0,0.0,0.0,0.0,0.0,0.0,0.0,0.0,0.0,0.0,0.0,0.0,0.0,0.0,0.0,0.0,0.0,4.5594,0.0,0.0,0.0,0.0,0.0,0.0,0.0,4.4547,4.4547,4.4547,4.4547,4.4547,4.4547,4.4902,4.5056,4.5056,4.5441,0.0,4.5594,0.0,4.5594,0.0,0.0,0.0,0.0,4.5594,4.5594,4.5594,4.5594,4.5594,4.5556,0.0,4.5056,0.0,0.0,0.0,0.0,0.0,0.0,0.0,0.0,0.0,0.0,0.0,0.0,0.0,4.4612,0.0,4.4612,0.0,0.0,0.0,0.0,0.0,0.0,0.0,4.3774,4.3769,4.3088,4.3277,4.3515,4.3515,4.3515,4.3515,4.3515,4.3515,4.3515,4.3515,4.3515,4.3515,4.3515,4.3515,4.3515,4.3515,4.3515,4.3901,4.4691,4.5516,4.6324,4.7113,4.7939,4.8306,4.8306,4.8306,4.8306,4.8343,4.882,4.9517,5.0362,5.1169,5.1977,5.2711,5.2711,5.2894,5.3203,5.3203,5.3203,5.306,0.0,0.0,0.0,0.0,0.0,0.0,0.0,0.0,0.0,0.0,0.0,0.0,4.5594,4.5594,0.0,0.0,4.5594,4.5594,0.0,0.0,4.5594,0.0,0.0,0.0,0.0,0.0,4.5594,4.5594,4.5594,4.5594,4.5594,4.5594,4.5594,4.5594,0.0,4.5594,4.5594,0.0,4.5594,4.5594,4.5594,4.5594,4.5594,4.5594,4.5594,4.5594,4.5594,4.5594,4.5586,4.5475,4.5457,0.0,4.5333,0.0,0.0,0.0,0.0,0.0,4.5163,0.0,0.0,0.0,0.0,0.0,0.0,0.0,0.0,0.0,0.0,0.0,0.0,0.0,0.0,0.0,0.0,4.368,4.3255,4.3368,4.3515,4.3515,4.3515,4.3515,4.3515,4.3515,4.3515,4.3515,4.3515,4.3515,4.3515,4.3515,4.3515,4.3515,4.3515,4.3975,4.5039,4.5626,4.6434,4.7443,4.7993,4.8306,4.8306,4.8306,4.8306,4.8343,4.9243,5.0068,5.0875,5.1683,5.2454,5.3203,5.3203,5.3082,5.2915,5.2915,5.2915,5.2702,4.5637,4.5688,0.0,0.0,0.0,0.0,0.0,0.0,0.0,0.0,0.0,0.0,0.0,0.0,0.0,0.0,0.0,4.5594,4.5594,0.0,4.5594,0.0,0.0,4.5594,0.0,0.0,0.0,4.5594,4.5594,4.5594,4.5594,4.5594,4.5594,4.5594,4.5594,4.5594,4.5594,4.5594,4.5594,4.5594,4.5594,4.5594,4.5594,0.0,4.5594,4.5594,4.5594,0.0,0.0,4.5222,4.5126,4.5044,4.4739,0.0,0.0,0.0,0.0,0.0,0.0,0.0,0.0,4.3529,0.0,0.0,0.0,0.0,4.3549,0.0,0.0,0.0,0.0,0.0,0.0,0.0,0.0,0.0,0.0,4.302,4.3515,4.3515,4.3515,4.3515,4.3515,4.3515,4.3515,4.3515,4.3515,4.3515,4.3515,4.3515,4.3515,4.3515,4.3515,4.4268,4.5847,4.5883,4.6691,4.8269,4.8306,4.8306,4.8306,4.8306,4.8306,4.8343,4.9243,5.0068,5.0875,5.1683,5.2454,5.3203,5.3203,5.2769,5.2136,5.2136,5.2136,5.191,0.0,0.0,0.0,0.0,0.0,0.0,0.0,4.5594,0.0,0.0,0.0,0.0,0.0,4.5594,4.5594,0.0,0.0,4.5594,4.5594,4.5594,0.0,0.0,0.0,4.5594,0.0,0.0,0.0,0.0,0.0,4.5594,4.5594,4.5594,4.5594,4.5594,0.0,4.5594,0.0,0.0,0.0,0.0,0.0,4.5594,4.5594,0.0,4.5594,4.5594,4.5594,4.5594,4.5577,4.5457,4.5429,4.5381,4.5022,4.4931,4.4884,4.4676,4.4482,4.4387,4.4387,4.4102,4.3818,4.3818,0.0,0.0,0.0,0.0,0.0,0.0,0.0,0.0,0.0,0.0,0.0,0.0,0.0,0.0,0.0,4.3331,4.3515,4.3515,4.3515,0.0,4.3515,4.3515,4.3515,4.3515,4.3515,4.3515,4.3515,4.3515,4.3515,4.3515,4.4011,4.4819,4.5883,4.6434,4.7223,4.8306,4.8306,4.8306,4.8306,4.8306,4.86,4.9206,5.0031,5.0839,5.1646,5.2454,5.2659,5.245,5.245,5.2042,5.1494,5.1946,5.1814,5.1292,4.5594,0.0,0.0,0.0,0.0,0.0,0.0,0.0,0.0,0.0,4.6047,0.0,4.6471,0.0,4.6471,0.0,4.6471,4.6471,4.6471,4.6471,0.0,4.6086,4.6047,0.0,0.0,0.0,0.0,0.0,0.0,4.5594,4.5594,4.5594,4.5594,4.5594,4.5594,4.5594,4.5594,4.5594,4.5594,0.0,0.0,4.624,0.0,0.0,4.6133,4.5594,4.5594,4.5594,4.5568,4.5313,4.5243,4.5142,4.4676,4.4535,4.4482,4.4285,4.4213,4.4213,4.4213,4.402,4.3818,4.3818,4.3644,0.0,4.3515,0.0,4.3515,0.0,0.0,0.0,0.0,0.0,0.0,0.0,0.0,0.0,0.0,4.3515,4.3515,4.3515,4.3515,0.0,0.0,4.3515,4.3515,4.3515,4.3515,4.3515,4.3515,4.3515,4.3515,4.3515,4.4268,4.5112,4.5883,4.6709,4.748,4.8306,4.8306,4.8306,4.8306,4.86,4.904,4.9647,5.0729,5.136,5.1682,5.2485,5.2381,5.1765,5.2018,5.1692,5.1164,5.1593,5.1317,5.0635,0.0,0.0,0.0,0.0,4.5594,0.0,0.0,0.0,4.597,0.0,4.6923,4.724,4.8009,4.8086,4.8086,4.8086,4.8086,4.8086,4.8086,4.8086,0.0,0.0,4.6962,4.6547,4.5671,0.0,0.0,0.0,0.0,0.0,4.5594,4.5594,4.5594,4.5594,4.5594,0.0,4.5671,4.5671,4.571,4.5787,4.6624,4.7432,4.8086,4.8086,4.7124,4.571,4.5692,4.5683,4.5581,4.49,4.4649,4.453,4.3742,4.3495,4.3532,4.3515,4.3515,4.3515,4.3515,4.3515,4.3515,4.3515,4.3515,4.3515,0.0,0.0,4.3515,0.0,0.0,0.0,0.0,0.0,0.0,0.0,0.0,0.0,0.0,0.0,4.3515,4.3515,4.3515,0.0,0.0,4.3515,4.3515,4.3515,4.3515,4.3515,0.0,4.3515,4.3515,4.3551,4.4342,4.5149,4.5957,4.6746,4.7553,4.8306,4.8306,4.8343,4.8379,4.915,4.9554,4.9794,5.1336,5.1587,5.103,5.1811,5.1716,5.1164,5.1814,5.1692,5.1086,5.106,5.0608,5.0004,4.5594,4.5594,4.5594,0.0,4.5594,4.5594,0.0,0.0,0.0,0.0,4.7432,4.7855,4.8086,4.8086,4.8086,4.8086,4.8086,0.0,0.0,0.0,0.0,4.7817,4.7778,4.7432,4.6586,4.6586,0.0,4.5594,0.0,0.0,4.5594,4.5594,4.5594,4.5594,0.0,4.597,4.6586,4.6586,4.6894,4.7471,4.7702,4.7932,4.8086,4.8086,4.7817,4.7405,4.712,4.6997,4.6865,4.5861,4.5477,4.5297,4.4221,4.3865,4.3818,4.3563,4.3515,4.3515,4.3515,4.3515,4.3515,4.3515,4.3515,4.3515,4.3515,4.3515,4.3515,0.0,0.0,0.0,0.0,0.0,0.0,0.0,0.0,0.0,0.0,0.0,0.0,4.3515,0.0,0.0,4.3515,4.3515,4.3515,4.3515,4.3515,4.3515,4.3515,4.3515,4.3754,4.4378,4.5186,4.5993,4.6782,4.7609,4.8122,4.8306,4.8306,4.8636,4.928,4.95,5.0235,5.1389,5.1793,5.1916,5.1847,5.2593,5.2196,5.1164,5.1814,5.1692,5.1034,5.0535,5.0237,5.0086,4.5743,0.0,0.0,4.6642,0.0,0.0,4.6201,4.6894,0.0,4.7932,4.8702,0.0,4.9731,5.0087,5.0317,5.0317,5.0317,0.0,4.9769,0.0,0.0,4.8702,4.8663,4.8279,4.7432,4.7432,0.0,4.6701,0.0,0.0,4.6701,4.6701,4.6701,4.6701,0.0,4.6971,4.7432,4.7432,4.7894,4.8663,4.8663,4.8894,0.0,4.924,4.924,4.9154,4.859,4.8107,4.763,4.6644,4.6321,4.6149,4.517,4.4827,4.4778,4.4613,4.4305,4.4011,4.4011,4.3754,4.3515,4.3515,4.3515,4.3515,4.3515,4.3515,4.3515,4.3515,4.3515,4.3515,4.3515,0.0,0.0,0.0,0.0,0.0,0.0,0.0,0.0,0.0,4.3515,4.3515,4.3515,4.3515,4.3515,4.3515,4.3515,4.3515,4.3515,4.3515,4.3864,4.4654,4.548,4.6287,4.7076,4.7883,4.8306,4.8306,4.8673,4.9133,4.961,5.0345,5.1153,5.2013,5.2053,5.2073,5.2112,5.2242,5.1801,5.1138,5.1519,5.1632,5.1511,5.0808,5.0587,5.057,4.6211,0.0,0.0,0.0,0.0,0.0,0.0,4.8009,0.0,4.9471,0.0,5.1279,5.2,5.2741,5.3203,5.3203,0.0,5.2895,5.2115,5.2077,5.1346,4.9817,4.974,4.9279,4.8279,4.8279,0.0,0.0,0.0,0.0,4.8086,4.8086,4.8086,4.8086,0.0,0.0,0.0,4.8394,4.8894,4.9586,4.9586,4.999,5.0614,5.0614,5.0594,5.0462,4.9728,4.8986,4.8168,4.7297,4.7009,4.6892,4.615,4.5883,4.5883,4.5883,4.5406,4.4856,4.4856,4.4342,4.3791,4.3791,4.3735,4.3644,4.3644,4.3588,4.3515,4.3515,4.3515,4.3515,4.3515,4.3515,0.0,0.0,0.0,0.0,0.0,0.0,0.0,0.0,0.0,0.0,4.3515,4.3515,4.3515,4.3515,4.3515,4.3515,4.3515,4.3625,4.4011,4.4856,4.5626,4.6434,4.7259,4.7976,4.8379,4.8489,4.9243,4.9721,4.9978,5.1373,5.205,5.2176,5.2204,5.2136,5.191,5.1444,5.1164,5.1086,5.1087,5.1547,5.2156,5.146,5.139,5.1605,4.7908,0.0,0.0,0.0,0.0,5.0212,5.0058,5.0164,5.0289,5.0442,5.1818,5.2818,5.2972,5.3126,5.3203,5.3203,5.3203,0.0,0.0,0.0,0.0,5.15,5.1462,5.0741,4.9202,4.9163,4.8817,0.0,0.0,0.0,4.8086,4.8086,4.8086,0.0,0.0,0.0,4.9202,4.9933,0.0,5.0481,5.0481,5.034,5.0195,5.0195,4.9987,4.9673,4.9547,4.9386,4.9046,4.7573,4.7075,4.6928,4.6158,4.5883,4.5883,4.5883,4.581,4.57,4.57,4.559,4.548,4.548,4.4966,4.4488,4.4488,4.3975,4.3515,4.3515,4.3515,4.3515,4.3515,4.3515,0.0,0.0,0.0,0.0,0.0,0.0,0.0,0.0,0.0,4.3515,4.3515,4.3515,4.3515,4.3515,4.3515,4.3515,4.3515,4.4121,4.4856,4.5663,4.6471,4.7259,4.8067,4.8233,4.8673,4.939,4.9537,5.0308,5.1573,5.1867,5.2344,5.2983,5.3008,5.2371,5.1317,5.1741,5.1593,5.1105,5.1151,5.1605,5.2164,5.1459,5.2408,5.3795,0.0,0.0,0.0,0.0,0.0,5.201,5.201,5.2395,5.251,5.2049,5.3087,5.3857,5.3857,5.4241,5.4511,5.4511,5.4511,5.4318,5.3895,5.3857,5.351,5.2615,5.2577,0.0,5.0741,5.0702,5.0279,4.9433,0.0,0.0,4.9433,4.9433,4.9433,4.9433,0.0,4.9663,0.0,5.0519,5.0594,5.0418,5.0829,5.0784,5.0475,5.0878,5.0918,5.0727,5.0509,5.0183,4.9632,4.843,4.803,4.794,4.7316,4.7131,4.7131,4.7131,4.6838,4.6544,4.6544,4.6214,4.5883,4.5883,4.5626,4.5333,4.5333,4.5002,4.4745,4.4745,4.4415,4.3975,4.3588,4.3515,4.3515,0.0,0.0,0.0,0.0,0.0,0.0,0.0,0.0,0.0,0.0,0.0,4.3515,4.3515,4.3515,4.3681,4.4085,4.4488,4.5259,4.6489,4.6892,4.748,4.8306,4.8306,4.8746,4.961,4.9994,5.0839,5.2013,5.2417,5.2821,5.3203,5.2791,5.2242,5.1643,5.1994,5.1943,5.1749,5.2139,5.256,5.2886,5.2502,5.3091,5.3863,0.0,5.1092,0.0,0.0,5.2895,5.3472,5.3472,5.4203,5.4434,5.3587,5.4203,5.4741,5.4741,5.5318,5.5703,5.5703,5.5703,5.5434,5.478,5.4741,5.4357,5.351,5.3472,5.3087,5.2192,5.2192,5.1856,0.0,0.0,0.0,5.0712,5.0712,5.0712,5.0712,5.0894,5.0903,5.0842,5.1034,5.0905,5.0671,5.123,5.1258,5.1021,5.1554,5.1721,5.1607,5.1321,5.0786,5.0155,4.9504,4.9076,4.8709,4.8383,4.8306,4.8306,4.8306,4.7846,4.7369,4.7369,4.6911,4.6397,4.6397,4.6287,4.6177,4.6177,4.603,4.5883,4.5883,4.5406,4.4745,4.4121,4.4029,4.4029,4.4029,0.0,0.0,0.0,0.0,0.0,0.0,0.0,0.0,4.3718,4.3754,4.3828,4.3975,4.3828,4.4011,4.4654,4.5021,4.5792,4.7076,4.7259,4.7663,4.8306,4.8489,4.9003,4.9867,5.0655,5.1463,5.227,5.2931,5.3203,5.3146,5.2404,5.2042,5.1898,5.1896,5.2085,5.2369,5.308,5.352,5.3704,5.3549,5.3688,5.3811,0.0,0.0,0.0,5.3099,5.3818,5.4395,5.4395,5.5049,5.528,5.4472,5.5088,5.5588,5.5588,5.5665,5.5703,5.5703,5.5703,5.5665,5.5588,5.5588,5.5241,5.4395,5.4395,5.3972,5.3087,5.3087,5.3049,0.0,0.0,5.1395,5.0712,5.0712,5.0712,5.075,5.1471,5.1585,5.1318,5.2081,5.24,5.2348,5.1968,5.1843,5.185,5.149,5.1176,5.0905,5.0845,5.0789,5.0715,5.0642,4.9613,4.8363,4.8306,4.8306,4.8306,4.8306,4.8269,4.8196,4.8196,4.8122,4.8086,4.8086,4.7516,4.7003,4.7003,4.6434,4.5883,4.5883,4.5847,4.5773,4.57,4.5663,4.5663,4.5663,0.0,0.0,0.0,0.0,0.0,0.0,0.0,0.0,4.4525,4.4599,4.4892,4.5626,4.5002,4.4618,4.4691,4.6085,4.6929,4.7113,4.781,4.8233,4.8306,4.9077,4.9884,5.0692,5.1499,5.2307,5.3115,5.3167,5.3203,5.3146,5.2404,5.1741,5.1209,5.1297,5.1731,5.2369,5.3172,5.3882,5.4402,5.3764,5.4353,5.5291,5.3648,5.3916,5.4138,5.4013,5.4664,5.5203,5.5203,5.5472,5.5588,5.5241,5.5511,5.5703,5.5703,5.5703,5.5703,5.5703,5.5703,5.5703,5.5703,5.5703,5.5549,5.5241,5.5203,5.4818,5.401,5.3972,5.3703,0.0,0.0,0.0,0.0,5.2202,5.2202,5.2202,5.2549,5.2592,5.2433,5.2538,5.2447,5.2224,5.2231,5.2171,5.2029,5.2321,5.2361,5.2234,5.2234,5.194,5.1499,5.1499,5.0765,4.9811,4.9811,4.9811,4.9701,4.9224,4.9077,4.8967,4.8453,4.8306,4.8306,4.8306,4.8086,4.781,4.781,4.7572,4.7352,4.7352,4.6948,4.6471,4.5993,4.5883,4.5883,4.5883,4.5626,0.0,0.0,0.0,0.0,0.0,0.0,0.0,0.0,4.5406,4.5553,4.5883,4.559,4.5626,4.6122,4.6424,4.6951,4.781,4.7773,4.8174,4.9077,4.9427,5.0271,5.1499,5.183,5.2417,5.3167,5.2747,5.2554,5.2509,5.1825,5.1844,5.2408,5.2478,5.2972,5.376,5.4508,5.4734,5.4545,5.4253,5.4544,5.4909,5.4325,5.4645,5.4939,5.485,5.5318,5.5703,5.5703,5.5934,5.6088,5.6088,5.6319,5.628,5.5742,5.5703,5.5703,5.5703,5.5703,5.5703,5.5703,5.5703,5.5703,5.5703,5.5703,0.0,5.4857,5.4857,5.4549,5.3933,5.3703,0.0,5.3203,5.2933,5.2972,5.3192,5.33,5.3326,5.3171,5.3014,5.2772,5.2564,5.266,5.2655,5.2569,5.3031,5.3203,5.3203,5.3203,5.2821,5.2344,5.2344,5.1977,5.1426,5.0949,5.0802,5.0692,5.0105,4.9958,4.9811,4.9187,4.904,4.904,4.904,4.8857,4.8673,4.8673,4.8489,4.8306,4.8306,4.7846,4.7259,4.6728,4.6617,4.6617,4.6617,4.6397,0.0,0.0,4.6067,0.0,0.0,4.5883,4.5993,4.625,4.625,4.6361,4.6581,4.6617,4.6764,4.7076,4.6911,4.7401,4.8617,4.8279,4.868,4.9921,5.0198,5.0896,5.1977,5.2029,5.2432,5.3203,5.2644,5.2312,5.2089,5.1869,5.2337,5.3327,5.3857,5.4389,5.4973,5.5489,5.5403,5.4909,5.4665,5.4726,5.4818,5.5924,5.5779,5.5675,5.5703,5.5703,5.5703,5.5703,5.6445,5.6983,5.6983,5.7742,5.7627,5.5895,5.5703,5.5703,5.5703,5.5703,5.5703,5.5703,5.5703,5.5703,0.0,0.0,5.5703,5.5703,5.5703,5.5665,5.5665,0.0,5.4049,5.3164,5.2308,5.2385,5.322,5.3606,5.3556,5.323,5.3621,5.3795,5.3758,5.3343,5.3444,5.3721,5.3359,5.3203,5.3203,5.3203,5.3167,5.3188,5.3188,5.3167,5.2873,5.1316,5.0802,5.0802,5.0802,5.0802,5.0765,5.0765,5.0765,5.0765,5.0765,5.0178,4.9574,4.9574,4.893,4.8306,4.8306,4.8306,4.8269,4.8269,4.8269,4.8269,4.8269,4.759,4.7076,0.0,4.6397,0.0,4.5883,4.5883,4.6214,4.7003,4.7076,0.0,4.8233,4.8269,4.792,4.7149,4.7846,4.8673,4.9574,4.9574,4.9958,5.0765,5.1573,5.1977,5.2013,5.2087,5.2472,5.3203,5.3203,5.2791,5.2149,5.2906,5.3291,5.3436,5.511,5.5735,5.5692,5.5684,5.5688,5.561,5.4878,5.5054,5.5581,5.6846,5.6816,5.6879,5.739,5.7473,5.7473,5.7473,5.7703,5.7896,5.7896,5.8127,5.8088,5.755,5.7473,5.7473,5.7473,5.6934,5.6599,5.6599,5.6011,5.5703,5.5703,5.5703,5.5703,5.5703,5.5703,5.5703,5.5703,5.5434,5.5164,5.4895,5.4338,5.423,5.4485,5.4354,5.4216,5.4075,5.3883,5.3777,5.3777,5.3359,5.3293,5.338,5.3251,5.3203,5.3203,5.3203,5.3203,5.3203,5.3203,5.3203,5.3093,5.2601,5.2454,5.2344,5.1793,5.161,5.1499,5.0949,5.0802,5.0802,5.0802,5.0618,5.0398,5.0398,5.0215,4.9848,4.9297,4.9206,4.9003,4.8416,4.8306,4.8306,4.8306,4.8086,4.7939,4.7939,0.0,4.7535,4.7535,4.7535,4.7645,4.7902,4.7939,4.7993,4.8269,4.8857,4.882,4.7957,4.7868,4.8345,4.9498,4.9227,4.9892,5.161,5.1867,5.2008,5.2087,5.2579,5.2725,5.2427,5.2427,5.2625,5.293,5.3183,5.4205,5.5696,5.5703,5.6046,5.6474,5.5897,5.5724,5.5695,5.5437,5.5836,5.6313,5.7741,5.7753,5.7821,5.8209,5.8319,5.8319,5.8319,5.855,5.8742,5.8742,5.905,5.9242,5.9242,5.9242,5.8973,5.8357,5.778,5.7473,5.7473,5.6973,5.6511,5.6203,5.6214,5.6049,5.5703,5.5703,5.5703,5.5703,5.5703,5.5703,5.5703,5.5275,5.5107,5.5094,5.45,5.4238,5.4204,5.3758,5.3565,5.3546,5.3314,5.3203,5.3203,5.3203,5.3203,5.3203,5.3203,5.3203,5.3203,5.3203,5.3203,5.3203,5.3203,5.3203,5.3093,5.2601,5.2454,5.2344,5.183,5.172,5.172,5.172,5.1463,5.1169,5.0875,5.0802,5.0655,5.0141,5.0031,4.9884,4.9334,4.926,4.926,4.926,4.926,4.926,4.926,4.926,4.926,0.0,0.0,4.926,4.926,4.8989,4.8831,4.8831,4.9341,4.9378,4.8867,4.88,4.93,5.0378,5.0162,5.0791,5.2417,5.2454,5.2447,5.2531,5.298,5.2813,5.2112,5.2377,5.2774,5.3303,5.3917,5.4882,5.5981,5.637,5.6519,5.6421,5.6232,5.6177,5.6177,5.6177,5.6447,5.6695,5.8629,5.8582,5.8565,5.849,5.8473,5.8473,5.8473,5.9127,5.9588,5.9588,6.0281,6.0781,6.0781,6.0781,6.0165,5.8627,5.8434,5.8396,5.8396,5.8319,5.7934,5.7137,5.7099,5.6714,5.5895,5.5895,5.5857,5.578,5.5742,5.5703,5.5703,5.5275,5.5094,5.5002,5.4167,5.3758,5.3739,5.3359,5.3203,5.3277,5.3277,5.3314,5.335,5.335,5.335,5.335,5.335,5.3335,5.3277,5.3277,5.324,5.3203,5.3203,5.3203,5.3203,5.3203,5.3203,5.3203,5.3203,5.3203,5.3203,5.3203,5.2637,5.1867,5.1132,5.0986,5.0949,5.0875,5.0875,5.0875,5.0802,5.0802,5.0802,5.0802,5.0802,5.0802,5.0802,5.0802,5.0802,5.0802,5.0802,5.0802,5.0802,5.0155,4.9789,4.9789,4.9825,4.9861,4.9861,5.0508,5.1218,5.1899,5.1988,5.2354,5.3124,5.3167,5.3167,5.3124,5.3198,5.282,5.215,5.2955,5.3376,5.3471,5.506,5.5353,5.489,5.7049,5.7105,5.5948,5.6642,5.6912,5.6912,5.6964,5.6912,5.6695,5.9554,5.9514,5.9591,6.0107,6.0204,6.0204,6.0204,6.0358,6.0473,6.0473,6.0666,6.0781,6.0781,6.0781,6.0627,6.0242,5.9588,5.9204,5.9204,5.8627,5.8204,5.8011,5.7973,5.7896,5.7703,5.7665,5.7357,5.6676,5.6011,5.5703,5.5703,5.5275,5.4919,5.4609,5.4048,5.3643,5.3318,5.323,5.3555,5.4106,5.4106,5.4473,5.5023,5.5023,5.5023,5.5023,5.5023,5.462,5.4106,5.4106,5.3702,5.3203,5.3203,5.3203,5.3203,5.3203,5.3203,5.3203,5.3203,5.3203,5.3203,5.3203,5.3078,5.2894,5.2674,5.2616,5.2454,5.183,5.172,5.1536,5.0912,5.0802,5.0802,5.0802,5.0802,5.0802,5.0802,5.0802,5.0802,5.0802,5.0802,5.0802,5.0802,5.0643,5.0524,5.0524,5.1109,5.1459,5.1459,5.1667,5.1597,5.1162,5.1742,5.2177,5.2358,5.2915,5.2915,5.2358,5.2997,5.2894,5.2242,5.4168,5.506,5.5144,5.6126,5.6779,5.7158,5.7143,5.7266,5.7413,5.704,5.6912,5.6964,5.7522,5.6978,5.5948,6.0533,6.0437,6.0412,6.0723,6.0781,6.0781,6.0781,6.0781,6.0781,6.0781,6.0781,6.0781,6.0781,6.0781,6.0781,6.0781,6.0358,6.0089,6.0089,5.9704,5.9281,5.8858,5.8858,5.8665,5.8319,5.8319,5.8088,5.7588,5.7126,5.6896,5.6885,5.6251,5.5822,5.5583,5.4931,5.449,5.4289,5.4289,5.4546,5.495,5.495,5.5207,5.5596,5.5596,5.5596,5.5596,5.5596,5.5317,5.495,5.495,5.4656,5.4289,5.4289,5.4289,5.4216,5.3849,5.3482,5.3203,5.3203,5.3203,5.3203,5.3203,5.3203,5.3203,5.3203,5.3203,5.3078,5.2637,5.2564,5.2417,5.1977,5.1903,5.1903,5.1903,5.1903,5.1903,5.1903,5.1903,5.1903,5.1903,5.1903,5.1903,5.1903,5.1578,5.1391,5.1391,5.1511,5.1742,5.2047,5.2082,5.2049,5.1944,5.2036,5.2289,5.2599,5.2985,5.2994,5.263,5.3068,5.3284,5.3304,5.4525,5.5313,5.5721,5.6527,5.6866,5.6978,5.7266,5.7449,5.7449,5.704,5.6912,5.6912,5.6953,5.6411,5.5724,6.1312,6.112,6.0916,6.0827,6.0781,6.0781,6.0781,6.0781,6.0781,6.0781,6.0781,6.0781,6.0781,6.0781,6.0781,6.0781,6.0781,6.0781,6.0781,6.0781,6.0473,5.9742,5.9704,5.9396,5.8704,5.855,5.8473,5.8473,5.8357,5.8258,5.82,5.7399,5.6953,5.6747,5.6014,5.5662,5.5596,5.5596,5.5647,5.5757,5.5757,5.5831,5.5941,5.5941,5.5941,5.5941,5.5941,5.5868,5.5757,5.5757,5.5684,5.5596,5.5596,5.5596,5.5464,5.4766,5.4106,5.3518,5.3298,5.3203,5.3203,5.3203,5.3203,5.3203,5.3203,5.3203,5.3203,5.3203,5.3203,5.3203,5.3203,5.3203,5.3203,5.3203,5.3203,5.3203,5.3203,5.3203,5.3203,5.3203,5.3203,5.3203,5.3203,5.2621,5.2289,5.2289,5.1752,5.1679,5.2266,5.2159,5.2427,5.3203,5.2599,5.2568,5.3185,5.3191,5.3133,5.3043,5.3478,5.3896,5.4358,5.4822,5.5338,5.5938,5.6725,5.6695,5.6141,5.734,5.7522,5.704,5.6835,5.6773,5.6835,5.6114,5.5808,5.5724,6.1289,6.1036,6.08,6.0793,6.0781,6.0781,6.0781,6.0781,6.0781,6.0781,6.0781,6.0781,6.0781,6.0781,6.0781,6.0781,6.0781,6.0781,6.0781,6.0781,6.0742,6.0589,6.0589,6.055,6.0396,5.9704,5.9319,5.9319,5.8627,5.8103,5.7718,5.7568,5.7068,5.6275,5.6157,5.5928,5.5596,5.5596,5.5978,5.6602,5.6602,5.7005,5.7629,5.7629,5.7629,5.7629,5.7629,5.7189,5.6602,5.6602,5.6161,5.5596,5.5596,5.5596,5.5596,5.5427,5.5317,5.4913,5.3592,5.3203,5.3203,5.3203,5.3203,5.3203,5.3203,5.3203,5.3203,5.3203,5.3203,5.3203,5.3203,5.3203,5.3203,5.3203,5.3203,5.3203,5.3203,5.3203,5.3203,5.3203,5.3203,5.3203,5.3203,5.3103,5.3039,5.3039,5.2937,5.2915,5.3002,5.2427,5.2427,5.3203,5.3082,5.3097,5.3182,5.3195,5.2931,5.2434,5.4376,5.4741,5.3737,5.6273,5.7158,5.6757,5.751,5.7774,5.7618,5.7216,5.7376,5.7703,5.6421,5.6313,5.6887,5.6747,5.6286,5.5808,6.1165,6.0954,6.0781,6.0781,6.0781,6.0781,6.0781,6.0781,6.0781,6.0781,6.0781,6.0781,6.0781,6.0781,6.0781,6.0781,6.0781,6.0781,6.0781,6.0781,6.0781,6.0781,6.0781,6.0781,6.0781,6.0396,6.0204,6.0204,5.9562,5.9163,5.8945,5.8446,5.794,5.7518,5.7307,5.7066,5.6895,5.6895,5.7116,5.7446,5.7446,5.7666,5.7997,5.7997,5.7997,5.7997,5.7997,5.7776,5.7446,5.7446,5.7189,5.6895,5.6895,5.6895,5.6822,5.6381,5.5941,5.5427,5.4693,5.4179,5.3849,5.3849,5.3518,5.3203,5.3203,5.3203,5.3203,5.3203,5.3203,5.3203,5.3203,5.3203,5.3203,5.3203,5.3203,5.3203,5.3203,5.3203,5.3203,5.3203,5.3203,5.3203,5.3203,5.3203,5.3203,5.3203,5.2813,5.2769,5.3203,5.2931,5.3103,5.3827,5.3849,5.3872,5.3904,5.4301,5.442,5.4142,5.5196,5.5588,5.5368,5.6783,5.7425,5.7474,5.7425,5.7655,5.795,5.7191,5.7351,5.7867,5.6799,5.6589,5.6861,5.6394,5.6286,5.6394,6.1031,6.0874,6.0781,6.0781,6.0781,6.0781,6.0781,6.0781,6.0781,6.0781,6.0781,6.0781,6.0781,6.0781,6.0781,6.0781,6.0781,6.0781,6.0781,6.0781,6.0781,6.0781,6.0781,6.0781,6.0781,6.0781,6.0746,6.0634,6.0297,5.9977,5.9776,5.9047,5.8652,5.8508,5.8164,5.7997,5.7997,5.7997,5.7997,5.7997,5.7997,5.7997,5.7997,5.7997,5.7997,5.7997,5.7997,5.7997,5.7997,5.7997,5.7997,5.7997,5.7997,5.7997,5.7886,5.7262,5.6638,5.6088,5.5684,5.5133,5.4693,5.4693,5.4216,5.3775,5.3775,5.3628,5.3482,5.3482,5.3335,5.3203,5.3203,5.3203,5.3203,5.3203,5.3203,5.3203,5.3203,5.3203,5.3203,5.3203,5.3203,5.3203,5.3203,5.3203,5.3203,5.3203,5.2848,5.289,5.346,5.3722,5.4104,5.4692,5.4701,5.4734,5.4794,5.5371,5.5692,5.5718,5.5883,5.6313,5.6912,5.7065,5.7376,5.7726,5.7327,5.7376,5.7703,5.7116,5.7351,5.7927,5.6989,5.6825,5.7065,5.6286,5.6474,5.7177,6.1006,6.0874,6.0781,6.0781,6.0781,6.0781,6.0781,6.0781,6.0781,6.0781,6.0781,6.0781,6.0781,6.0781,6.0781,6.0781,6.0781,6.0781,6.0781,6.0781,6.0781,6.0781,6.0781,6.0781,6.0781,6.0781,6.0597,6.0146,6.0118,5.968,5.8796,5.8716,5.8482,5.8065,5.802,5.7997,5.7997,5.7997,5.7997,5.7997,5.7997,5.7997,5.7997,5.7997,5.7997,5.7997,5.7997,5.7997,5.7997,5.7997,5.7997,5.7997,5.7997,5.7997,5.7997,5.7923,5.785,5.7483,5.5978,5.5537,5.55,5.55,5.5464,5.5427,5.5427,5.484,5.4326,5.4326,5.3739,5.3203,5.3203,5.3203,5.3203,5.3203,5.3203,5.3203,5.3203,5.3203,5.3203,5.3203,5.3203,5.3203,5.3203,5.3203,5.3203,5.3203,5.3842,5.4246,5.4326,5.5016,5.5501,5.558,5.5537,5.5537,5.5613,5.5685,5.5711,5.5702,5.6474,5.6861,5.6912,5.7631,5.7607,5.7015,5.7655,5.7546,5.6964,5.6912,5.7351,5.7844,5.6358,5.6659,5.7821,5.7091,5.7302,5.7927,6.0874,6.0823,6.0781,6.0781,6.0781,6.0781,6.0781,6.0781,6.0781,6.0781,6.0781,6.0781,6.0781,6.0781,6.0781,6.0781,6.0781,6.0781,6.0781,6.0781,6.0781,6.0781,6.0781,6.0781,6.0781,6.0781,6.0722,6.0521,6.0231,5.9776,5.9121,5.8835,5.8461,5.7997,5.7997,5.7997,5.7997,5.7997,5.7997,5.7997,5.7997,5.7997,5.7997,5.7997,5.7997,5.7997,5.7997,5.7997,5.7997,5.7997,5.7997,5.7997,5.7997,5.7997,5.7997,5.7997,5.7997,5.785,5.7262,5.6712,5.6345,5.6345,5.5978,5.5596,5.5596,5.5354,5.5133,5.5133,5.4913,5.4693,5.4693,5.4693,5.4693,5.4693,5.4693,5.4693,5.4693,5.4693,5.4693,5.4693,5.4693,5.4693,5.4693,5.4693,5.4693,5.4693,5.495,5.5133,5.5133,5.5904,5.6562,5.7096,5.7111,5.6888,5.6443,5.6879,5.7122,5.713,5.7449,5.7351,5.6938,5.7679,5.7607,5.6912,5.7202,5.7425,5.7522,5.7091,5.7351,5.795,5.7364,5.7462,5.7973,5.7703,5.775,5.7997,6.0827,6.0781,6.0781,6.0781,6.0781,6.0781,6.0781,6.0781,6.0781,6.0781,6.0781,6.0781,6.0781,6.0781,6.0781,6.0781,6.0781,6.0781,6.0781,6.0781,6.0781,6.0781,6.0781,6.0781,6.0781,6.0781,6.0647,6.0351,6.0059,5.9559,5.8971,5.8632,5.8326,5.7997,5.7997,5.7997,5.7997,5.7997,5.7997,5.7997,5.7997,5.7997,5.7997,5.7997,5.7997,5.7997,5.7997,5.7997,5.7997,5.7997,5.7997,5.7997,5.7997,5.7997,5.7997,5.7997,5.7997,5.7997,5.7997,5.7593,5.7189,5.7189,5.6748,5.6345,5.6345,5.6161,5.5978,5.5978,5.5757,5.5596,5.5596,5.5596,5.5596,5.5596,5.5596,5.5596,5.5596,5.5596,5.5596,5.5596,5.5596,5.5596,5.5596,5.5596,5.5596,5.5596,5.5831,5.6088,5.6345,5.6895,5.7446,5.796,5.7997,5.775,5.7277,5.775,5.7997,5.7997,5.7997,5.7726,5.7277,5.7774,5.7607,5.6912,5.7141,5.7401,5.7655,5.7351,5.7522,5.7997,5.7997,5.7997,5.7997,5.7997,5.7997,5.7997,6.0781,6.0781,6.0781,6.0781,6.0781,6.0781,6.0781,6.0781,6.0781,6.0781,6.0781,6.0781,6.0781,6.0781,6.0781,6.0781,6.0781,6.0781,6.0781,6.0781,6.0781,6.0781,6.0781,6.0781,6.0781,6.0781,6.0338,5.9407,5.9389,5.8932,5.7997,5.7997,5.7997,5.7997,5.7997,5.7997,5.7997,5.7997,5.7997,5.7997,5.7997,5.7997,5.7997,5.7997,5.7997,5.7997,5.7997,5.7997,5.7997,5.7997,5.7997,5.7997,5.7997,5.7997,5.7997,5.7997,5.7997,5.7997,5.7997,5.7997,5.7997,5.7997,5.7997,5.7997,5.7997,5.7373,5.6822,5.6822,5.6161,5.5611,5.5611,5.5611,5.5611,5.5611,5.5611,5.5611,5.5611,5.5611,5.5611,5.5611,5.5611,5.5611,5.5611,5.5611,5.5611,5.5611,5.6345,5.7152,5.796,5.7997,5.7997,5.7997,5.7997,5.7997,5.7997,5.7997,5.7997,5.7997,5.7997,5.7997,5.7997,5.7997,5.7607,5.6938,5.7679,5.757,5.6964,5.7703,5.7997,5.7997,5.7997,5.7997,5.7997,5.7997,5.7997,5.7997,6.0781,6.0781,6.0781,6.0781,6.0781,6.0781,6.0781,6.0781,6.0781,6.0781,6.0781,6.0781,6.0781,6.0781,6.0781,6.0781,6.0781,6.0781,6.0781,6.0781,6.0781,6.0781,6.0781,6.0781,6.0781,6.0482,6.0161,5.9885,5.9543,5.9065,5.8503,5.8503,5.8326,5.7997,5.7997,5.7997,5.7997,5.7997,5.7997,5.7997,5.7997,5.7997,5.7997,5.7997,5.7997,5.7997,5.7997,5.7997,5.7997,5.7997,5.7997,5.7997,5.7997,5.7997,5.7997,5.7997,5.7997,5.7997,5.7997,5.7997,5.7997,5.7997,5.7997,5.7997,5.7997,5.7813,5.7629,5.7629,5.7446,5.7262,5.7262,5.7262,5.7262,5.7262,5.7262,5.7262,5.7262,5.7262,5.7262,5.7262,5.7262,5.7262,5.7262,5.7262,5.7262,5.7262,5.7519,5.774,5.7997,5.7997,5.7997,5.7997,5.7997,5.7997,5.7997,5.7997,5.7997,5.7997,5.7997,5.7726,5.7252,5.775,5.7607,5.6938,5.7679,5.7904,5.7703,5.7927,5.7997,5.7997,5.7997,5.7997,5.7997,5.7997,5.7997,5.7997,6.0781,6.0781,6.0781,6.0781,6.0781,6.0781,6.0781,6.0781,6.0781,6.0781,6.0781,6.0781,6.0781,6.0781,6.0781,6.0781,6.0781,6.0781,6.0781,6.0781,6.0781,6.0781,6.0622,6.061,6.0781,6.0338,5.9991,5.9823,5.9354,5.8894,5.8418,5.8418,5.8282,5.7997,5.7997,5.7997,5.7997,5.7997,5.7997,5.7997,5.7997,5.7997,5.7997,5.7997,5.7997,5.7997,5.7997,5.7997,5.7997,5.7997,5.7997,5.7997,5.7997,5.7997,5.7997,5.7997,5.7997,5.7997,5.7997,5.7997,5.7997,5.7997,5.7997,5.7997,5.7997,5.7997,5.7997,5.7997,5.7997,5.7997,5.7997,5.7997,5.7997,5.7997,5.7997,5.7997,5.7997,5.7997,5.7997,5.7997,5.7997,5.7997,5.7997,5.7997,5.7997,5.7997,5.7997,5.7997,5.7997,5.7997,5.7997,5.7997,5.7997,5.7997,5.7997,5.7997,5.7997,5.7997,5.7997,5.7774,5.7351,5.7797,5.775,5.7376,5.7797,5.7997,5.7997,5.7997,5.7997,5.7997,5.7997,5.7997,5.7997,5.7997,5.7997,5.7997,6.0781,6.0781,6.0781,6.0781,6.0781,6.0781,6.0781,6.0781,6.0781,6.0781,6.0781,6.0781,6.0781,6.0781,6.0781,6.0781,6.0781,6.0781,6.0781,6.0781,6.0769,6.0746,6.0324,6.0297,6.0659,6.0203,5.9776,5.9337,5.8874,5.8418,5.7997,5.7997,5.7997,5.7997,5.7997,5.7997,5.7997,5.7997,5.7997,5.7997,5.7997,5.7997,5.7997,5.7997,5.7997,5.7997,5.7997,5.7997,5.7997,5.7997,5.7997,5.7997,5.7997,5.7997,5.7997,5.7997,5.7997,5.7997,5.7997,5.7997,5.7997,5.7997,5.7997,5.7997,5.7997,5.7997,5.7997,5.7997,5.7997,5.7997,5.7997,5.7997,5.7997,5.7997,5.7997,5.7997,5.7997,5.7997,5.7997,5.7997,5.7997,5.7997,5.7997,5.7997,5.7997,5.7997,5.7997,5.7997,5.7997,5.7997,5.7997,5.7997,5.7997,5.7997,5.7997,5.7997,5.7997,5.7997,5.7997,5.7997,5.7997,5.7997,5.7997,5.7997,5.7997,5.7997,5.7997,5.7997,5.7997,5.7997,5.7997,5.7997,5.7997,5.7997,5.7997,5.7997,6.0781,6.0781,6.0781,6.0781,6.0781,6.0781,6.0781,6.0781,6.0781,6.0781,6.0781,6.0781,6.0781,6.0781,6.0781,6.0781,6.0781,6.0781,6.0781,6.0781,6.0634,6.0283,6.0146,5.9962,5.9728,5.923,5.8971,5.8855,5.8375,5.8097,5.7997,5.7997,5.7997,5.7997,5.7997,5.7997,5.7997,5.7997,5.7997,5.7997,5.7997,5.7997,5.7997,5.7997,5.7997,5.7997,5.7997,5.7997,5.7997,5.7997,5.7997,5.7997,5.7997,5.7997,5.7997,5.7997,5.7997,5.7997,5.7997,5.7997,5.7997,5.7997,5.7997,5.7997,5.7997,5.7997,5.7997,5.7997,5.7997,5.7997,5.7997,5.7997,5.7997,5.7997,5.7997,5.7997,5.7997,5.7997,5.7997,5.7997,5.7997,5.7997,5.7997,5.7997,5.7997,5.7997,5.7997,5.7997,5.7997,5.7997,5.7997,5.7997,5.7997,5.7997,5.7997,5.7997,5.7997,5.7997,5.7997,5.7997,5.7997,5.7997,5.7997,5.7997,5.7997,5.7997,5.7997,5.7997,5.7997,5.7997,5.7997,5.7997,5.7997,5.7997,5.7997,5.7997,6.0781,6.0781,6.0781,6.0781,6.0781,6.0781,6.0781,6.0781,6.0781,6.0781,6.0781,6.0781,6.0781,6.0781,6.0781,6.0781,6.0781,6.0781,6.0781,6.0597,6.0351,6.0118,5.9658,5.9302,5.9047,5.8611,5.8482,5.8713,5.8216,5.7997,5.7997,5.7997,5.7997,5.7997,5.7997,5.7997,5.7997,5.7997,5.7997,5.7997,5.7997,5.7997,5.7997,5.7997,5.7997,5.7997,5.7997,5.7997,5.7997,5.7997,5.7997,5.7997,5.7997,5.7997,5.7997,5.7997,5.7997,5.7997,5.7997,5.7997,5.7997,5.7997,5.7997,5.7997,5.7997,5.7997,5.7997,5.7997,5.7997,5.7997,5.7997,5.7997,5.7997,5.7997,5.7997,5.7997,5.7997,5.7997,5.7997,5.7997,5.7997,5.7997,5.7997,5.7997,5.7997,5.7997,5.7997,5.7997,5.7997,5.7997,5.7997,5.7997,5.7997,5.7997,5.7997,5.7997,5.7997,5.7997,5.7997,5.7997,5.7997,5.7997,5.7997,5.7997,5.7997,5.7997,5.7997,5.7997,5.7997,5.7997,5.7997,5.7997,5.7997,5.7997,5.7997,5.8033,6.0781,6.0781,6.0781,6.0781,6.0781,6.0781,6.0781,6.0781,6.0781,6.0781,6.0781,6.0781,6.0781,6.0781,6.0781,6.0781,6.0781,6.0757,6.071,6.0324,6.0044,5.987,5.914,5.8673,5.857,5.8172,5.8172,5.857,5.8172,5.7997,5.7997,5.7997,5.7997,5.7997,5.7997,5.7997,5.7997,5.7997,5.7997,5.7997,5.7997,5.7997,5.7997,5.7997,5.7997,5.7997,5.7997,5.7997,5.7997,5.7997,5.7997,5.7997,5.7997,5.7997,5.7997,5.7997,5.7997,5.7997,5.7997,5.7997,5.7997,5.7997,5.7997,5.7997,5.7997,5.7997,5.7997,5.7997,5.7997,5.7997,5.7997,5.7997,5.7997,5.7997,5.7997,5.7997,5.7997,5.7997,5.7997,5.7997,5.7997,5.7997,5.7997,5.7997,5.7997,5.7997,5.7997,5.7997,5.7997,5.7997,5.7997,5.7997,5.7997,5.7997,5.7997,5.7997,5.7997,5.7997,5.7997,5.7997,5.7997,5.7997,5.7997,5.7997,5.7997,5.7997,5.7997,5.7997,5.7997,5.7997,5.7997,5.7997,5.8033,5.8143,5.8217,5.8327,6.0781,6.0781,6.0781,6.0781,6.0781,6.0781,6.0781,6.0781,6.0781,6.0781,6.0781,6.0781,6.0781,6.0781,6.0781,6.0781,6.0781,6.0622,6.0203,6.0132,5.976,5.8932,5.8756,5.8524,5.8097,5.8042,5.8042,5.8074,5.8042,5.7997,5.7997,5.7997,5.7997,5.7997,5.7997,5.7997,5.7997,5.7997,5.7997,5.7997,5.7997,5.7997,5.7997,5.7997,5.7997,5.7997,5.7997,5.7997,5.7997,5.7997,5.7997,5.7997,5.7997,5.7997,5.7997,5.7997,5.7997,5.7997,5.7997,5.7997,5.7997,5.7997,5.7997,5.7997,5.7997,5.7997,5.7997,5.7997,5.7997,5.7997,5.7997,5.7997,5.7997,5.7997,5.7997,5.7997,5.7997,5.7997,5.7997,5.7997,5.7997,5.7997,5.7997,5.7997,5.7997,5.7997,5.7997,5.7997,5.7997,5.7997,5.7997,5.7997,5.7997,5.7997,5.7997,5.7997,5.7997,5.7997,5.7997,5.7997,5.7997,5.7997,5.7997,5.7997,5.7997,5.7997,5.7997,5.7997,5.7997,5.7997,5.7997,5.7997,5.807,5.8804,5.9038,5.9148,6.0781,6.0781,6.0781,6.0781,6.0781,6.0781,6.0781,6.0781,6.0781,6.0781,6.0781,6.0781,6.0781,6.0781,6.0781,6.0781,6.0781,6.061,6.0132,5.9855,5.9407,5.8716,5.8461,5.8194,5.7997,5.7997,5.7997,5.7997,5.7997,5.7997,5.7997,5.7997,5.7997,5.7997,5.7997,5.7997,5.7997,5.7997,5.7997,5.7997,5.7997,5.7997,5.7997,5.7997,5.7997,5.7997,5.7997,5.7997,5.7997,5.7997,5.7997,5.7997,5.7997,5.7997,5.7997,5.7997,5.7997,5.7997,5.7997,5.7997,5.7997,5.7997,5.7997,5.7997,5.7997,5.7997,5.7997,5.7997,5.7997,5.7997,5.7997,5.7997,5.7997,5.7997,5.7997,5.7997,5.7997,5.7997,5.7997,5.7997,5.7997,5.7997,5.7997,5.7997,5.7997,5.7997,5.7997,5.7997,5.7997,5.7997,5.7997,5.7997,5.7997,5.7997,5.7997,5.7997,5.7997,5.7997,5.7997,5.7997,5.7997,5.7997,5.7997,5.7997,5.7997,5.7997,5.7997,5.7997,5.7997,5.8033,5.851,5.8951,5.9391,5.9758,5.9869,5.9907]}]]